[[{"header":{"parameterUnit":"m.s-1","parameterCategory":1,"la1":31.0,"la2":29.5877,"lo1":-88.7671,"lo2":-86.6584,"dy":0.0162,"dx":0.0185,"nx":115,"ny":88,"refTime":"2023-09-07T18:00:00:Z","depth":0,"parameterNumber":2,"parameterNumberName":"U-component_of_WINDS"},"data":[0.0,0.0,0.0,0.0,0.0,0.0,0.0,0.0,0.0,0.0,0.0,0.0,0.0,0.0,0.0,0.0,0.0,0.0,0.0,0.0,0.0,0.0,0.0,0.0,0.0,0.0,0.0,0.0,0.0,0.0,0.0,0.0,0.0,0.0,0.0,0.0,0.0,0.0,0.0,0.0,0.0,0.0,0.0,0.0,0.0,0.0,0.0,0.0,0.0,0.0,0.0,0.0,0.0,0.0,0.0,0.0,0.0,0.0,0.0,0.0,0.0,0.0,0.0,0.0,0.0,0.0,0.0,0.0,0.0,0.0,0.0,0.0,0.0,0.0,0.0,0.0,0.0,0.0,0.0,0.0,0.0,0.0,0.0,0.0,0.0,0.0,0.0,0.0,0.0,0.0,0.0,0.0,0.0,0.0,0.0,0.0,0.0,0.0,0.0,0.0,0.0,0.0,0.0,0.0,0.0,0.0,0.0,0.0,0.0,0.0,0.0,0.0,0.0,0.0,0.0,0.0,0.0,0.0,0.0,0.0,0.0,0.0,0.0,0.0,0.0,0.0,0.0,0.0,0.0,0.0,0.0,0.0,0.0,0.0,0.0,0.0,0.0,0.0,0.0,0.0,0.0,0.0,0.0,0.0,0.0,0.0,0.0,0.0,0.0,0.0,0.0,0.0,0.0,0.0,0.0,0.0,0.0,0.0,0.0,0.0,0.0,0.0,0.0,0.0,0.0,0.0,0.0,0.0,0.0,0.0,0.0,0.0,0.0,0.0,0.0,0.0,0.0,0.0,0.0,0.0,0.0,0.0,0.0,0.0,0.0,0.0,0.0,0.0,0.0,0.0,0.0,0.0,0.0,0.0,0.0,0.0,0.0,0.0,0.0,0.0,0.0,0.0,0.0,0.0,0.0,0.0,0.0,0.0,0.0,0.0,0.0,0.0,0.0,0.0,0.0,0.0,0.0,0.0,0.0,0.0,0.0,0.0,0.0,0.0,0.0,0.0,0.0,0.0,0.0,0.0,0.0,0.0,0.0,0.0,0.0,0.0,0.0,0.0,0.0,0.0,0.0,0.0,0.0,0.0,0.0,0.0,0.0,0.0,0.0,0.0,0.0,0.0,0.0,0.0,0.0,0.0,0.0,0.0,0.0,0.0,0.0,0.0,0.0,0.0,0.0,0.0,0.0,0.0,0.0,0.0,0.0,0.0,0.0,0.0,0.0,0.0,0.0,0.0,0.0,0.0,0.0,0.0,0.0,0.0,0.0,0.0,0.0,0.0,0.0,0.0,0.0,0.0,0.0,0.0,0.0,0.0,0.0,0.0,0.0,0.0,0.0,0.0,0.0,0.0,0.0,0.0,0.0,0.0,0.0,0.0,0.0,0.0,0.0,0.0,0.0,0.0,0.0,0.0,0.0,0.0,0.0,0.0,0.0,0.0,0.0,0.0,0.0,0.0,0.0,0.0,0.0,0.0,0.0,0.0,0.0,0.0,0.0,0.0,0.0,0.0,0.0,0.0,0.0,0.0,0.0,0.0,0.0,0.0,0.0,0.0,0.0,0.0,0.0,0.0,0.0,0.0,0.0,0.0,0.0,0.0,0.0,0.0,0.0,0.0,0.0,0.0,0.0,0.0,0.0,0.0,0.0,0.0,0.0,0.0,0.0,0.0,0.0,0.0,0.0,0.0,0.0,0.0,0.0,0.0,0.0,0.0,0.0,0.0,0.0,0.0,0.0,0.0,0.0,0.0,0.0,0.0,0.0,0.0,0.0,0.0,0.0,0.0,0.0,0.0,0.0,0.0,0.0,0.0,0.0,0.0,0.0,0.0,0.0,0.0,0.0,0.0,0.0,0.0,0.0,0.0,0.0,0.0,0.0,0.0,0.0,0.0,0.0,0.0,0.0,0.0,0.0,0.0,0.0,0.0,0.0,0.0,0.0,0.0,0.0,0.0,0.0,0.0,0.0,0.0,0.0,0.0,0.0,0.0,0.0,0.0,0.0,0.0,0.0,0.0,0.0,0.0,0.0,0.0,0.0,0.0,0.0,0.0,0.0,0.0,0.0,0.0,0.0,0.0,0.0,0.0,0.0,0.0,0.0,0.0,0.0,0.0,0.0,0.0,0.0,0.0,0.0,0.0,0.0,0.0,0.0,0.0,0.0,0.0,0.0,0.0,0.0,0.0,0.0,0.0,0.0,0.0,0.0,0.0,0.0,0.0,0.0,0.0,0.0,0.0,0.0,0.0,0.0,0.0,0.0,0.0,0.0,0.0,0.0,0.0,0.0,0.0,0.0,0.0,0.0,0.0,0.0,0.0,0.0,0.0,0.0,0.0,0.0,0.0,0.0,0.0,0.0,0.0,0.0,0.0,0.0,0.0,0.0,0.0,0.0,0.0,0.0,0.0,0.0,0.0,0.0,0.0,0.0,0.0,0.0,0.0,0.0,0.0,0.0,0.0,0.0,0.0,0.0,0.0,0.0,0.0,0.0,0.0,0.0,0.0,0.0,0.0,0.0,0.0,0.0,0.0,0.0,0.0,0.0,0.0,0.0,0.0,0.0,0.0,0.0,0.0,0.0,0.0,0.0,0.0,0.0,0.0,0.0,0.0,0.0,0.0,0.0,0.0,0.0,0.0,0.0,0.0,0.0,0.0,0.0,0.0,0.0,0.0,0.0,0.0,0.0,0.0,0.0,0.0,0.0,0.0,0.0,0.0,0.0,0.0,0.0,0.0,0.0,0.0,0.0,0.0,0.0,0.0,0.0,0.0,0.0,0.0,0.0,0.0,0.0,0.0,0.0,0.0,0.0,0.0,0.0,0.0,0.0,0.0,0.0,0.0,0.0,0.0,0.0,0.0,0.0,0.0,0.0,0.0,0.0,0.0,0.0,0.0,0.0,0.0,0.0,0.0,0.0,0.0,0.0,0.0,0.0,0.0,0.0,0.0,0.0,0.0,0.0,0.0,0.0,0.0,0.0,0.0,0.0,0.0,0.0,0.0,0.0,0.0,0.0,0.0,0.0,0.0,0.0,0.0,0.0,0.0,0.0,0.0,0.0,0.0,0.0,0.0,0.0,0.0,0.0,0.0,0.0,0.0,0.0,0.0,0.0,0.0,0.0,0.0,0.0,0.0,0.0,0.0,0.0,0.0,0.0,0.0,0.0,0.0,0.0,0.0,0.0,0.0,0.0,0.0,0.0,0.0,0.0,0.0,0.0,0.0,0.0,0.0,0.0,0.0,0.0,0.0,0.0,0.0,0.0,0.0,0.0,0.0,0.0,0.0,0.0,0.0,0.0,0.0,0.0,0.0,0.0,0.0,0.0,0.0,0.0,0.0,0.0,0.0,0.0,0.0,0.0,0.0,0.0,0.0,0.0,0.0,0.0,0.0,0.0,0.0,0.0,0.0,0.0,0.0,0.0,0.0,0.0,0.0,0.0,0.0,0.0,0.0,0.0,0.0,0.0,0.0,0.0,0.0,0.0,0.0,0.0,0.0,0.0,0.0,0.0,0.0,0.0,0.0,0.0,0.0,0.0,0.0,0.0,0.0,0.0,0.0,0.0,0.0,0.0,0.0,0.0,0.0,0.0,0.0,0.0,0.0,0.0,0.0,0.0,0.0,0.0,0.0,0.0,0.0,0.0,0.0,0.0,0.0,0.0,0.0,0.0,0.0,0.0,0.0,0.0,0.0,0.0,0.0,0.0,0.0,0.0,0.0,0.0,0.0,0.0,0.0,0.0,0.0,0.0,0.0,0.0,0.0,0.0,0.0,0.0,0.0,0.0,0.0,0.0,0.0,0.0,0.0,0.0,0.0,0.0,0.0,0.0,0.0,0.0,0.0,0.0,0.0,0.0,0.0,0.0,0.0,0.0,0.0,0.0,0.0,0.0,0.0,0.0,0.0,0.0,0.0,0.0,0.0,0.0,0.0,0.0,0.0,0.0,0.0,0.0,0.0,0.0,0.0,0.0,0.0,0.0,0.0,0.0,0.0,0.0,0.0,0.0,0.0,0.0,0.0,0.0,0.0,0.0,0.0,0.0,0.0,0.0,0.0,0.0,0.0,0.0,0.0,0.0,0.0,0.0,0.0,0.0,0.0,0.0,0.0,0.0,0.0,0.0,0.0,0.0,0.0,0.0,0.0,0.0,0.0,0.0,0.0,0.0,0.0,0.0,0.0,0.0,0.0,0.0,0.0,0.0,0.0,0.0,0.0,0.0,0.0,0.0,0.0,0.0,0.0,0.0,0.0,0.0,0.0,0.0,0.0,0.0,0.0,0.0,0.0,2.1934,0.0,0.0,0.0,0.0,0.0,0.0,0.0,0.0,0.0,0.0,0.0,0.0,0.0,0.0,0.0,0.0,0.0,0.0,0.0,0.0,0.0,0.0,0.0,0.0,0.0,0.0,0.0,0.0,0.0,0.0,0.0,0.0,0.0,0.0,0.0,0.0,0.0,0.0,0.0,0.0,0.0,0.0,0.0,0.0,0.0,0.0,0.0,0.0,0.0,0.0,0.0,0.0,0.0,0.0,0.0,0.0,0.0,0.0,0.0,0.0,0.0,0.0,0.0,0.0,0.0,0.0,0.0,0.0,0.0,0.0,0.0,0.0,0.0,0.0,0.0,0.0,0.0,0.0,0.0,0.0,0.0,0.0,0.0,0.0,0.0,0.0,0.0,0.0,0.0,0.0,0.0,0.0,0.0,0.0,0.0,0.0,0.0,0.0,0.0,0.0,0.0,0.0,0.0,0.0,0.0,0.0,0.0,0.0,0.0,0.0,2.4526,2.4492,2.4102,2.3457,2.2594,0.0,0.0,0.0,0.0,0.0,0.0,0.0,0.0,0.0,0.0,0.0,0.0,0.0,0.0,0.0,0.0,0.0,0.0,0.0,0.0,0.0,0.0,0.0,0.0,0.0,0.0,0.0,0.0,0.0,0.0,0.0,0.0,0.0,0.0,0.0,0.0,0.0,0.0,0.0,0.0,0.0,0.0,0.0,0.0,0.0,0.0,0.0,0.0,0.0,0.0,0.0,0.0,0.0,0.0,0.0,0.0,0.0,0.0,0.0,0.0,0.0,0.0,0.0,0.0,0.0,0.0,0.0,0.0,0.0,0.0,0.0,0.0,0.0,0.0,0.0,0.0,0.0,0.0,0.0,0.0,0.0,0.0,0.0,0.0,0.0,0.0,0.0,0.0,0.0,0.0,0.0,0.0,0.0,0.0,0.0,0.0,0.0,0.0,0.0,0.0,0.0,0.0,0.0,0.0,0.0,0.0,0.0,0.0,0.0,0.0,0.0,0.0,2.5058,2.4178,2.3117,0.0,0.0,0.0,0.0,0.0,0.0,0.0,0.0,0.0,0.0,0.0,0.0,0.0,0.0,0.0,0.0,0.0,0.0,0.0,0.0,0.0,0.0,0.0,0.0,0.0,0.0,0.0,0.0,0.0,0.0,0.0,0.0,0.0,0.0,0.0,0.0,0.0,0.0,0.0,0.0,0.0,0.0,0.0,0.0,0.0,0.0,0.0,0.0,0.0,0.0,0.0,0.0,0.0,0.0,0.0,0.0,0.0,0.0,0.0,0.0,0.0,0.0,0.0,0.0,0.0,0.0,0.0,0.0,0.0,0.0,0.0,0.0,0.0,0.0,0.0,0.0,0.0,0.0,0.0,0.0,0.0,0.0,0.0,0.0,0.0,0.0,0.0,0.0,0.0,0.0,0.0,0.0,0.0,0.0,0.0,0.0,0.0,0.0,0.0,0.0,0.0,0.0,0.0,0.0,0.0,0.0,0.0,0.0,0.0,0.0,2.5687,2.5689,2.5613,0.0,2.3199,0.0,0.0,0.0,0.0,0.0,0.0,0.0,0.0,0.0,0.0,0.0,0.0,0.0,0.0,0.0,0.0,0.0,0.0,0.0,0.0,0.0,0.0,0.0,0.0,0.0,0.0,0.0,0.0,0.0,0.0,0.0,0.0,0.0,0.0,0.0,0.0,0.0,0.0,0.0,0.0,0.0,0.0,0.0,0.0,0.0,0.0,0.0,0.0,0.0,0.0,0.0,0.0,0.0,0.0,0.0,0.0,0.0,0.0,0.0,0.0,0.0,0.0,0.0,0.0,0.0,0.0,0.0,0.0,0.0,0.0,0.0,0.0,0.0,0.0,0.0,0.0,0.0,0.0,0.0,0.0,0.0,0.0,0.0,0.0,0.0,0.0,0.0,0.0,0.0,0.0,0.0,0.0,0.0,0.0,0.0,0.0,0.0,0.0,0.0,0.0,0.0,0.0,0.0,0.0,0.0,0.0,0.0,0.0,0.0,0.0,2.5691,2.5696,2.5203,2.4362,0.0,0.0,0.0,0.0,0.0,0.0,0.0,0.0,0.0,0.0,0.0,0.0,0.0,0.0,0.0,0.0,0.0,0.0,0.0,0.0,0.0,0.0,0.0,0.0,0.0,0.0,0.0,0.0,0.0,0.0,0.0,0.0,0.0,0.0,0.0,0.0,0.0,0.0,0.0,0.0,0.0,0.0,0.0,0.0,0.0,0.0,0.0,0.0,0.0,0.0,0.0,0.0,0.0,0.0,0.0,0.0,0.0,0.0,0.0,0.0,0.0,0.0,0.0,0.0,0.0,0.0,0.0,0.0,0.0,0.0,0.0,0.0,0.0,0.0,0.0,0.0,0.0,0.0,0.0,0.0,0.0,0.0,0.0,0.0,0.0,0.0,0.0,0.0,0.0,0.0,0.0,0.0,0.0,0.0,0.0,0.0,0.0,0.0,0.0,0.0,0.0,0.0,0.0,0.0,0.0,0.0,0.0,0.0,0.0,0.0,2.5937,2.6058,2.6026,2.5219,2.4241,2.315,0.0,0.0,0.0,0.0,0.0,0.0,0.0,0.0,0.0,0.0,0.0,0.0,0.0,0.0,0.0,0.0,0.0,0.0,0.0,0.0,0.0,0.0,0.0,0.0,0.0,0.0,0.0,0.0,0.0,0.0,0.0,0.0,0.0,0.0,0.0,0.0,0.0,0.0,0.0,0.0,0.0,0.0,0.0,0.0,0.0,0.0,0.0,0.0,0.0,0.0,0.0,0.0,0.0,0.0,0.0,0.0,0.0,0.0,0.0,0.0,0.0,0.0,0.0,0.0,0.0,0.0,0.0,0.0,0.0,0.0,0.0,0.0,0.0,0.0,0.0,0.0,0.0,0.0,0.0,0.0,0.0,0.0,0.0,0.0,0.0,0.0,0.0,0.0,0.0,0.0,0.0,0.0,0.0,0.0,0.0,0.0,0.0,0.0,0.0,0.0,0.0,0.0,0.0,0.0,0.0,0.0,0.0,0.0,2.5648,2.6493,2.6936,2.6886,2.6088,2.4844,0.0,0.0,0.0,0.0,0.0,0.0,0.0,0.0,0.0,0.0,0.0,0.0,0.0,0.0,0.0,0.0,0.0,0.0,0.0,0.0,0.0,0.0,0.0,0.0,0.0,0.0,0.0,0.0,0.0,0.0,0.0,0.0,0.0,0.0,0.0,0.0,0.0,0.0,0.0,0.0,0.0,0.0,0.0,0.0,0.0,0.0,0.0,0.0,0.0,0.0,0.0,0.0,0.0,0.0,0.0,0.0,0.0,0.0,0.0,0.0,0.0,0.0,0.0,0.0,0.0,0.0,0.0,0.0,0.0,0.0,0.0,0.0,0.0,0.0,0.0,0.0,0.0,0.0,0.0,0.0,0.0,0.0,0.0,0.0,0.0,0.0,0.0,0.0,0.0,0.0,0.0,0.0,0.0,0.0,0.0,0.0,0.0,0.0,0.0,0.0,0.0,0.0,0.0,0.0,0.0,0.0,0.0,0.0,0.0,2.5618,2.6503,2.6695,2.6197,2.6347,2.5414,0.0,0.0,0.0,0.0,0.0,0.0,0.0,0.0,0.0,0.0,0.0,0.0,0.0,0.0,0.0,0.0,0.0,0.0,0.0,0.0,0.0,0.0,0.0,0.0,0.0,0.0,0.0,0.0,0.0,0.0,0.0,0.0,0.0,0.0,0.0,0.0,0.0,0.0,0.0,0.0,0.0,0.0,0.0,0.0,0.0,0.0,0.0,0.0,0.0,0.0,0.0,0.0,0.0,0.0,0.0,0.0,0.0,0.0,0.0,0.0,0.0,0.0,0.0,0.0,0.0,0.0,0.0,0.0,0.0,0.0,0.0,0.0,0.0,0.0,0.0,0.0,0.0,0.0,0.0,0.0,0.0,0.0,0.0,0.0,0.0,0.0,0.0,0.0,0.0,0.0,0.0,0.0,0.0,0.0,0.0,0.0,0.0,0.0,0.0,0.0,0.0,0.0,0.0,0.0,0.0,0.0,0.0,0.0,0.0,2.6425,0.0,2.6899,2.6942,2.6899,2.5967,0.0,0.0,0.0,0.0,0.0,0.0,0.0,0.0,0.0,0.0,0.0,0.0,0.0,0.0,0.0,0.0,0.0,0.0,0.0,0.0,0.0,0.0,0.0,0.0,0.0,0.0,0.0,0.0,0.0,0.0,0.0,0.0,0.0,0.0,0.0,0.0,0.0,0.0,0.0,0.0,0.0,0.0,0.0,0.0,0.0,0.0,0.0,0.0,0.0,0.0,0.0,0.0,0.0,0.0,0.0,0.0,0.0,0.0,0.0,0.0,0.0,0.0,0.0,0.0,0.0,0.0,0.0,0.0,0.0,0.0,0.0,0.0,0.0,0.0,0.0,0.0,0.0,0.0,0.0,0.0,0.0,0.0,0.0,0.0,0.0,0.0,0.0,0.0,0.0,0.0,0.0,0.0,0.0,0.0,0.0,0.0,0.0,0.0,0.0,0.0,0.0,0.0,0.0,0.0,0.0,0.0,0.0,0.0,2.5629,2.801,2.734,2.7697,2.9357,2.7775,2.6525,0.0,0.0,0.0,0.0,0.0,0.0,0.0,0.0,0.0,0.0,0.0,0.0,0.0,0.0,0.0,0.0,0.0,0.0,0.0,0.0,0.0,0.0,0.0,0.0,0.0,0.0,0.0,0.0,0.0,0.0,0.0,0.0,0.0,0.0,0.0,0.0,0.0,0.0,0.0,0.0,0.0,0.0,0.0,0.0,0.0,0.0,0.0,0.0,0.0,0.0,0.0,0.0,0.0,0.0,0.0,0.0,0.0,0.0,0.0,0.0,0.0,0.0,0.0,0.0,0.0,0.0,0.0,0.0,0.0,0.0,0.0,0.0,0.0,0.0,0.0,0.0,0.0,0.0,0.0,0.0,0.0,0.0,0.0,0.0,0.0,0.0,0.0,0.0,0.0,0.0,0.0,0.0,0.0,0.0,0.0,0.0,0.0,0.0,0.0,0.0,0.0,0.0,0.0,0.0,0.0,0.0,0.0,0.0,0.0,2.7264,2.7585,2.7976,2.8487,2.8026,2.705,0.0,0.0,0.0,0.0,0.0,0.0,0.0,0.0,0.0,0.0,0.0,0.0,0.0,0.0,0.0,0.0,0.0,0.0,0.0,0.0,0.0,0.0,0.0,0.0,0.0,0.0,0.0,0.0,0.0,0.0,0.0,0.0,0.0,0.0,0.0,0.0,0.0,0.0,0.0,0.0,0.0,0.0,0.0,0.0,0.0,0.0,0.0,0.0,0.0,0.0,0.0,0.0,0.0,0.0,0.0,0.0,0.0,0.0,0.0,0.0,0.0,0.0,0.0,0.0,0.0,0.0,0.0,0.0,0.0,0.0,0.0,0.0,0.0,0.0,0.0,0.0,0.0,0.0,0.0,0.0,0.0,0.0,0.0,0.0,0.0,0.0,0.0,0.0,0.0,0.0,0.0,0.0,0.0,0.0,0.0,0.0,0.0,0.0,0.0,0.0,0.0,0.0,0.0,0.0,0.0,0.0,0.0,0.0,0.0,2.8242,2.8456,2.8722,2.9006,2.8437,2.7607,2.6573,0.0,0.0,0.0,0.0,0.0,0.0,0.0,0.0,0.0,0.0,0.0,0.0,0.0,0.0,0.0,0.0,0.0,0.0,0.0,0.0,0.0,0.0,0.0,0.0,0.0,0.0,0.0,0.0,0.0,0.0,0.0,0.0,0.0,0.0,0.0,0.0,0.0,0.0,0.0,0.0,0.0,0.0,0.0,0.0,0.0,0.0,0.0,0.0,0.0,0.0,0.0,0.0,0.0,0.0,0.0,0.0,0.0,0.0,0.0,0.0,0.0,0.0,0.0,0.0,0.0,0.0,0.0,0.0,0.0,0.0,0.0,0.0,0.0,0.0,0.0,0.0,0.0,0.0,0.0,0.0,0.0,0.0,0.0,0.0,0.0,0.0,0.0,0.0,0.0,0.0,0.0,0.0,0.0,0.0,0.0,0.0,0.0,0.0,0.0,0.0,0.0,0.0,0.0,0.0,0.0,0.0,0.0,0.0,3.0574,2.9943,2.9943,3.0602,2.9108,2.821,0.0,0.0,0.0,0.0,0.0,0.0,0.0,0.0,0.0,0.0,0.0,0.0,0.0,0.0,0.0,0.0,0.0,0.0,0.0,0.0,0.0,0.0,0.0,0.0,0.0,0.0,0.0,0.0,0.0,0.0,0.0,0.0,0.0,0.0,0.0,0.0,0.0,0.0,0.0,0.0,0.0,0.0,0.0,0.0,0.0,0.0,0.0,0.0,0.0,0.0,0.0,0.0,0.0,0.0,0.0,0.0,0.0,0.0,0.0,0.0,0.0,0.0,0.0,0.0,0.0,0.0,0.0,0.0,0.0,0.0,0.0,0.0,0.0,0.0,0.0,0.0,0.0,0.0,0.0,0.0,0.0,0.0,0.0,0.0,0.0,0.0,0.0,0.0,0.0,0.0,0.0,0.0,0.0,0.0,0.0,0.0,0.0,0.0,0.0,0.0,0.0,0.0,0.0,0.0,0.0,0.0,0.0,0.0,0.0,3.0582,3.1602,3.1922,3.1487,3.0477,2.9361,0.0,0.0,0.0,0.0,0.0,0.0,0.0,0.0,0.0,0.0,0.0,0.0,0.0,0.0,0.0,0.0,0.0,0.0,0.0,0.0,0.0,0.0,0.0,0.0,0.0,0.0,0.0,0.0,0.0,0.0,0.0,0.0,0.0,0.0,0.0,0.0,0.0,0.0,0.0,0.0,0.0,0.0,0.0,0.0,0.0,0.0,0.0,0.0,0.0,0.0,0.0,0.0,0.0,0.0,0.0,0.0,0.0,0.0,0.0,0.0,0.0,0.0,0.0,0.0,0.0,0.0,0.0,0.0,0.0,0.0,0.0,0.0,0.0,0.0,0.0,0.0,0.0,0.0,0.0,0.0,0.0,0.0,0.0,0.0,0.0,0.0,0.0,0.0,0.0,0.0,0.0,0.0,0.0,0.0,0.0,0.0,0.0,0.0,0.0,0.0,0.0,0.0,0.0,0.0,0.0,0.0,0.0,0.0,3.0622,3.2116,3.3089,3.3523,3.3399,3.1574,2.999,0.0,0.0,0.0,0.0,0.0,0.0,0.0,0.0,0.0,0.0,0.0,0.0,0.0,0.0,0.0,0.0,0.0,0.0,0.0,0.0,0.0,0.0,0.0,0.0,0.0,0.0,0.0,0.0,0.0,0.0,0.0,0.0,0.0,0.0,0.0,0.0,0.0,0.0,0.0,0.0,0.0,0.0,0.0,0.0,0.0,0.0,0.0,0.0,0.0,0.0,0.0,0.0,0.0,0.0,0.0,0.0,0.0,0.0,0.0,0.0,0.0,0.0,0.0,0.0,0.0,0.0,0.0,0.0,0.0,0.0,0.0,0.0,0.0,0.0,0.0,0.0,0.0,0.0,0.0,0.0,0.0,0.0,0.0,0.0,0.0,0.0,0.0,0.0,0.0,0.0,0.0,0.0,0.0,0.0,0.0,0.0,0.0,0.0,0.0,0.0,0.0,0.0,0.0,0.0,0.0,0.0,0.0,0.0,3.193,3.4372,3.4371,3.477,3.5598,3.257,3.0399,0.0,0.0,0.0,0.0,0.0,0.0,0.0,0.0,0.0,0.0,0.0,0.0,0.0,0.0,0.0,0.0,0.0,0.0,0.0,0.0,0.0,0.0,0.0,0.0,0.0,0.0,0.0,0.0,0.0,0.0,0.0,0.0,0.0,0.0,0.0,0.0,0.0,0.0,0.0,0.0,0.0,0.0,0.0,0.0,0.0,0.0,0.0,0.0,0.0,0.0,0.0,0.0,0.0,0.0,0.0,0.0,0.0,0.0,0.0,0.0,0.0,0.0,0.0,0.0,0.0,0.0,0.0,0.0,0.0,0.0,0.0,0.0,0.0,0.0,0.0,0.0,0.0,0.0,0.0,0.0,0.0,0.0,0.0,0.0,0.0,0.0,0.0,0.0,0.0,0.0,0.0,0.0,0.0,0.0,0.0,0.0,0.0,0.0,0.0,0.0,0.0,0.0,0.0,0.0,0.0,0.0,0.0,0.0,3.2832,3.5241,3.5251,3.5637,3.6504,3.3917,3.1516,0.0,0.0,0.0,0.0,0.0,0.0,0.0,0.0,0.0,0.0,0.0,0.0,0.0,0.0,0.0,0.0,0.0,0.0,0.0,0.0,0.0,0.0,0.0,0.0,0.0,0.0,0.0,0.0,0.0,0.0,0.0,0.0,0.0,0.0,0.0,0.0,0.0,0.0,0.0,0.0,0.0,0.0,0.0,0.0,0.0,0.0,0.0,0.0,2.4124,0.0,0.0,0.0,0.0,0.0,0.0,0.0,0.0,0.0,0.0,0.0,0.0,0.0,0.0,0.0,0.0,0.0,0.0,0.0,0.0,0.0,0.0,0.0,0.0,0.0,0.0,0.0,0.0,0.0,0.0,0.0,0.0,0.0,0.0,0.0,0.0,0.0,0.0,0.0,0.0,0.0,0.0,0.0,0.0,0.0,0.0,0.0,0.0,0.0,0.0,0.0,0.0,0.0,0.0,0.0,0.0,0.0,0.0,0.0,3.4058,3.6074,3.61,3.6491,3.7217,3.4518,3.2067,0.0,0.0,0.0,0.0,0.0,0.0,0.0,0.0,0.0,0.0,0.0,0.0,0.0,0.0,0.0,0.0,0.0,0.0,0.0,0.0,0.0,0.0,0.0,0.0,0.0,0.0,0.0,0.0,0.0,0.0,0.0,0.0,0.0,0.0,0.0,0.0,0.0,0.0,0.0,0.0,0.0,0.0,0.0,0.0,0.0,0.0,0.0,0.0,0.0,0.0,0.0,0.0,0.0,0.0,0.0,0.0,0.0,0.0,0.0,0.0,0.0,0.0,0.0,0.0,0.0,0.0,0.0,0.0,0.0,0.0,0.0,0.0,0.0,0.0,0.0,0.0,0.0,0.0,0.0,0.0,0.0,0.0,0.0,0.0,0.0,0.0,0.0,0.0,0.0,0.0,0.0,0.0,0.0,0.0,0.0,0.0,0.0,0.0,0.0,0.0,0.0,0.0,0.0,0.0,0.0,0.0,0.0,3.2735,3.5172,3.6889,3.681,3.7098,3.7916,3.4764,3.2229,3.0634,0.0,0.0,0.0,0.0,0.0,0.0,0.0,0.0,0.0,0.0,0.0,0.0,0.0,0.0,0.0,0.0,0.0,0.0,0.0,0.0,0.0,0.0,0.0,0.0,0.0,0.0,0.0,0.0,0.0,0.0,0.0,0.0,0.0,0.0,0.0,0.0,0.0,0.0,2.0946,2.2326,0.0,0.0,0.0,0.0,0.0,0.0,0.0,0.0,2.5705,0.0,0.0,0.0,0.0,0.0,0.0,0.0,0.0,0.0,0.0,0.0,0.0,0.0,0.0,0.0,0.0,0.0,0.0,0.0,0.0,0.0,0.0,0.0,0.0,0.0,0.0,0.0,0.0,0.0,0.0,0.0,0.0,0.0,0.0,0.0,0.0,0.0,0.0,0.0,0.0,0.0,0.0,0.0,0.0,0.0,0.0,0.0,0.0,0.0,0.0,0.0,0.0,0.0,0.0,0.0,0.0,3.137,3.3304,3.5449,3.7718,3.7079,3.7103,3.7868,3.4758,3.2204,3.0559,0.0,0.0,0.0,0.0,0.0,0.0,0.0,0.0,0.0,0.0,0.0,0.0,0.0,0.0,0.0,0.0,0.0,0.0,0.0,0.0,0.0,0.0,0.0,0.0,0.0,0.0,0.0,0.0,0.0,0.0,0.0,0.0,0.0,0.0,0.0,0.0,0.0,0.0,0.0,2.3561,2.4495,0.0,0.0,0.0,0.0,0.0,0.0,0.0,0.0,2.5644,0.0,0.0,0.0,0.0,0.0,0.0,0.0,0.0,0.0,0.0,0.0,0.0,0.0,0.0,0.0,0.0,0.0,0.0,0.0,0.0,0.0,0.0,0.0,0.0,0.0,0.0,0.0,0.0,0.0,0.0,0.0,0.0,0.0,0.0,0.0,0.0,0.0,0.0,0.0,0.0,0.0,0.0,0.0,0.0,0.0,0.0,0.0,0.0,0.0,0.0,0.0,0.0,0.0,0.0,0.0,3.1709,3.3404,3.5245,3.7228,3.6911,3.6699,3.6661,3.4295,3.2019,0.0,0.0,0.0,0.0,0.0,0.0,0.0,0.0,0.0,0.0,0.0,0.0,0.0,0.0,0.0,0.0,0.0,0.0,0.0,0.0,0.0,0.0,0.0,0.0,0.0,0.0,0.0,0.0,0.0,0.0,0.0,0.0,0.0,0.0,0.0,0.0,0.0,0.0,0.0,0.0,2.4141,2.4701,2.5582,0.0,0.0,0.0,0.0,0.0,0.0,2.5693,2.5696,0.0,0.0,0.0,0.0,0.0,0.0,0.0,0.0,0.0,0.0,0.0,0.0,0.0,0.0,0.0,0.0,0.0,0.0,0.0,0.0,0.0,0.0,0.0,0.0,0.0,0.0,0.0,0.0,0.0,0.0,0.0,0.0,0.0,0.0,0.0,0.0,0.0,0.0,0.0,0.0,0.0,0.0,0.0,0.0,0.0,0.0,0.0,0.0,0.0,0.0,0.0,0.0,0.0,0.0,0.0,3.1904,3.3615,3.5187,3.6642,3.6719,3.6301,3.5474,3.3866,3.1785,0.0,0.0,0.0,0.0,0.0,0.0,0.0,0.0,0.0,0.0,0.0,0.0,0.0,0.0,0.0,0.0,0.0,0.0,0.0,0.0,0.0,0.0,0.0,0.0,0.0,0.0,0.0,0.0,0.0,0.0,0.0,0.0,0.0,0.0,0.0,0.0,0.0,0.0,0.0,0.0,0.0,2.5173,2.5855,2.61,0.0,0.0,0.0,0.0,2.6188,2.6208,0.0,0.0,0.0,0.0,0.0,0.0,0.0,0.0,0.0,0.0,0.0,0.0,0.0,0.0,0.0,0.0,0.0,0.0,0.0,0.0,0.0,0.0,0.0,0.0,0.0,0.0,0.0,0.0,0.0,0.0,0.0,0.0,0.0,0.0,0.0,0.0,0.0,0.0,0.0,0.0,0.0,0.0,0.0,0.0,0.0,0.0,0.0,0.0,0.0,0.0,0.0,0.0,0.0,0.0,0.0,0.0,3.2817,3.4501,3.5784,3.6661,3.6719,3.6281,3.5427,3.3794,3.1712,0.0,0.0,0.0,0.0,0.0,0.0,0.0,0.0,0.0,0.0,0.0,0.0,0.0,0.0,0.0,0.0,0.0,0.0,0.0,0.0,0.0,0.0,0.0,0.0,0.0,0.0,0.0,0.0,0.0,0.0,0.0,0.0,0.0,0.0,0.0,0.0,0.0,0.0,0.0,0.0,0.0,2.6734,2.6837,2.7464,2.7909,0.0,0.0,2.792,2.7907,2.7921,0.0,0.0,0.0,0.0,0.0,0.0,0.0,0.0,0.0,0.0,0.0,0.0,0.0,0.0,0.0,0.0,0.0,0.0,0.0,0.0,0.0,0.0,0.0,0.0,0.0,0.0,0.0,0.0,0.0,0.0,0.0,0.0,0.0,0.0,0.0,0.0,0.0,0.0,0.0,0.0,0.0,0.0,0.0,0.0,0.0,0.0,0.0,0.0,0.0,0.0,0.0,0.0,0.0,0.0,0.0,3.0386,3.2877,3.4148,3.5174,3.5988,3.6026,3.5364,3.4024,3.3281,3.1476,0.0,0.0,0.0,0.0,0.0,0.0,0.0,0.0,0.0,0.0,0.0,0.0,0.0,0.0,0.0,0.0,0.0,0.0,0.0,0.0,0.0,0.0,0.0,0.0,0.0,0.0,0.0,0.0,0.0,0.0,0.0,0.0,0.0,0.0,0.0,0.0,0.0,0.0,0.0,0.0,0.0,0.0,2.7608,2.7974,0.0,0.0,0.0,2.8135,2.8143,0.0,0.0,0.0,0.0,0.0,0.0,0.0,0.0,0.0,0.0,0.0,0.0,0.0,0.0,0.0,0.0,0.0,0.0,0.0,0.0,0.0,0.0,0.0,0.0,0.0,0.0,0.0,0.0,0.0,0.0,0.0,0.0,0.0,0.0,0.0,0.0,0.0,0.0,0.0,0.0,0.0,0.0,0.0,0.0,0.0,0.0,0.0,0.0,0.0,0.0,0.0,0.0,0.0,0.0,0.0,0.0,0.0,3.2872,3.3968,3.4853,3.5468,3.5493,3.4653,3.2941,3.287,0.0,0.0,0.0,0.0,0.0,0.0,0.0,0.0,0.0,0.0,0.0,0.0,0.0,0.0,0.0,0.0,0.0,0.0,0.0,0.0,0.0,0.0,0.0,0.0,0.0,0.0,0.0,2.2856,0.0,0.0,0.0,0.0,0.0,0.0,0.0,0.0,0.0,0.0,0.0,0.0,0.0,0.0,2.7839,2.8437,2.8695,2.8835,0.0,0.0,2.8754,2.8728,2.8734,2.8463,0.0,0.0,0.0,0.0,0.0,0.0,0.0,0.0,0.0,0.0,0.0,0.0,0.0,0.0,0.0,0.0,0.0,0.0,0.0,0.0,0.0,0.0,0.0,0.0,0.0,0.0,0.0,0.0,0.0,0.0,0.0,0.0,0.0,0.0,0.0,0.0,0.0,0.0,0.0,0.0,0.0,0.0,0.0,0.0,0.0,0.0,0.0,0.0,0.0,0.0,0.0,0.0,0.0,0.0,3.1987,3.291,3.4564,3.543,3.5493,3.5427,3.4573,3.2875,3.2809,3.1211,0.0,0.0,0.0,0.0,0.0,0.0,0.0,0.0,0.0,0.0,0.0,0.0,0.0,0.0,0.0,0.0,0.0,0.0,0.0,0.0,0.0,0.0,0.0,0.0,0.0,0.0,0.0,0.0,0.0,0.0,0.0,0.0,0.0,0.0,0.0,0.0,0.0,0.0,0.0,0.0,0.0,2.9362,2.9411,3.0061,3.0522,0.0,3.0537,3.0517,3.0416,3.0416,3.0161,2.9343,0.0,0.0,0.0,0.0,0.0,0.0,0.0,0.0,0.0,0.0,0.0,0.0,0.0,0.0,0.0,0.0,0.0,0.0,0.0,0.0,0.0,0.0,0.0,0.0,0.0,0.0,0.0,0.0,0.0,0.0,0.0,0.0,0.0,0.0,0.0,0.0,0.0,0.0,0.0,0.0,0.0,0.0,0.0,0.0,0.0,0.0,0.0,0.0,0.0,0.0,0.0,0.0,0.0,3.2102,3.291,3.4622,3.5493,3.5446,3.5412,3.4558,3.2847,3.2814,3.1459,0.0,0.0,0.0,0.0,0.0,0.0,0.0,0.0,0.0,0.0,0.0,0.0,0.0,0.0,0.0,0.0,0.0,0.0,0.0,0.0,0.0,0.0,0.0,0.0,0.0,0.0,0.0,0.0,2.5383,2.5601,2.5607,0.0,0.0,0.0,0.0,0.0,0.0,0.0,0.0,0.0,0.0,3.0611,3.1637,3.1585,0.0,0.0,3.097,3.0629,3.0613,3.0613,3.033,2.952,2.9123,0.0,0.0,0.0,0.0,0.0,0.0,0.0,0.0,0.0,0.0,0.0,0.0,0.0,0.0,0.0,0.0,0.0,0.0,0.0,0.0,0.0,0.0,0.0,0.0,0.0,0.0,0.0,0.0,0.0,0.0,0.0,0.0,0.0,0.0,0.0,0.0,0.0,0.0,0.0,0.0,0.0,0.0,0.0,0.0,0.0,0.0,0.0,0.0,0.0,0.0,0.0,0.0,3.2468,3.3276,3.4757,3.546,3.5412,3.5379,3.4544,3.2876,3.2785,3.1585,0.0,0.0,0.0,0.0,0.0,0.0,0.0,0.0,0.0,0.0,0.0,0.0,0.0,0.0,0.0,0.0,0.0,0.0,0.0,0.0,0.0,0.0,0.0,0.0,0.0,0.0,0.0,0.0,2.5544,2.557,2.557,0.0,0.0,0.0,0.0,0.0,0.0,0.0,0.0,0.0,0.0,3.1875,3.3017,3.2671,3.2258,3.2261,3.1516,3.0944,3.0954,3.075,3.041,2.9854,0.0,0.0,0.0,0.0,0.0,0.0,0.0,0.0,0.0,0.0,0.0,0.0,0.0,0.0,0.0,0.0,0.0,0.0,0.0,0.0,0.0,0.0,0.0,0.0,0.0,0.0,0.0,2.5397,0.0,0.0,2.6631,0.0,0.0,0.0,0.0,0.0,0.0,0.0,0.0,0.0,0.0,0.0,0.0,0.0,0.0,0.0,0.0,0.0,0.0,0.0,0.0,0.0,0.0,3.3295,3.4173,3.5064,3.546,3.5432,3.535,3.4496,3.2876,3.2741,3.1488,2.8987,0.0,0.0,0.0,0.0,0.0,0.0,0.0,0.0,0.0,0.0,0.0,0.0,0.0,0.0,0.0,0.0,0.0,0.0,0.0,0.0,0.0,0.0,0.0,0.0,0.0,0.0,2.5483,2.5511,2.5544,0.0,0.0,0.0,0.0,0.0,0.0,0.0,0.0,0.0,3.0637,3.2062,3.3151,3.3235,3.3149,3.3073,3.3093,3.2338,3.1777,3.1797,3.1139,3.0604,0.0,0.0,0.0,0.0,0.0,0.0,0.0,0.0,0.0,0.0,0.0,0.0,0.0,0.0,0.0,0.0,0.0,0.0,0.0,0.0,0.0,0.0,0.0,0.0,0.0,0.0,0.0,2.8595,2.7846,0.0,0.0,0.0,0.0,0.0,0.0,0.0,0.0,0.0,0.0,0.0,3.0213,3.1073,0.0,0.0,0.0,0.0,0.0,0.0,0.0,0.0,0.0,0.0,0.0,0.0,3.418,3.5026,3.5306,3.5681,3.6155,3.5611,3.4489,3.2798,3.2707,3.1508,2.8987,0.0,0.0,0.0,0.0,0.0,0.0,0.0,0.0,0.0,0.0,0.0,0.0,0.0,0.0,0.0,0.0,0.0,0.0,0.0,0.0,0.0,0.0,0.0,0.0,0.0,2.5511,0.0,0.0,0.0,0.0,0.0,0.0,0.0,0.0,0.0,0.0,2.9761,3.1049,3.2105,3.3267,3.4193,3.4706,3.4284,3.3903,0.0,0.0,0.0,0.0,0.0,0.0,0.0,0.0,0.0,0.0,0.0,0.0,0.0,0.0,3.0362,2.8188,2.7735,2.7699,2.7675,0.0,0.0,0.0,0.0,0.0,0.0,0.0,0.0,0.0,0.0,0.0,0.0,0.0,0.0,3.0814,0.0,3.0297,0.0,0.0,0.0,0.0,0.0,0.0,0.0,0.0,3.0777,3.1268,3.1809,3.2346,3.261,0.0,3.2638,3.2106,0.0,0.0,0.0,0.0,0.0,0.0,0.0,0.0,3.5084,3.5878,3.6157,3.6381,3.6562,3.6017,3.4913,3.3223,3.2592,3.1369,2.9421,2.941,2.9155,0.0,0.0,0.0,0.0,0.0,0.0,0.0,0.0,0.0,0.0,0.0,0.0,0.0,0.0,0.0,0.0,0.0,0.0,0.0,0.0,0.0,0.0,0.0,2.6378,0.0,0.0,0.0,0.0,0.0,0.0,0.0,0.0,0.0,2.9801,3.077,3.1979,3.3355,3.4243,3.4974,3.552,0.0,0.0,0.0,0.0,0.0,0.0,0.0,3.23,3.23,3.1854,3.1639,3.2171,3.2578,3.282,3.2752,0.0,0.0,2.9742,2.9341,2.9332,2.9269,2.9273,2.925,2.9249,2.9193,2.8985,0.0,0.0,0.0,0.0,0.0,0.0,0.0,0.0,3.2848,3.2829,0.0,3.281,0.0,0.0,0.0,0.0,3.279,3.2728,0.0,0.0,3.2657,3.2626,3.2631,3.2616,3.2597,3.2631,3.2721,3.2768,3.2882,3.3001,0.0,0.0,0.0,0.0,0.0,0.0,3.5935,3.6781,3.7487,3.7494,3.6734,3.6569,3.5698,3.4006,3.2401,3.1178,3.0338,3.03,3.0294,3.0265,2.957,0.0,0.0,0.0,0.0,0.0,0.0,0.0,0.0,0.0,0.0,0.0,0.0,0.0,0.0,0.0,0.0,0.0,0.0,0.0,0.0,2.7508,0.0,0.0,0.0,0.0,0.0,0.0,0.0,0.0,0.0,3.1455,3.0762,3.2086,3.3421,3.4167,0.0,0.0,0.0,0.0,3.5605,3.5669,3.4974,3.4426,3.4461,3.3729,3.3179,3.3179,0.0,0.0,3.296,3.2843,3.2803,3.2708,3.2637,3.2485,3.2534,3.2291,3.2238,3.2238,3.2144,3.2312,3.2264,3.1946,3.1559,3.589,0.0,0.0,0.0,0.0,3.504,3.54,3.5891,3.5551,3.5287,3.5078,3.5363,0.0,0.0,0.0,0.0,0.0,0.0,3.4244,3.4226,3.4736,3.496,3.4936,3.544,3.5725,3.5849,3.5849,3.5968,3.6102,3.6175,3.5037,3.287,0.0,0.0,0.0,0.0,3.6995,3.83,3.8022,3.8024,3.8388,3.7171,3.5723,3.4044,3.2936,3.2248,3.1985,3.2,3.2,3.1981,3.1814,0.0,0.0,0.0,0.0,0.0,0.0,0.0,0.0,0.0,0.0,0.0,0.0,0.0,0.0,0.0,0.0,0.0,0.0,0.0,2.7557,2.7776,2.7926,0.0,0.0,0.0,0.0,0.0,0.0,0.0,0.0,0.0,3.3019,3.3581,3.4033,0.0,0.0,3.6414,3.64,3.6903,3.7282,3.7299,3.7134,0.0,3.7032,3.5816,3.487,3.487,3.4295,3.3797,3.3695,3.4056,3.4319,3.4243,3.4107,3.3974,3.3915,3.3014,3.2316,3.2202,3.2163,3.2108,3.209,3.2071,3.1967,3.8832,3.7193,3.6728,3.684,3.7337,3.7356,3.7638,3.8089,3.783,3.7585,3.7382,3.7316,3.6602,3.5449,3.5129,0.0,0.0,0.0,3.6415,3.672,3.7134,3.7305,3.7338,3.7722,3.7971,3.8066,3.7746,3.7664,3.7818,3.7501,3.6406,3.4615,0.0,0.0,3.6269,3.7108,3.8044,3.9001,3.8908,3.8891,3.908,3.7405,3.5706,3.4063,3.349,3.3051,3.2711,3.2672,3.2672,3.2691,3.2741,3.2125,0.0,0.0,0.0,0.0,0.0,0.0,0.0,0.0,0.0,0.0,0.0,2.6372,2.6391,0.0,0.0,0.0,2.8049,2.855,2.8887,2.9217,0.0,0.0,0.0,0.0,0.0,0.0,0.0,3.3313,3.3377,3.3824,3.4898,3.5144,3.5174,3.5181,3.6375,3.7238,3.7204,0.0,3.7993,3.7993,3.8041,3.807,3.8064,3.723,3.6537,3.6543,3.6003,3.5512,3.5455,3.5474,3.5401,3.5244,3.4864,3.4539,3.4491,3.3652,3.3018,3.3016,3.2994,3.2938,3.2931,3.2922,3.2825,4.1622,4.1538,4.0203,3.9611,3.956,3.9541,3.9593,3.9689,3.9727,3.9708,3.9614,3.8946,3.8571,3.8439,3.7723,0.0,3.8564,3.8573,3.9001,3.9781,3.9646,3.9567,3.956,3.9514,3.9496,3.953,3.8826,3.8503,3.8544,3.7836,3.7506,3.757,3.7869,3.7984,3.7907,3.8744,3.92,3.9315,4.0079,4.0077,3.9197,3.7481,3.5821,3.4273,3.412,3.3719,3.294,3.2902,3.2882,3.2902,3.2882,3.2531,3.1733,0.0,0.0,0.0,0.0,0.0,0.0,0.0,0.0,0.0,0.0,0.0,0.0,0.0,0.0,2.8087,2.8887,0.0,3.0604,3.1339,0.0,0.0,0.0,3.2987,3.2996,3.2993,3.3262,3.3995,0.0,0.0,3.6281,3.6602,3.6703,3.6853,3.7502,3.8009,3.8086,3.817,3.8204,3.8308,3.8255,3.8216,3.8377,3.8157,3.7945,3.782,3.7824,3.7539,3.7394,3.6767,3.6154,3.5945,3.5169,3.4591,3.4428,3.4335,3.4316,3.4288,3.4307,3.4307,3.4199,3.4139,3.3925,4.4799,4.4779,4.4428,4.2991,4.0966,4.0929,4.0966,4.1051,4.151,4.1511,4.1185,4.1399,4.0959,4.0053,3.9829,3.9874,4.0098,4.0697,4.1068,4.1241,4.1129,4.108,4.107,4.0896,4.0841,4.0911,4.0744,4.069,4.0728,4.0579,4.0587,4.0697,4.0835,4.0368,3.9378,4.0205,4.1009,4.1675,4.1968,4.1456,4.0042,3.8323,3.6929,3.5935,3.5267,3.4827,3.4617,3.4598,3.4598,3.4617,3.4617,3.4235,3.3448,3.2656,0.0,0.0,0.0,0.0,0.0,0.0,0.0,0.0,0.0,2.8011,2.8395,0.0,2.9017,0.0,3.0521,3.1354,3.2167,3.2415,0.0,0.0,3.2735,3.3096,3.3665,3.3746,3.4029,3.4757,3.5372,3.5872,3.6235,3.7376,3.8194,3.8295,3.8594,3.8837,3.8923,3.9512,3.9912,3.9858,3.9838,3.99,3.981,3.9276,3.8607,3.7881,3.7709,3.7611,3.7469,3.7122,3.6855,3.6757,3.5979,3.5413,3.5264,3.4726,3.4258,3.4197,3.4203,3.4227,3.4171,3.4189,3.4128,4.5902,4.5902,4.5902,4.4961,4.349,4.3153,4.2865,4.2656,4.2953,4.2958,4.2709,4.2656,4.2052,4.1073,4.1036,4.1241,4.1613,4.2023,4.2414,4.2712,4.2667,4.26,4.2593,4.2474,4.2419,4.2464,4.2075,4.1909,4.1952,4.1612,4.1523,4.159,4.2031,4.1894,4.1203,4.1467,4.1893,4.2393,4.2208,4.1512,4.0273,3.8955,3.7731,3.6547,3.6031,3.5592,3.5209,3.519,3.519,3.519,3.519,3.4827,3.406,3.3578,3.2962,0.0,0.0,0.0,0.0,0.0,0.0,0.0,0.0,0.0,0.0,0.0,3.0866,3.1328,3.1807,3.2286,3.276,3.3115,3.3327,3.3333,3.3627,3.4006,3.4447,3.4785,3.5147,3.5495,3.6255,3.6861,3.7198,3.8052,3.8817,3.9166,3.9395,3.9545,3.9689,4.0175,4.0489,4.0489,4.0489,4.0492,4.0466,3.9976,3.9409,3.8915,3.8706,3.8556,3.8404,3.7967,3.7622,3.7469,3.6752,3.5987,3.5627,3.5144,3.4631,3.4216,3.4099,3.4087,3.4061,3.4093,3.4124,4.6214,4.6214,4.6195,4.6232,4.6194,4.5598,4.4835,4.4138,4.4035,4.3974,4.3936,4.3231,4.2526,4.1876,4.1876,4.2296,4.2946,4.2946,4.3293,4.3883,4.3883,4.3837,4.376,4.3756,4.3753,4.3734,4.2963,4.2645,4.2576,4.1912,4.158,4.163,4.2427,4.2841,4.2897,4.2594,4.2492,4.2597,4.2012,4.1319,4.0519,3.9624,3.8344,3.6757,3.6549,3.6107,3.5248,3.519,3.519,3.519,3.519,3.4904,3.4197,3.4056,3.3689,0.0,3.2852,0.0,0.0,0.0,0.0,0.0,0.0,0.0,0.0,3.2672,3.273,3.2817,3.2851,3.29,3.3067,3.3719,3.4126,3.4161,3.4699,3.5097,3.5229,3.5799,3.6196,3.6228,3.6925,3.7694,3.8294,3.858,3.8984,3.958,3.98,3.9962,4.0196,4.0341,4.0438,4.0469,4.0473,4.0408,4.036,4.0252,4.0081,4.004,3.983,3.9781,3.9548,3.8908,3.834,3.8115,3.74,3.6525,3.5752,3.5442,3.4914,3.4203,3.4023,3.3986,3.3994,3.4,3.3998,4.7865,4.7847,4.7847,4.7573,4.7169,4.7002,4.6144,4.4851,4.4207,4.3929,4.3878,4.3684,4.3523,4.3407,4.3452,4.3558,4.3688,4.3751,4.3812,4.3883,4.3837,4.3738,4.364,4.3584,4.3566,4.3548,4.3382,4.3327,4.3327,4.318,4.3106,4.3174,4.3354,4.348,4.3629,0.0,0.0,0.0,4.3625,4.2924,4.2216,4.0749,3.9166,3.754,3.6833,0.0,3.5267,3.519,3.519,3.519,3.519,0.0,0.0,0.0,0.0,0.0,0.0,0.0,0.0,0.0,0.0,0.0,3.4127,3.3937,3.2673,3.2545,3.2832,3.3439,3.3568,3.3887,3.4587,3.4751,3.4802,3.4818,3.4887,3.5185,3.581,3.601,3.6241,3.6855,3.7573,3.8083,3.8289,3.8833,3.9314,3.9519,3.9693,3.9804,3.9973,4.0139,4.0285,4.0342,4.03,4.027,4.0233,4.0119,4.0017,3.9935,3.9781,3.963,3.9496,3.9272,3.9032,3.8872,3.7731,3.6682,3.6358,3.5321,3.437,3.3983,3.3921,3.3928,3.3906,3.3968,3.3991,4.8324,4.8324,4.8324,4.8141,0.0,4.7537,4.6943,4.6178,4.506,4.4318,4.3897,4.3818,4.3804,4.3804,4.3883,4.3897,4.3915,4.3947,4.3915,4.3837,4.3753,4.3652,4.3534,4.3516,4.3479,4.3479,4.3479,4.3479,4.3479,4.3479,4.3532,4.3548,4.3548,4.36,4.3719,4.3878,4.4218,4.4659,4.3958,4.3265,4.2547,4.1393,3.9986,3.8345,3.7523,0.0,0.0,0.0,0.0,0.0,0.0,0.0,0.0,3.4811,0.0,3.5157,3.4795,3.4702,3.5069,3.5489,3.5645,3.559,3.5833,3.5488,3.4302,3.4226,3.4586,3.5381,3.5515,3.5723,3.6192,3.6188,3.6121,3.6085,3.6029,3.6155,3.6512,3.6864,3.7174,3.7596,3.829,3.8789,3.8789,3.9107,3.9413,3.9439,3.9526,3.9623,3.9717,3.9956,4.0177,4.0232,4.0234,4.0157,4.0118,4.0019,3.987,3.9739,3.9626,3.9491,3.9388,3.9258,3.9073,3.8633,3.7827,3.7098,3.6144,3.5251,3.4544,3.405,3.3868,3.3842,3.3876,3.3876,3.3895,4.8453,4.8324,4.8324,4.8361,4.8436,4.7795,4.7481,4.7296,4.5842,0.0,0.0,4.3841,4.3719,4.3771,4.38,4.3865,4.3883,4.3883,4.3851,4.3804,4.3667,4.3548,4.3479,4.3479,4.3479,4.3479,4.3479,4.3479,4.3479,4.3479,4.3479,4.3479,4.3479,4.3513,4.3615,4.3832,4.4097,4.4393,4.3936,4.3334,4.264,4.1939,4.0785,3.9147,3.8326,3.7465,3.6511,3.5802,3.5362,3.5209,3.519,3.5286,3.5403,3.5408,3.5772,3.6536,3.6558,3.6825,3.7509,3.7489,3.7408,3.7345,3.7149,3.6817,3.6236,3.6198,3.6484,3.7227,3.7305,3.7313,3.7376,3.7299,3.7253,3.7201,3.7094,3.7071,3.7199,3.7685,3.8078,3.832,3.888,3.9346,3.9309,3.9309,3.9346,3.9373,3.9413,3.9458,3.9551,3.9807,4.0057,4.0112,4.0131,4.0072,3.9975,3.9681,3.9551,3.9293,3.9081,3.897,3.8816,3.8757,3.8461,3.7801,3.7598,3.6856,3.5688,3.5132,3.4797,3.4034,3.3834,3.3807,3.3807,3.3807,3.3807,4.8967,4.8324,4.8324,4.8363,4.8475,4.8384,4.7961,4.7276,4.5582,4.4791,4.4644,4.386,4.3532,4.355,4.3615,4.3701,4.3804,4.3804,4.3804,4.3804,4.3667,4.3548,4.3479,4.3479,4.3479,4.3479,4.3479,4.3479,4.3479,4.3479,4.3479,4.3479,4.3479,4.3532,4.3582,4.3704,4.3869,4.4067,4.4252,4.4094,4.3531,4.2701,4.1513,4.0002,3.9147,3.8002,3.6478,3.636,3.5974,3.5267,3.519,3.5518,3.6172,3.623,3.6593,3.7338,3.7376,3.7375,3.7409,3.7305,3.7175,3.7057,3.698,3.6924,3.6948,3.693,3.7032,3.7212,3.7332,3.73,3.7305,3.7268,3.722,3.7163,3.7017,3.7182,3.7865,3.7981,3.8294,3.8894,3.9082,3.9129,3.9156,3.9175,3.9175,3.9212,3.9256,3.9298,3.9402,3.9679,3.9848,3.9913,3.9891,3.9857,3.9671,3.9029,3.8578,3.8474,3.7798,3.7373,3.7348,3.7291,3.7173,3.6904,3.6433,3.582,3.5291,3.4689,3.4207,3.3879,3.3807,3.3807,3.3807,3.3807,3.3807,4.9756,4.9022,4.9003,4.8785,4.8401,4.8401,4.818,4.7776,4.6581,4.5827,4.5493,4.4983,4.4562,4.4176,4.4226,4.4039,4.3667,4.3667,4.3719,4.3667,4.3582,4.3513,4.3497,4.3479,4.3479,4.3479,4.3479,4.3479,4.3479,4.3479,4.3479,4.3479,4.3479,4.3532,4.3548,4.3618,4.3719,4.3897,4.4195,4.4046,4.3441,4.271,4.1821,4.0715,3.9507,3.8518,3.7793,3.7373,3.6972,3.6571,3.657,3.6706,3.7032,3.6977,3.7318,3.8115,3.8069,3.8172,3.8584,3.8489,3.8346,3.8215,3.8163,3.8182,3.824,3.7873,3.7866,3.8321,3.8426,3.845,3.8456,3.8385,3.8321,3.8256,3.8183,3.8285,3.8562,3.8635,3.8747,3.9082,3.911,3.9101,3.9101,3.9101,3.9101,3.9138,3.9166,3.9099,3.8801,3.8807,3.9096,3.9599,3.9416,3.9081,3.8949,3.824,3.7676,3.7504,3.7107,3.6826,3.6745,3.6705,3.6508,3.6122,3.5696,3.5287,3.4828,3.4341,3.3997,3.3887,3.3834,3.3807,3.3807,3.3807,3.3807,5.056,4.9848,4.9664,4.9095,4.8324,4.8324,4.8324,4.8251,4.7627,4.7095,4.658,4.614,4.5553,4.5002,4.5037,4.4612,4.3931,4.3858,4.3766,4.36,4.3513,4.3479,4.3479,4.3479,4.3479,4.3479,4.3479,4.3479,4.3479,4.3479,4.3479,4.3479,4.3479,4.3479,4.3479,4.3548,4.3634,4.3753,4.3947,4.3879,4.3427,4.2824,4.2157,4.1358,4.0089,3.9202,3.8861,3.8271,3.787,3.768,3.768,3.7719,3.7813,3.7753,3.8031,3.8764,3.8742,3.8893,3.9402,3.9376,3.9264,3.9129,3.9129,3.9129,3.91,3.8625,3.8592,3.9261,3.9343,3.9343,3.9331,3.9308,3.9313,3.9212,3.9175,3.9082,3.9101,3.9101,3.9101,3.9101,3.9101,3.9101,3.9101,3.9101,3.9101,3.9101,3.9008,3.8655,3.817,3.7947,3.8203,3.8651,3.8531,3.8136,3.7938,3.7296,3.6774,3.6553,3.6273,3.6062,3.6012,3.6062,3.5919,3.5299,3.5194,3.4915,3.4253,3.4079,3.3994,3.3895,3.386,3.3834,3.3825,3.3842,3.3842,5.1284,5.0637,4.9921,4.9095,4.8379,4.8324,4.8324,4.8306,4.8214,4.8159,4.7884,4.6562,4.5902,4.5792,4.5773,4.5387,4.4685,4.4634,4.4267,4.3692,4.3532,4.3497,4.3571,4.3516,4.3479,4.3516,4.3497,4.3479,4.3479,4.3479,4.3479,4.3479,4.3479,4.3479,4.3497,4.3532,4.3548,4.3634,4.3704,4.3878,4.4061,4.3465,4.2765,4.2033,4.1335,4.0233,3.8852,3.8687,3.8366,3.7681,3.7662,3.7946,3.851,3.8603,3.8858,3.9416,3.9419,3.9327,3.9165,3.9073,3.9007,3.8939,3.8921,3.895,3.9007,3.8952,3.9027,3.932,3.9391,3.9384,3.9376,3.9272,3.9208,3.9166,3.9138,3.9101,3.9101,3.9101,3.9101,3.9101,3.9101,3.9101,3.9101,3.9101,3.9101,3.9101,3.8544,3.8109,3.7858,3.7292,3.6876,3.7106,3.7031,3.705,3.6937,3.6285,3.5813,3.5634,3.5008,3.4742,3.4723,3.4667,3.4407,3.4686,3.4444,3.4346,3.4204,3.4087,3.4037,3.3947,3.3913,3.3887,3.3915,3.3895,3.3891,5.2005,5.1381,5.1009,5.0211,4.9095,4.8545,4.8324,4.8324,4.8324,4.8324,4.8251,4.7609,4.7076,4.6636,4.6617,4.6177,4.546,4.5406,4.5241,4.4965,4.4911,4.4911,4.4874,4.4415,4.4213,4.414,4.3736,4.3479,4.3479,4.3479,4.3479,4.3479,4.3479,4.3479,4.3479,4.3479,4.3513,4.3566,4.36,4.3701,4.3767,4.3308,4.2707,4.2063,4.138,4.0514,3.9485,3.9359,3.9231,3.8928,3.8909,3.8996,3.9226,3.9199,3.926,3.9458,3.935,3.9165,3.8989,3.895,3.8921,3.891,3.891,3.8892,3.8921,3.8939,3.8979,3.9082,3.9193,3.9193,3.9175,3.9137,3.9063,3.9064,3.9064,3.9064,3.9101,3.9101,3.9101,3.9101,3.9092,3.9036,3.9064,3.9055,3.9064,3.9008,3.8414,3.7785,3.7313,3.6545,3.5863,3.5416,3.5299,3.5565,3.5906,3.5397,3.4945,3.4729,3.4481,3.4216,3.4216,3.4216,3.4216,3.4216,3.4216,3.4216,3.4191,3.4117,3.4074,3.4005,3.3983,3.395,3.3962,3.3957,3.3968,5.2451,5.2053,5.1877,5.0918,4.9515,4.893,4.8526,4.8324,4.8324,4.8324,4.8324,4.8324,4.7994,4.7498,4.7443,4.7003,4.6287,4.6232,4.6104,4.592,4.5902,4.5883,4.5828,4.5333,4.5039,4.4911,4.4232,4.3718,4.3516,4.3479,4.3479,4.3479,4.3479,4.3479,4.3479,4.3479,4.3479,4.3532,4.3566,4.3582,4.3542,4.3272,4.2813,4.2239,4.1522,4.0816,4.0066,3.9844,3.9717,3.9717,3.9717,3.967,3.9551,3.9496,3.9401,3.9272,3.9129,3.896,3.8862,3.8851,3.8851,3.8851,3.8851,3.8851,3.8881,3.8881,3.8881,3.8939,3.8979,3.9036,3.8979,3.897,3.899,3.8943,3.8999,3.898,3.9045,3.9045,3.9045,3.9045,3.9007,3.8997,3.8979,3.8952,3.8915,3.8656,3.8025,3.7275,3.6488,3.5683,3.4921,3.429,3.4234,3.45,3.5032,3.479,3.4282,3.4221,3.4216,3.4216,3.4216,3.4216,3.4216,3.4216,3.4216,3.4216,3.4197,3.416,3.4099,3.408,3.4042,3.4002,3.4023,3.4016,3.4062,5.2536,5.2472,5.2017,5.0931,4.9431,4.9478,4.904,4.8398,4.8324,4.8324,4.8324,4.8324,4.8288,4.8214,4.8177,4.781,4.7131,4.7058,4.6691,4.6085,4.5993,4.5938,4.5902,4.5865,4.5847,4.5792,4.5021,4.4287,4.3589,4.3497,4.3479,4.3479,4.3479,4.3479,4.3479,4.3479,4.3479,4.3479,4.3497,4.3532,4.3582,4.356,4.3301,4.2772,4.2156,4.148,4.0701,3.9908,3.9545,3.9545,3.9545,3.9477,3.9401,3.9331,3.9219,3.9036,3.8892,3.8803,3.8792,3.875,3.8738,3.8689,3.8719,3.875,3.8792,3.8792,3.8822,3.8892,3.8892,3.8892,3.8892,3.8892,3.8921,3.8902,3.8877,3.8896,3.8921,3.8939,3.891,3.8939,3.8921,3.891,3.891,3.8902,3.8524,3.7988,3.7209,3.6408,3.5752,3.4896,3.4389,3.4253,3.4216,3.4234,3.4271,3.4314,3.4258,3.4197,3.4216,3.4216,3.4216,3.4216,3.4216,3.4216,3.4216,3.4216,3.4216,3.4197,3.4154,3.4124,3.408,3.4067,3.4097,3.408,3.4099,5.2293,5.2481,5.1817,5.1256,5.0757,4.987,4.927,4.8941,4.8488,4.8324,4.8324,4.8324,4.8324,4.8324,4.8324,4.8159,4.7884,4.7884,4.77,4.7443,4.7443,4.7443,4.7388,4.6948,4.6673,4.6544,4.5847,4.5057,4.4287,4.3773,4.3479,4.3479,4.3479,4.3479,4.3479,4.3479,4.3479,4.3479,4.3479,4.3513,4.3566,4.3582,4.3502,4.3305,4.2779,4.2126,4.1353,4.0595,4.0218,4.0199,3.9623,3.929,3.921,3.9101,3.9007,3.891,3.8822,3.8792,3.875,3.8689,3.8707,3.8707,3.8707,3.8689,3.8719,3.875,3.875,3.878,3.878,3.8762,3.8762,3.8822,3.8833,3.8833,3.8851,3.8862,3.8899,3.8895,3.8902,3.8899,3.8862,3.8833,3.8711,3.8398,3.7993,3.7681,3.6626,3.5808,3.541,3.471,3.4216,3.4216,3.4216,3.4216,3.4216,3.4216,3.4216,3.4216,3.4216,3.4216,3.4216,3.4216,3.4216,3.4216,3.4216,3.4216,3.4216,3.4216,3.4173,3.4173,3.413,3.4105,3.4167,3.4154,3.416,5.1467,5.1481,5.1375,5.103,5.0617,4.9961,4.9328,4.8912,4.8446,4.8286,4.8267,4.8286,4.8324,4.8324,4.8324,4.8324,4.8324,4.8306,4.8324,4.8324,4.8324,4.8324,4.8233,4.7755,4.7498,4.7315,4.6397,4.5498,4.469,4.3883,4.3497,4.3479,4.3479,4.3479,4.3479,4.3479,4.3479,4.3479,4.3479,4.3479,4.3497,4.3548,4.3566,4.3526,4.3245,4.2724,4.1987,4.1239,4.084,4.07,3.9965,3.9352,3.9026,3.8921,3.8851,3.878,3.8762,3.8732,3.8707,3.8707,3.8707,3.8707,3.8707,3.8707,3.8707,3.8707,3.8707,3.8707,3.8707,3.8707,3.8707,3.8732,3.8743,3.8762,3.8756,3.8805,3.8822,3.8805,3.8823,3.8829,3.881,3.8762,3.867,3.8033,3.7555,3.7345,3.612,3.5349,3.4952,3.4599,3.4216,3.4216,3.4216,3.4216,3.4216,3.4216,3.4197,3.4197,3.4216,3.4216,3.4216,3.4216,3.4216,3.4216,3.4216,3.4216,3.4216,3.4216,3.4216,3.4216,3.4197,3.4173,3.4191,3.4216,3.4227,5.0097,4.9805,5.0631,5.02,4.9216,4.968,4.9228,4.8143,4.8126,4.8187,4.8208,4.8286,4.8324,4.8324,4.8324,4.8324,4.8324,4.8324,4.8324,4.8324,4.8324,4.8324,4.8306,4.8233,4.8177,4.8122,4.6673,4.5553,4.4819,4.403,4.3608,4.3497,4.3479,4.3479,4.3479,4.3479,4.3479,4.3479,4.3479,4.3479,4.3479,4.3479,4.3513,4.3513,4.3526,4.3207,4.2548,4.1754,4.136,4.1237,4.0554,3.9711,3.9135,3.9013,3.8891,3.894,3.8799,3.8744,3.8762,3.8744,3.8707,3.8707,3.8707,3.8707,3.8707,3.8707,3.8707,3.8707,3.8707,3.8707,3.8707,3.8707,3.8707,3.8707,3.8707,3.8707,3.8707,3.8707,3.8707,3.8707,3.8707,3.8707,3.8542,3.7881,3.7177,3.6562,3.5708,3.4944,3.4433,3.4216,3.4216,3.4216,3.4216,3.4197,3.4216,3.4216,3.4197,3.4197,3.4197,3.4216,3.4216,3.4216,3.4216,3.4216,3.4216,3.4216,3.4216,3.4216,3.4216,3.4216,3.4216,3.4216,3.4216,3.424,3.4265,4.9305,4.9323,4.9633,4.9614,4.9251,4.91,4.8808,4.8527,4.8225,4.8108,4.8169,4.8267,4.8324,4.8324,4.8324,4.8324,4.8324,4.8324,4.8324,4.8324,4.8324,4.8324,4.8324,4.8324,4.8324,4.8141,4.726,4.6305,4.5516,4.4709,4.4085,4.3589,4.3497,4.3479,4.3479,4.3479,4.3479,4.3479,4.3479,4.3479,4.3479,4.3479,4.3479,4.3479,4.3513,4.3401,4.3143,4.2488,4.2147,4.211,4.1322,4.0725,4.0441,4.0373,4.0359,4.0304,3.9827,3.9515,3.9441,3.9019,3.8726,3.8707,3.8707,3.8707,3.8707,3.8707,3.8707,3.8707,3.8707,3.8707,3.8707,3.8707,3.8707,3.8707,3.8707,3.8707,3.8707,3.8707,3.8707,3.8707,3.8707,3.8707,3.845,3.7643,3.6652,3.6295,3.523,3.4275,3.4124,3.4111,3.4148,3.4197,3.4197,3.4221,3.4245,3.4269,3.4293,3.4269,3.4264,3.424,3.424,3.4234,3.4234,3.4221,3.4221,3.4221,3.4221,3.424,3.4221,3.4221,3.4245,3.4264,3.4258,3.4293,3.4334,4.8144,4.8063,4.8444,4.8471,4.8396,4.8314,4.8344,4.8276,4.8047,4.7992,4.813,4.8229,4.8324,4.8324,4.8324,4.8324,4.8324,4.8324,4.8324,4.8324,4.8324,4.8324,4.8324,4.8324,4.8324,4.8177,4.7498,4.6856,4.6305,4.5259,4.4452,4.3993,4.3644,4.3479,4.3479,4.3479,4.3479,4.3479,4.3479,4.3479,4.3479,4.3479,4.3479,4.3479,4.3479,4.3479,4.3477,4.3067,4.2894,4.2713,4.2055,4.1475,4.1167,4.1093,4.1097,4.102,4.0634,4.023,3.9918,3.9441,3.8964,3.8781,3.8707,3.8707,3.8707,3.8707,3.8707,3.8707,3.8707,3.8707,3.8707,3.8707,3.8707,3.8707,3.8707,3.8707,3.8707,3.8707,3.8707,3.8707,3.8707,3.8707,3.8395,3.7349,3.6358,3.6093,3.4935,3.3939,3.4012,3.408,3.4154,3.4203,3.425,3.4274,3.4321,3.4363,3.4386,3.4381,3.4335,3.4311,3.4306,3.432,3.4314,3.4298,3.4307,3.4321,3.4316,3.4293,3.4293,3.4293,3.4316,3.4316,3.4335,3.4381,3.4416,4.6687,4.6178,4.7061,4.7139,4.6724,4.7607,4.7768,4.7375,4.7621,4.7893,4.8014,4.8229,4.8324,4.8324,4.8324,4.8324,4.8324,4.8324,4.8324,4.8324,4.8324,4.8324,4.8324,4.8324,4.8324,4.8196,4.7609,4.7205,4.6874,4.5736,4.4819,4.4709,4.4048,4.3589,4.3644,4.3552,4.3479,4.3479,4.3479,4.3479,4.3479,4.3479,4.3479,4.3479,4.3479,4.3479,4.3461,4.3422,4.344,4.3369,4.2708,4.2066,4.146,4.1258,4.1423,4.1442,4.124,4.0818,4.0267,4.0065,3.9625,3.8982,3.8909,3.8726,3.8726,3.8707,3.8707,3.8707,3.8707,3.8707,3.8707,3.8707,3.8707,3.8707,3.8707,3.8707,3.8707,3.8707,3.8707,3.8707,3.8707,3.8707,3.8615,3.7294,3.6486,3.6019,3.4981,3.4142,3.4028,3.4099,3.4208,3.4255,3.4302,3.4367,3.4409,3.4495,3.4517,3.4558,3.4514,3.4446,3.4381,3.4391,3.4372,3.4371,3.4401,3.4416,3.4413,3.4409,3.4386,3.4409,3.4409,3.4409,3.445,3.4514,3.4569,4.5961,4.5889,4.625,4.6347,4.6319,4.6838,4.7102,4.7241,4.7554,4.7829,4.7992,4.8229,4.8324,4.8324,4.8324,4.8324,4.8324,4.8324,4.8324,4.8324,4.8324,4.8324,4.8324,4.8324,4.8324,4.8269,4.8031,4.7682,4.7131,4.6617,4.6122,4.5571,4.48,4.4378,4.4323,4.3809,4.3497,4.3479,4.3479,4.3479,4.3479,4.3479,4.3479,4.3479,4.3479,4.3479,4.3479,4.3479,4.3479,4.3479,4.3314,4.3112,4.28,4.2763,4.2727,4.2653,4.2249,4.1901,4.1589,4.1111,4.0432,3.9698,3.9515,3.9313,3.8744,3.8707,3.8707,3.8707,3.8707,3.8707,3.8707,3.8707,3.8707,3.8707,3.8707,3.8707,3.8707,3.8707,3.8707,3.8707,3.8707,3.8707,3.8395,3.7386,3.634,3.6056,3.5064,3.3954,3.4049,3.4142,3.425,3.4307,3.4371,3.4435,3.4539,3.4623,3.4685,3.4727,3.4685,3.462,3.4517,3.445,3.4416,3.4392,3.4486,3.4502,3.4498,3.4517,3.4517,3.4542,3.4583,3.4604,3.4636,3.4695,3.4734,4.5563,4.5615,4.5821,4.5972,4.6105,4.6447,4.6778,4.7133,4.7529,4.7806,4.7992,4.8229,4.8324,4.8324,4.8324,4.8324,4.8324,4.8324,4.8324,4.8324,4.8324,4.8324,4.8324,4.8324,4.8324,4.8324,4.8324,4.8067,4.7627,4.7315,4.6838,4.6361,4.5608,4.5057,4.4654,4.4305,4.3791,4.3552,4.3479,4.3479,4.3479,4.3479,4.3479,4.3479,4.3479,4.3479,4.3479,4.3479,4.3479,4.3479,4.3479,4.3479,4.3479,4.3479,4.3479,4.3461,4.3039,4.2671,4.2304,4.1846,4.1277,4.0524,4.0157,3.9698,3.9239,3.8946,3.8707,3.8707,3.8707,3.8707,3.8707,3.8707,3.8707,3.8707,3.8707,3.8707,3.8707,3.8707,3.8707,3.8707,3.8707,3.8707,3.867,3.7276,3.6541,3.6038,3.4981,3.4338,3.4093,3.4184,3.4279,3.4379,3.4489,3.4591,3.4691,3.4771,3.483,3.4888,3.4886,3.4807,3.4706,3.4586,3.4567,3.4572,3.4588,3.4591,3.4534,3.4555,3.4711,3.4732,3.4771,3.4732,3.4708,3.4504,3.4585,4.5441,4.5423,4.5684,4.5787,4.5871,4.635,4.6749,4.7088,4.7486,4.7824,4.801,4.8229,4.8267,4.8267,4.8286,4.8267,4.8286,4.8267,4.8306,4.8306,4.8324,4.8324,4.8324,4.8324,4.8324,4.8324,4.8324,4.8288,4.8067,4.7553,4.7315,4.704,4.6416,4.5626,4.5057,4.4745,4.425,4.3608,4.3479,4.3479,4.3479,4.3479,4.3479,4.3479,4.3479,4.3479,4.3479,4.3479,4.3479,4.3479,4.3479,4.3479,4.3479,4.3479,4.3479,4.3479,4.3387,4.3112,4.2616,4.2451,4.2084,4.1313,4.0598,3.9992,3.979,3.9276,3.8891,3.8707,3.8707,3.8707,3.8707,3.8707,3.8707,3.8707,3.8707,3.8707,3.8707,3.8707,3.8707,3.8707,3.8707,3.8707,3.8322,3.7441,3.6303,3.6221,3.5137,3.4308,3.416,3.4274,3.442,3.4559,3.4658,3.4735,3.4832,3.4927,3.4964,3.5039,3.5021,3.4983,3.4906,3.4809,3.4807,3.4788,3.4791,3.466,3.4472,3.4586,3.4661,3.4358,3.4016,3.4302,3.4566,3.4207,3.412,4.5441,4.5423,4.5667,4.5787,4.5871,4.6332,4.6731,4.7043,4.7486,4.7824,4.7992,4.8229,4.8286,4.8208,4.8226,4.8169,4.813,4.819,4.8247,4.8324,4.8324,4.8324,4.8324,4.8324,4.8324,4.8324,4.8324,4.8324,4.8214,4.8122,4.8031,4.7902,4.7205,4.6434,4.5663,4.5002,4.4323,4.3644,4.3479,4.3479,4.3479,4.3479,4.3479,4.3479,4.3479,4.3479,4.3479,4.3479,4.3479,4.3479,4.3479,4.3479,4.3479,4.3479,4.3479,4.3479,4.3479,4.3406,4.3259,4.3112,4.291,4.2139,4.1735,4.1258,3.9955,3.9753,3.9313,3.8909,3.8707,3.8707,3.8707,3.8707,3.8707,3.8707,3.8707,3.8707,3.8707,3.8707,3.8707,3.8707,3.8707,3.8707,3.8634,3.7316,3.6507,3.6232,3.5385,3.434,3.424,3.4377,3.4529,3.4679,3.4794,3.487,3.4963,3.5035,3.5107,3.5143,3.5166,3.5167,3.5058,3.502,3.5001,3.5001,3.4982,3.4772,3.4369,3.4044,3.4001,3.3636,3.3315,3.3532,3.3669,3.3544,3.362,4.5768,4.5423,4.5667,4.5787,4.5871,4.635,4.6749,4.7025,4.7425,4.7765,4.7992,4.819,4.8247,4.8265,4.8226,4.8169,4.8151,4.8208,4.8247,4.8306,4.8324,4.8324,4.8324,4.8324,4.8324,4.8324,4.8324,4.8324,4.8324,4.8324,4.8269,4.8306,4.7847,4.6985,4.6067,4.5443,4.4635,4.3699,4.3479,4.3479,4.3479,4.3479,4.3479,4.3479,4.3479,4.3479,4.3479,4.3479,4.3479,4.3479,4.3479,4.3479,4.3479,4.3479,4.3479,4.3479,4.3479,4.3479,4.3479,4.3461,4.3296,4.2873,4.2543,4.1901,4.0965,4.0414,3.9735,3.9294,3.8964,3.8707,3.8707,3.8744,3.8744,3.8726,3.8768,3.8799,3.878,3.875,3.8707,3.8689,3.8719,3.875,3.8283,3.7348,3.6721,3.6426,3.5232,3.4253,3.4418,3.4539,3.4651,3.4794,3.4925,3.5018,3.5088,3.5157,3.5203,3.5242,3.528,3.528,3.5261,3.5207,3.5152,3.5095,3.5015,3.4531,3.414,3.3791,3.3389,3.3178,3.2991,3.2871,3.2856,3.3053,3.316,4.6148,4.5423,4.5684,4.577,4.5871,4.6332,4.6731,4.698,4.7338,4.7681,4.7951,4.8108,4.8226,4.8247,4.8208,4.8208,4.8267,4.8267,4.8267,4.8324,4.8324,4.8324,4.8324,4.8324,4.8324,4.8324,4.8324,4.8324,4.8324,4.8324,4.8324,4.8306,4.8306,4.737,4.6232,4.5828,4.5039,4.3699,4.3479,4.3479,4.3479,4.3479,4.3479,4.3479,4.3479,4.3479,4.3479,4.3479,4.3479,4.3479,4.3479,4.3479,4.3479,4.3479,4.3479,4.3479,4.3479,4.3479,4.3479,4.3479,4.3461,4.3442,4.2928,4.2451,4.1974,4.1185,4.0487,3.9932,3.9528,3.897,3.8775,3.8762,3.8811,3.8805,3.8859,3.891,3.8892,3.8822,3.878,3.875,3.8792,3.8822,3.8446,3.7718,3.7156,3.6463,3.5224,3.4418,3.4605,3.4708,3.4791,3.4888,3.5034,3.5174,3.5258,3.53,3.5345,3.5364,3.5388,3.5403,3.5427,3.5397,3.5306,3.5095,3.4864,3.4334,3.3686,3.3096,3.2808,3.2718,3.2378,3.1988,3.2161,3.2564,3.2571,4.622,4.5423,4.5563,4.5667,4.5871,4.6235,4.659,4.6888,4.7294,4.7597,4.7783,4.805,4.813,4.8111,4.8169,4.8187,4.8208,4.8208,4.8247,4.8324,4.8324,4.8324,4.8324,4.8324,4.8324,4.8324,4.8324,4.8324,4.8324,4.8324,4.8324,4.8324,4.8233,4.7388,4.6305,4.5792,4.5039,4.3718,4.3479,4.3479,4.3479,4.3479,4.3479,4.3479,4.3479,4.3479,4.3479,4.3479,4.3479,4.3479,4.3479,4.3479,4.3479,4.3479,4.3479,4.3479,4.3479,4.3479,4.3479,4.3479,4.3479,4.3461,4.3314,4.291,4.2451,4.1992,4.1415,4.0822,4.0204,3.9571,3.8925,3.8909,3.8872,3.8888,3.8923,3.8952,3.8952,3.8952,3.8939,3.891,3.891,3.8873,3.8543,3.8155,3.759,3.6928,3.5938,3.5128,3.4958,3.4956,3.4889,3.5016,3.5119,3.5289,3.5417,3.5455,3.5476,3.5515,3.5534,3.554,3.5541,3.5558,3.5446,3.5283,3.4646,3.3898,3.323,3.2494,3.1934,3.1618,3.129,3.102,3.1337,3.1664,3.1428,4.6878,4.601,4.5701,4.5702,4.5855,4.6154,4.6512,4.6813,4.7133,4.7443,4.7657,4.7866,4.801,4.805,4.809,4.813,4.8187,4.8265,4.8286,4.8324,4.8324,4.8324,4.8324,4.8324,4.8324,4.8324,4.8324,4.8324,4.8324,4.8324,4.8288,4.8196,4.7939,4.7058,4.6067,4.5443,4.4672,4.3699,4.3479,4.3479,4.3479,4.3479,4.3479,4.3479,4.3479,4.3479,4.3479,4.3479,4.3479,4.3479,4.3479,4.3479,4.3479,4.3479,4.3479,4.3479,4.3479,4.3479,4.3479,4.3479,4.3513,4.3548,4.3566,4.3453,4.3063,4.2691,4.2157,4.1378,4.0597,3.9963,3.9575,3.9183,3.8999,3.9013,3.9036,3.9072,3.9154,3.9202,3.9166,3.9138,3.912,3.9064,3.8943,3.8515,3.8011,3.7287,3.6531,3.5998,3.5565,3.5287,3.5207,3.5157,3.527,3.5393,3.5515,3.5534,3.5572,3.5611,3.563,3.563,3.5623,3.5623,3.5626,3.5557,3.4717,3.3548,3.26,3.1806,3.1149,3.0675,3.0771,3.0838,3.0723,3.0655,3.066,4.764,4.6769,4.6081,4.591,4.6065,4.6125,4.6368,4.6708,4.6906,4.7223,4.7547,4.7675,4.7847,4.805,4.813,4.8111,4.8226,4.8267,4.8324,4.8324,4.8324,4.8324,4.8324,4.8324,4.8324,4.8324,4.8324,4.8324,4.8324,4.8324,4.8214,4.7902,4.7333,4.6562,4.5681,4.5076,4.4232,4.3736,4.3479,4.3479,4.3479,4.3479,4.3479,4.3479,4.3479,4.3479,4.3479,4.3479,4.3479,4.3479,4.3479,4.3479,4.3479,4.3479,4.3479,4.3532,4.3532,4.3513,4.3513,4.3513,4.3566,4.3634,4.3634,4.3701,4.3623,4.3158,4.2562,4.1711,4.0966,4.0355,4.0059,3.9486,3.9172,3.9165,3.921,3.9264,3.9338,3.9395,3.9413,3.9362,3.9317,3.9253,3.9178,3.9074,3.8602,3.8171,3.7427,3.7048,3.6559,3.587,3.563,3.5438,3.5427,3.5509,3.556,3.5584,3.5608,3.5647,3.5659,3.5659,3.567,3.5654,3.5618,3.5426,3.4283,3.3125,3.2111,3.1357,3.0923,3.0679,3.0692,3.07,3.0676,3.0692,3.071,4.8546,4.7527,4.6769,4.6635,4.6707,4.6236,4.6175,4.6491,4.6849,4.698,4.7178,4.7468,4.7723,4.7893,4.819,4.8267,4.8267,4.8306,4.8324,4.8324,4.8324,4.8324,4.8324,4.8324,4.8324,4.8324,4.8324,4.8324,4.8324,4.8324,4.7921,4.7425,4.7076,4.6397,4.5094,4.469,4.4287,4.3626,4.3479,4.3479,4.3479,4.3479,4.3479,4.3479,4.3479,4.3479,4.3479,4.3479,4.3479,4.3479,4.3479,4.3479,4.3479,4.3479,4.3513,4.3548,4.3548,4.3513,4.36,4.36,4.3652,4.3753,4.3771,4.3771,4.3763,4.3721,4.3304,4.2637,4.1853,4.1141,4.0548,3.9723,3.937,3.9303,3.9376,3.9382,3.9435,3.9575,3.9613,3.9594,3.9551,3.9502,3.9433,3.937,3.9231,3.8813,3.838,3.8004,3.7462,3.6722,3.5887,3.5608,3.5502,3.557,3.5612,3.5623,3.5665,3.5684,3.5704,3.5695,3.5697,3.5659,3.534,3.4904,3.3821,3.3184,3.2668,3.1953,3.1068,3.0695,3.0723,3.0723,3.069,3.0737,3.0761,4.9309,4.8234,4.7096,4.6721,4.6777,4.61,4.5972,4.6256,4.6464,4.6731,4.698,4.7267,4.7578,4.7893,4.819,4.8324,4.8324,4.8324,4.8324,4.8324,4.8324,4.8324,4.8324,4.8324,4.8324,4.8324,4.8324,4.8324,4.8324,4.8233,4.7902,4.7131,4.6617,4.5902,4.4654,4.4232,4.3883,4.3571,4.3479,4.3479,4.3479,4.3479,4.3479,4.3479,4.3479,4.3479,4.3479,4.3479,4.3479,4.3479,4.3479,4.3479,4.3513,4.3513,4.3582,4.3582,4.3634,4.3686,4.3719,4.3719,4.3753,4.3837,4.3869,4.3883,4.3915,4.391,4.3868,4.3478,4.2772,4.1991,4.1248,4.0496,3.9918,3.9653,3.9551,3.9588,3.9621,3.9709,3.9758,3.9781,3.9762,3.9739,3.9739,3.9728,3.9694,3.9504,3.9085,3.8685,3.8066,3.7319,3.6459,3.5637,3.5593,3.56,3.5639,3.5658,3.5708,3.5728,3.5756,3.5757,3.5747,3.562,3.5406,3.4917,3.4101,3.3576,3.323,3.2162,3.0892,3.0755,3.0767,3.0748,3.0734,3.0745,3.0786,4.9565,4.87,4.7424,4.6963,4.6985,4.6031,4.5821,4.6154,4.6186,4.6495,4.6888,4.7223,4.7597,4.797,4.819,4.8324,4.8324,4.8324,4.8324,4.8324,4.8324,4.8324,4.8324,4.8324,4.8324,4.8324,4.8324,4.8324,4.8233,4.8012,4.7517,4.6801,4.5957,4.5168,4.4433,4.3883,4.3516,4.3516,4.3479,4.3479,4.3479,4.3479,4.3479,4.3479,4.3479,4.3479,4.3479,4.3479,4.3479,4.3479,4.3513,4.3513,4.3566,4.36,4.3667,4.3701,4.3767,4.3818,4.3818,4.3832,4.3832,4.3897,4.3929,4.3961,4.3992,4.4005,4.4036,4.3962,4.3211,4.2523,4.1824,4.1101,4.0368,3.9908,3.9708,3.9778,3.9888,3.9922,3.9977,3.9977,4.0019,4.0059,4.004,4.008,4.008,4.0077,3.9776,3.9317,3.8493,3.7597,3.6733,3.5778,3.5648,3.566,3.5689,3.5728,3.5756,3.5793,3.5803,3.581,3.5811,3.5811,3.5714,3.5087,3.4335,3.375,3.3267,3.1982,3.0794,3.0789,3.0782,3.0782,3.0786,3.0801,3.0792,4.9059,4.8752,4.7924,4.76,4.7642,4.6256,4.5736,4.599,4.6154,4.6398,4.6778,4.7338,4.7723,4.7992,4.819,4.8324,4.8324,4.8324,4.8324,4.8324,4.8324,4.8324,4.8324,4.8324,4.8324,4.8324,4.8324,4.8324,4.8086,4.7443,4.6783,4.5975,4.5388,4.447,4.3883,4.3589,4.3479,4.3479,4.3479,4.3479,4.3479,4.3479,4.3479,4.3479,4.3479,4.3479,4.3479,4.3513,4.3513,4.3513,4.36,4.36,4.3634,4.3719,4.3786,4.3832,4.3865,4.3897,4.391,4.3929,4.3929,4.3974,4.3974,4.3974,4.4005,4.4005,4.4055,4.4097,4.3524,4.2861,4.2108,4.1297,4.0785,4.0259,4.0041,3.9983,4.0043,4.012,4.0158,4.0177,4.0196,4.0233,4.0288,4.0306,4.0309,4.0291,3.9881,3.9418,3.8265,3.7351,3.6643,3.5968,3.5747,3.5727,3.5765,3.5801,3.5807,3.5834,3.5854,3.5866,3.5899,3.5889,3.5897,3.5334,3.4605,3.3947,3.3139,3.1882,3.0975,3.0838,3.0784,3.079,3.0781,3.0778,3.0791,4.873,4.8062,4.7355,4.7027,4.7013,4.5942,4.5615,4.5838,4.5905,4.6284,4.6888,4.7425,4.7806,4.7992,4.819,4.8324,4.8324,4.8324,4.8324,4.8324,4.8324,4.8324,4.8324,4.8324,4.8324,4.8324,4.8324,4.8324,4.8196,4.7076,4.6379,4.5718,4.5057,4.4323,4.3773,4.3479,4.3497,4.3497,4.3479,4.3479,4.3479,4.3479,4.3479,4.3479,4.3479,4.3513,4.3548,4.3566,4.36,4.3667,4.3719,4.3719,4.3701,4.3818,4.3865,4.3897,4.391,4.3974,4.3974,4.3974,4.3992,4.3974,4.4005,4.4005,4.4005,4.4085,4.4135,4.4084,4.4015,4.3455,4.2827,4.2181,4.1574,4.0855,4.0402,4.0234,4.0229,4.0283,4.0321,4.0321,4.0358,4.0375,4.0441,4.0508,4.0504,4.0456,3.9985,3.9347,3.8131,3.7166,3.6473,3.6018,3.5793,3.5752,3.5807,3.583,3.5859,3.5885,3.5892,3.5919,3.5939,3.5958,3.5857,3.5363,3.4693,3.3808,3.2831,3.1738,3.1113,3.0879,3.0781,3.0776,3.0771,3.076,3.0743,4.7983,4.7303,4.6579,4.6406,4.6493,4.5751,4.5581,4.5787,4.5838,4.627,4.7025,4.7486,4.7824,4.7992,4.819,4.8324,4.8324,4.8324,4.8324,4.8324,4.8324,4.8324,4.8324,4.8324,4.8324,4.8324,4.8324,4.8324,4.8233,4.6654,4.6067,4.5626,4.4874,4.4011,4.3681,4.3479,4.3532,4.3532,4.3513,4.3548,4.3566,4.36,4.36,4.36,4.36,4.36,4.3667,4.3667,4.3719,4.3753,4.3804,4.3818,4.3851,4.3883,4.3929,4.3942,4.3974,4.4005,4.4005,4.4005,4.4005,4.4005,4.4005,4.4005,4.4085,4.4135,4.4214,4.4333,4.4374,4.4196,4.3474,4.2716,4.2002,4.1214,4.052,4.0298,4.0345,4.0412,4.045,4.0454,4.0485,4.0504,4.0549,4.0554,4.027,4.0053,3.9334,3.8658,3.7653,3.682,3.63,3.5965,3.5779,3.5787,3.5833,3.5858,3.589,3.5931,3.5935,3.5965,3.5979,3.6003,3.5718,3.5136,3.4393,3.3524,3.255,3.1523,3.1084,3.0825,3.0757,3.0726,3.0711,3.0685,3.0643,4.6682,4.6527,4.5803,4.5906,4.6424,4.5751,4.5581,4.5821,4.5889,4.6301,4.7043,4.7486,4.7806,4.7992,4.8229,4.8324,4.8324,4.8324,4.8324,4.8324,4.8324,4.8324,4.8324,4.8324,4.8324,4.8324,4.8324,4.8324,4.8288,4.6673,4.603,4.5443,4.456,4.3679,4.3497,4.3479,4.3513,4.3582,4.3582,4.3667,4.3719,4.3771,4.3738,4.3738,4.3719,4.3719,4.3753,4.3786,4.3786,4.3818,4.3883,4.3897,4.3897,4.3961,4.3974,4.3974,4.4005,4.4005,4.4005,4.4005,4.4036,4.4055,4.4055,4.4085,4.4165,4.4195,4.4285,4.4449,4.4524,4.4293,4.366,4.2957,4.2265,4.1685,4.1006,4.0415,4.0477,4.0496,4.0516,4.0559,4.0593,4.0621,4.0668,4.0591,4.012,3.9591,3.8764,3.7904,3.7041,3.6541,3.6065,3.5966,3.5814,3.5858,3.5889,3.5892,3.5935,3.5968,3.5973,3.5956,3.5957,3.5972,3.5556,3.4945,3.4131,3.3329,3.2361,3.1351,3.0996,3.065,3.0687,3.0653,3.0646,3.0599,3.0537,4.6286,4.5803,4.5544,4.5631,4.5874,4.5667,4.5615,4.5871,4.627,4.6702,4.716,4.7578,4.787,4.8032,4.819,4.8324,4.8324,4.8324,4.8324,4.8324,4.8324,4.8324,4.8324,4.8324,4.8324,4.8324,4.8324,4.8306,4.8288,4.6709,4.603,4.5498,4.4375,4.3658,4.3548,4.3582,4.3634,4.3719,4.3719,4.3771,4.3804,4.3804,4.3804,4.3804,4.3804,4.3837,4.3851,4.3883,4.3883,4.3929,4.3961,4.3992,4.3974,4.4005,4.4005,4.4036,4.4036,4.4147,4.4177,4.4226,4.4177,4.4147,4.4135,4.4165,4.4255,4.4344,4.4458,4.4597,4.4712,4.4588,4.4516,4.3336,4.261,4.2328,4.1697,4.0815,4.0554,4.0571,4.0578,4.0629,4.0681,4.0713,4.075,4.0304,3.9851,3.9228,3.8423,3.7405,3.6503,3.6221,3.5885,3.5924,3.5864,3.5904,3.5951,3.5942,3.5937,3.5956,3.595,3.5923,3.5926,3.5927,3.57,3.5222,3.4169,3.3128,3.2291,3.1497,3.0839,3.0492,3.0477,3.0494,3.0474,3.0442,3.0394,4.5889,4.5423,4.5476,4.5528,4.5581,4.5563,4.5736,4.6073,4.6637,4.7025,4.7338,4.7645,4.7893,4.809,4.8247,4.8324,4.8324,4.8324,4.8324,4.8324,4.8324,4.8324,4.8324,4.8324,4.8324,4.8324,4.8326,4.8289,4.783,4.6636,4.5716,4.4959,4.4223,4.383,4.3701,4.3701,4.3719,4.3786,4.3818,4.3851,4.3883,4.3883,4.3883,4.3883,4.3865,4.3897,4.3929,4.3961,4.3992,4.4055,4.4055,4.4085,4.4067,4.4116,4.4116,4.4147,4.4147,4.4255,4.4285,4.4314,4.4296,4.4314,4.4285,4.4285,4.4373,4.4468,4.4632,4.4764,4.4914,4.4786,4.4576,4.3393,4.2832,4.2537,4.1716,4.0833,4.0636,4.0648,4.0672,4.0738,4.0788,4.0815,4.0722,4.0042,3.9489,3.882,3.8101,3.7059,3.6121,3.5986,3.5866,3.5884,3.5907,3.594,3.5951,3.5957,3.5951,3.5955,3.5919,3.5869,3.5836,3.5827,3.5664,3.5441,3.4431,3.344,3.248,3.1684,3.0996,3.049,3.0239,3.0252,3.0286,3.0228,3.0174,4.5441,4.5441,4.5528,4.5615,4.5615,4.5718,4.6005,4.6447,4.6842,4.7205,4.7511,4.7728,4.7992,4.8169,4.8286,4.8324,4.8324,4.8324,4.8324,4.8324,4.8324,4.8324,4.8344,4.8344,4.8382,4.8382,4.8235,4.7905,4.7298,4.6302,4.5229,4.4321,4.3952,4.3851,4.3883,4.3883,4.3883,4.3915,4.3897,4.3929,4.3942,4.3992,4.3992,4.4023,4.4005,4.4023,4.4055,4.4036,4.4104,4.4184,4.4184,4.4226,4.4255,4.4304,4.4285,4.4314,4.4314,4.4314,4.4354,4.4411,4.4496,4.4524,4.4496,4.4515,4.4551,4.4685,4.4821,4.4967,4.5068,4.4666,4.4173,4.3446,4.2738,4.2082,4.1299,4.0887,4.0761,4.0757,4.0787,4.0837,4.0877,4.0869,4.0751,4.0187,3.9101,3.8533,3.7799,3.6885,3.6119,3.6008,3.5912,3.5918,3.5956,3.5975,3.597,3.594,3.5907,3.589,3.5836,3.5802,3.5768,3.5693,3.5504,3.5174,3.458,3.3692,3.2535,3.1756,3.118,3.0712,3.0319,3.0089,3.0145,2.9969,2.9851,4.5476,4.5528,4.5581,4.577,4.6055,4.6447,4.6702,4.687,4.7205,4.7486,4.7675,4.797,4.813,4.8187,4.8286,4.8324,4.8324,4.8324,4.8324,4.8324,4.8401,4.8419,4.8438,4.8458,4.8495,4.8329,4.8034,4.7628,4.7093,4.6112,4.4961,4.4017,4.3947,4.4011,4.4092,4.4141,4.4061,4.4011,4.3992,4.4005,4.4036,4.4085,4.4135,4.4135,4.4177,4.4177,4.4177,4.4177,4.4244,4.4255,4.4274,4.4285,4.4285,4.4314,4.4314,4.4411,4.4458,4.4487,4.4578,4.464,4.4693,4.4796,4.4846,4.4821,4.4846,4.4919,4.5065,4.5175,4.5223,4.4901,4.4243,4.3472,4.2678,4.1856,4.1202,4.0909,4.0809,4.0849,4.0878,4.0917,4.0945,4.0957,4.0811,3.9694,3.8702,3.8189,3.7506,3.6621,3.6114,3.602,3.5947,3.5947,3.5949,3.5949,3.5927,3.5904,3.5858,3.5833,3.5775,3.5709,3.563,3.553,3.5321,3.4982,3.4506,3.3572,3.2443,3.184,3.1544,3.0904,3.0471,3.0198,2.994,2.9758,2.9556,4.5528,4.5632,4.577,4.6105,4.6542,4.7025,4.7205,4.7312,4.7486,4.7699,4.7907,4.8108,4.8226,4.8247,4.8286,4.8324,4.8306,4.8363,4.8419,4.8419,4.8476,4.8513,4.8532,4.855,4.8587,4.8328,4.7901,4.7365,4.6715,4.5611,4.4395,4.4147,4.4116,4.4165,4.4214,4.4244,4.4214,4.4165,4.4116,4.4116,4.4165,4.4195,4.4244,4.4244,4.4285,4.4314,4.4314,4.4314,4.4314,4.4344,4.4373,4.4401,4.443,4.444,4.4496,4.4605,4.4613,4.4693,4.4796,4.487,4.4924,4.5042,4.5154,4.5199,4.5199,4.522,4.5302,4.54,4.5359,4.5141,4.4302,4.3472,4.2595,4.1703,4.1319,4.0925,4.0917,4.0945,4.0972,4.0976,4.1006,4.1025,4.0418,3.9248,3.84,3.8089,3.7424,3.6441,3.6073,3.6034,3.5948,3.5931,3.5929,3.5919,3.5905,3.5852,3.5795,3.5732,3.5657,3.5582,3.55,3.5359,3.5166,3.4874,3.4509,3.3567,3.2667,3.2368,3.2013,3.1329,3.0535,3.0036,2.9692,2.9439,2.9265,4.5615,4.5718,4.6105,4.6525,4.7025,4.7381,4.7615,4.7741,4.7783,4.7907,4.8148,4.8206,4.8247,4.8267,4.8324,4.8344,4.8382,4.8438,4.8476,4.8494,4.8587,4.8642,4.8642,4.8605,4.8547,4.8325,4.7768,4.6869,4.6076,4.5097,4.4412,4.4304,4.4285,4.4314,4.4314,4.4314,4.4314,4.4314,4.4285,4.4285,4.4285,4.4304,4.4314,4.4314,4.4314,4.4344,4.4344,4.4344,4.4354,4.4411,4.4468,4.4551,4.4605,4.4667,4.4764,4.4815,4.484,4.49,4.4995,4.5087,4.5156,4.5282,4.5419,4.551,4.5509,4.5455,4.5491,4.5594,4.558,4.4887,4.4047,4.3511,4.2775,4.1809,4.113,4.0974,4.1007,4.1013,4.1028,4.1028,4.1046,4.1049,4.0808,3.9717,3.878,3.8279,3.7479,3.645,3.601,3.6009,3.5963,3.5911,3.5892,3.5878,3.5811,3.5771,3.5718,3.564,3.5551,3.5405,3.5288,3.5171,3.5038,3.4679,3.4298,3.3802,3.3121,3.279,3.2216,3.1401,3.063,2.9893,2.9482,2.9173,2.8884,4.577,4.6105,4.659,4.6962,4.7276,4.7511,4.7842,4.8068,4.813,4.8169,4.8226,4.8247,4.8267,4.8344,4.8401,4.8438,4.8494,4.855,4.8569,4.8624,4.8697,4.8768,4.875,4.8674,4.8503,4.7884,4.7136,4.6201,4.5195,4.4565,4.4314,4.4314,4.4354,4.4383,4.4383,4.4411,4.4458,4.4458,4.4468,4.443,4.4344,4.4373,4.4383,4.4411,4.444,4.4496,4.4524,4.4578,4.4605,4.4632,4.4659,4.4685,4.4764,4.487,4.4952,4.5033,4.5052,4.5151,4.5239,4.5322,4.54,4.5509,4.5645,4.5737,4.5766,4.5673,4.5669,4.5775,4.5461,4.463,4.3896,4.3466,4.2884,4.1859,4.0999,4.1032,4.1085,4.1076,4.1074,4.1084,4.111,4.0996,4.0839,4.025,3.9351,3.8498,3.7663,3.6824,3.624,3.6027,3.5962,3.5904,3.5838,3.5801,3.5736,3.564,3.5574,3.5469,3.5342,3.5215,3.507,3.4851,3.4628,3.4367,3.4018,3.3552,3.3225,3.3015,3.2373,3.151,3.0703,2.9963,2.9237,2.88,2.8482,4.6005,4.6284,4.687,4.7276,4.7511,4.7847,4.809,4.8247,4.8382,4.842,4.8401,4.842,4.8458,4.8439,4.8513,4.8532,4.8532,4.866,4.8697,4.8732,4.8728,4.8911,4.8906,4.8606,4.8338,4.7681,4.6607,4.5567,4.4531,4.443,4.4458,4.444,4.4496,4.4524,4.4505,4.4578,4.4578,4.4578,4.4621,4.4587,4.4468,4.4496,4.4524,4.4578,4.4605,4.4659,4.4659,4.4712,4.4738,4.4789,4.4821,4.4938,4.4991,4.5106,4.5167,4.5227,4.5316,4.5381,4.5494,4.5563,4.5645,4.5737,4.5822,4.5898,4.5956,4.5902,4.5891,4.5928,4.5354,4.456,4.3734,4.3199,4.2388,4.1455,4.1125,4.109,4.1094,4.1092,4.1094,4.1094,4.111,4.1097,4.0828,4.0294,3.9529,3.9236,3.8318,3.7362,3.6752,3.6137,3.6037,3.5843,3.5736,3.5687,3.5615,3.5514,3.5391,3.5264,3.5109,3.4851,3.4655,3.4423,3.4191,3.3954,3.3716,3.3382,3.3077,3.2727,3.2385,3.1619,3.0803,3.0058,2.9283,2.8493,2.8118,4.6178,4.6411,4.7062,4.7493,4.7783,4.8169,4.8306,4.8382,4.8532,4.8642,4.8642,4.8642,4.8642,4.8587,4.8623,4.8549,4.8475,4.8398,4.8544,4.841,4.8494,4.8323,4.8203,4.8087,4.7703,4.7043,4.6038,4.5292,4.4505,4.4524,4.4578,4.4632,4.4659,4.4712,4.4712,4.4712,4.4685,4.4693,4.4719,4.4764,4.4738,4.4719,4.4693,4.4712,4.4738,4.4738,4.4764,4.4815,4.4865,4.4919,4.5038,4.5132,4.5239,4.5302,4.5379,4.5438,4.5532,4.5613,4.5708,4.578,4.5848,4.5929,4.5986,4.6018,4.6083,4.6072,4.6063,4.5632,4.5068,4.4476,4.3654,4.2838,4.1997,4.1328,4.1194,4.1111,4.1111,4.1074,4.1074,4.1074,4.1058,4.1067,4.0739,4.0234,3.9961,3.9688,3.9098,3.8144,3.7307,3.6668,3.6295,3.5905,3.5554,3.5522,3.5457,3.534,3.5203,3.5026,3.483,3.4525,3.4268,3.4086,3.3852,3.3588,3.3304,3.2995,3.2546,3.214,3.1783,3.1425,3.0722,2.9872,2.9204,2.8472,2.7843,4.6081,4.7125,4.7542,4.7852,4.8108,4.8381,4.8476,4.855,4.8715,4.8768,4.8748,4.8874,4.8892,4.8623,4.8732,4.8546,4.8025,4.8017,4.7489,4.7113,4.7457,4.7322,4.7236,4.723,4.6675,4.6023,4.5397,4.4879,4.4578,4.4632,4.4685,4.4667,4.4667,4.4693,4.4693,4.4719,4.4745,4.4796,4.487,4.4895,4.4943,4.4895,4.4815,4.484,4.487,4.4938,4.4986,4.508,4.5103,4.5173,4.5279,4.5362,4.5437,4.5528,4.5603,4.5657,4.575,4.5796,4.5871,4.5944,4.6007,4.6056,4.6074,4.6057,4.6066,4.6001,4.576,4.5167,4.4641,4.4256,4.3524,4.2701,4.1902,4.1385,4.1093,4.1077,4.1085,4.0994,4.0911,4.0911,4.0894,4.0877,4.0786,4.048,4.0369,4.0081,3.9749,3.8782,3.7436,3.6953,3.6543,3.5935,3.5392,3.53,3.5247,3.5138,3.5,3.4794,3.4538,3.4228,3.3963,3.3759,3.3524,3.3238,3.2912,3.256,3.2105,3.1615,3.1128,3.0737,3.0302,2.9668,2.9036,2.8485,2.7885]},{"header":{"parameterUnit":"m.s-1","parameterCategory":1,"la1":31.0,"la2":29.5877,"lo1":-88.7671,"lo2":-86.6584,"dy":0.0162,"dx":0.0185,"nx":115,"ny":88,"refTime":"2023-09-07T18:00:00:Z","depth":0,"parameterNumber":3,"parameterNumberName":"V-component_of_WINDS"},"data":[0.0,0.0,0.0,0.0,0.0,0.0,0.0,0.0,0.0,0.0,0.0,0.0,0.0,0.0,0.0,0.0,0.0,0.0,0.0,0.0,0.0,0.0,0.0,0.0,0.0,0.0,0.0,0.0,0.0,0.0,0.0,0.0,0.0,0.0,0.0,0.0,0.0,0.0,0.0,0.0,0.0,0.0,0.0,0.0,0.0,0.0,0.0,0.0,0.0,0.0,0.0,0.0,0.0,0.0,0.0,0.0,0.0,0.0,0.0,0.0,0.0,0.0,0.0,0.0,0.0,0.0,0.0,0.0,0.0,0.0,0.0,0.0,0.0,0.0,0.0,0.0,0.0,0.0,0.0,0.0,0.0,0.0,0.0,0.0,0.0,0.0,0.0,0.0,0.0,0.0,0.0,0.0,0.0,0.0,0.0,0.0,0.0,0.0,0.0,0.0,0.0,0.0,0.0,0.0,0.0,0.0,0.0,0.0,0.0,0.0,0.0,0.0,0.0,0.0,0.0,0.0,0.0,0.0,0.0,0.0,0.0,0.0,0.0,0.0,0.0,0.0,0.0,0.0,0.0,0.0,0.0,0.0,0.0,0.0,0.0,0.0,0.0,0.0,0.0,0.0,0.0,0.0,0.0,0.0,0.0,0.0,0.0,0.0,0.0,0.0,0.0,0.0,0.0,0.0,0.0,0.0,0.0,0.0,0.0,0.0,0.0,0.0,0.0,0.0,0.0,0.0,0.0,0.0,0.0,0.0,0.0,0.0,0.0,0.0,0.0,0.0,0.0,0.0,0.0,0.0,0.0,0.0,0.0,0.0,0.0,0.0,0.0,0.0,0.0,0.0,0.0,0.0,0.0,0.0,0.0,0.0,0.0,0.0,0.0,0.0,0.0,0.0,0.0,0.0,0.0,0.0,0.0,0.0,0.0,0.0,0.0,0.0,0.0,0.0,0.0,0.0,0.0,0.0,0.0,0.0,0.0,0.0,0.0,0.0,0.0,0.0,0.0,0.0,0.0,0.0,0.0,0.0,0.0,0.0,0.0,0.0,0.0,0.0,0.0,0.0,0.0,0.0,0.0,0.0,0.0,0.0,0.0,0.0,0.0,0.0,0.0,0.0,0.0,0.0,0.0,0.0,0.0,0.0,0.0,0.0,0.0,0.0,0.0,0.0,0.0,0.0,0.0,0.0,0.0,0.0,0.0,0.0,0.0,0.0,0.0,0.0,0.0,0.0,0.0,0.0,0.0,0.0,0.0,0.0,0.0,0.0,0.0,0.0,0.0,0.0,0.0,0.0,0.0,0.0,0.0,0.0,0.0,0.0,0.0,0.0,0.0,0.0,0.0,0.0,0.0,0.0,0.0,0.0,0.0,0.0,0.0,0.0,0.0,0.0,0.0,0.0,0.0,0.0,0.0,0.0,0.0,0.0,0.0,0.0,0.0,0.0,0.0,0.0,0.0,0.0,0.0,0.0,0.0,0.0,0.0,0.0,0.0,0.0,0.0,0.0,0.0,0.0,0.0,0.0,0.0,0.0,0.0,0.0,0.0,0.0,0.0,0.0,0.0,0.0,0.0,0.0,0.0,0.0,0.0,0.0,0.0,0.0,0.0,0.0,0.0,0.0,0.0,0.0,0.0,0.0,0.0,0.0,0.0,0.0,0.0,0.0,0.0,0.0,0.0,0.0,0.0,0.0,0.0,0.0,0.0,0.0,0.0,0.0,0.0,0.0,0.0,0.0,0.0,0.0,0.0,0.0,0.0,0.0,0.0,0.0,0.0,0.0,0.0,0.0,0.0,0.0,0.0,0.0,0.0,0.0,0.0,0.0,0.0,0.0,0.0,0.0,0.0,0.0,0.0,0.0,0.0,0.0,0.0,0.0,0.0,0.0,0.0,0.0,0.0,0.0,0.0,0.0,0.0,0.0,0.0,0.0,0.0,0.0,0.0,0.0,0.0,0.0,0.0,0.0,0.0,0.0,0.0,0.0,0.0,0.0,0.0,0.0,0.0,0.0,0.0,0.0,0.0,0.0,0.0,0.0,0.0,0.0,0.0,0.0,0.0,0.0,0.0,0.0,0.0,0.0,0.0,0.0,0.0,0.0,0.0,0.0,0.0,0.0,0.0,0.0,0.0,0.0,0.0,0.0,0.0,0.0,0.0,0.0,0.0,0.0,0.0,0.0,0.0,0.0,0.0,0.0,0.0,0.0,0.0,0.0,0.0,0.0,0.0,0.0,0.0,0.0,0.0,0.0,0.0,0.0,0.0,0.0,0.0,0.0,0.0,0.0,0.0,0.0,0.0,0.0,0.0,0.0,0.0,0.0,0.0,0.0,0.0,0.0,0.0,0.0,0.0,0.0,0.0,0.0,0.0,0.0,0.0,0.0,0.0,0.0,0.0,0.0,0.0,0.0,0.0,0.0,0.0,0.0,0.0,0.0,0.0,0.0,0.0,0.0,0.0,0.0,0.0,0.0,0.0,0.0,0.0,0.0,0.0,0.0,0.0,0.0,0.0,0.0,0.0,0.0,0.0,0.0,0.0,0.0,0.0,0.0,0.0,0.0,0.0,0.0,0.0,0.0,0.0,0.0,0.0,0.0,0.0,0.0,0.0,0.0,0.0,0.0,0.0,0.0,0.0,0.0,0.0,0.0,0.0,0.0,0.0,0.0,0.0,0.0,0.0,0.0,0.0,0.0,0.0,0.0,0.0,0.0,0.0,0.0,0.0,0.0,0.0,0.0,0.0,0.0,0.0,0.0,0.0,0.0,0.0,0.0,0.0,0.0,0.0,0.0,0.0,0.0,0.0,0.0,0.0,0.0,0.0,0.0,0.0,0.0,0.0,0.0,0.0,0.0,0.0,0.0,0.0,0.0,0.0,0.0,0.0,0.0,0.0,0.0,0.0,0.0,0.0,0.0,0.0,0.0,0.0,0.0,0.0,0.0,0.0,0.0,0.0,0.0,0.0,0.0,0.0,0.0,0.0,0.0,0.0,0.0,0.0,0.0,0.0,0.0,0.0,0.0,0.0,0.0,0.0,0.0,0.0,0.0,0.0,0.0,0.0,0.0,0.0,0.0,0.0,0.0,0.0,0.0,0.0,0.0,0.0,0.0,0.0,0.0,0.0,0.0,0.0,0.0,0.0,0.0,0.0,0.0,0.0,0.0,0.0,0.0,0.0,0.0,0.0,0.0,0.0,0.0,0.0,0.0,0.0,0.0,0.0,0.0,0.0,0.0,0.0,0.0,0.0,0.0,0.0,0.0,0.0,0.0,0.0,0.0,0.0,0.0,0.0,0.0,0.0,0.0,0.0,0.0,0.0,0.0,0.0,0.0,0.0,0.0,0.0,0.0,0.0,0.0,0.0,0.0,0.0,0.0,0.0,0.0,0.0,0.0,0.0,0.0,0.0,0.0,0.0,0.0,0.0,0.0,0.0,0.0,0.0,0.0,0.0,0.0,0.0,0.0,0.0,0.0,0.0,0.0,0.0,0.0,0.0,0.0,0.0,0.0,0.0,0.0,0.0,0.0,0.0,0.0,0.0,0.0,0.0,0.0,0.0,0.0,0.0,0.0,0.0,0.0,0.0,0.0,0.0,0.0,0.0,0.0,0.0,0.0,0.0,0.0,0.0,0.0,0.0,0.0,0.0,0.0,0.0,0.0,0.0,0.0,0.0,0.0,0.0,0.0,0.0,0.0,0.0,0.0,0.0,0.0,0.0,0.0,0.0,0.0,0.0,0.0,0.0,0.0,0.0,0.0,0.0,0.0,0.0,0.0,0.0,0.0,0.0,0.0,0.0,0.0,0.0,0.0,0.0,0.0,0.0,0.0,0.0,0.0,0.0,0.0,0.0,0.0,0.0,0.0,0.0,0.0,0.0,0.0,0.0,0.0,0.0,0.0,0.0,0.0,0.0,0.0,0.0,0.0,0.0,0.0,0.0,0.0,0.0,0.0,0.0,0.0,0.0,0.0,0.0,0.0,0.0,0.0,0.0,0.0,0.0,0.0,0.0,0.0,0.0,0.0,0.0,0.0,0.0,0.0,0.0,0.0,0.0,0.0,0.0,0.0,0.0,0.0,0.0,0.0,0.0,0.0,0.0,0.0,0.0,0.0,0.0,0.0,0.0,0.0,0.0,0.0,0.0,0.0,0.0,0.0,0.0,0.0,0.0,0.0,0.0,0.0,0.0,0.0,0.0,0.0,0.0,0.0,0.0,0.0,0.0,0.0,0.0,0.0,0.0,0.0,0.0,0.0,0.0,0.0,0.0,0.0,0.0,0.0,0.0,0.0,0.0,0.0,0.0,0.0,0.0,0.0,0.0,0.0,0.0,0.0,0.0,0.0,0.0,0.0,0.0,0.0,0.0,0.0,0.0,0.0,0.0,0.0,0.0,0.0,0.0,0.0,0.0,0.0,0.0,0.0,0.0,0.0,0.0,0.0,0.0,0.0,0.0,0.0,0.0,0.0,0.0,0.0,0.0,0.0,0.0,0.0,0.0,0.0,0.0,0.0,0.0,0.0,0.0,0.0,0.0,0.0,0.0,0.0,0.0,0.0,0.0,0.0,0.0,0.0,0.0,0.0,0.0,0.0,0.0,0.0,0.0,0.0,0.0,0.0,0.0,0.0,0.0,0.0,0.0,0.0,0.0,0.0,0.0,0.0,0.0,0.0,0.0,0.0,0.0,0.0,0.0,0.0,0.0,0.0,0.0,0.0,0.0,0.0,0.0,0.0,0.0,0.0,0.0,0.0,0.0,0.0,0.0,0.0,0.0,0.0482,0.0,0.0,0.0102,0.0394,0.0,0.0,0.0,0.0,0.0,0.0,0.0,0.0,0.0,0.0,0.0,0.0,0.0,0.0,0.0,0.0,0.0,0.0,0.0,0.0,0.0,0.0,0.0,0.0,0.0,0.0,0.0,0.0,0.0,0.0,0.0,0.0,0.0,0.0,0.0,0.0,0.0,0.0,0.0,0.0,0.0,0.0,0.0,0.0,0.0,0.0,0.0,0.0,0.0,0.0,0.0,0.0,0.0,0.0,0.0,0.0,0.0,0.0,0.0,0.0,0.0,0.0,0.0,0.0,0.0,0.0,0.0,0.0,0.0,0.0,0.0,0.0,0.0,0.0,0.0,0.0,0.0,0.0,0.0,0.0,0.0,0.0,0.0,0.0,0.0,0.0,0.0,0.0,0.0,0.0,0.0,0.0,0.0,0.0,0.0,0.0,0.0,0.0,0.0,0.0,0.0,0.0,0.0,0.0,0.0,0.0,0.0,0.0,0.0,0.0,0.0,0.0,0.0219,0.0317,0.0605,0.0,0.0,0.0,0.0,0.0,0.0,0.0,0.0,0.0,0.0,0.0,0.0,0.0,0.0,0.0,0.0,0.0,0.0,0.0,0.0,0.0,0.0,0.0,0.0,0.0,0.0,0.0,0.0,0.0,0.0,0.0,0.0,0.0,0.0,0.0,0.0,0.0,0.0,0.0,0.0,0.0,0.0,0.0,0.0,0.0,0.0,0.0,0.0,0.0,0.0,0.0,0.0,0.0,0.0,0.0,0.0,0.0,0.0,0.0,0.0,0.0,0.0,0.0,0.0,0.0,0.0,0.0,0.0,0.0,0.0,0.0,0.0,0.0,0.0,0.0,0.0,0.0,0.0,0.0,0.0,0.0,0.0,0.0,0.0,0.0,0.0,0.0,0.0,0.0,0.0,0.0,0.0,0.0,0.0,0.0,0.0,0.0,0.0,0.0,0.0,0.0,0.0,0.0,0.0,0.0,0.0,0.0,0.0,0.0,0.0,0.0897,0.0841,0.0783,0.0,0.0456,0.0,0.0,0.0,0.0,0.0,0.0,0.0,0.0,0.0,0.0,0.0,0.0,0.0,0.0,0.0,0.0,0.0,0.0,0.0,0.0,0.0,0.0,0.0,0.0,0.0,0.0,0.0,0.0,0.0,0.0,0.0,0.0,0.0,0.0,0.0,0.0,0.0,0.0,0.0,0.0,0.0,0.0,0.0,0.0,0.0,0.0,0.0,0.0,0.0,0.0,0.0,0.0,0.0,0.0,0.0,0.0,0.0,0.0,0.0,0.0,0.0,0.0,0.0,0.0,0.0,0.0,0.0,0.0,0.0,0.0,0.0,0.0,0.0,0.0,0.0,0.0,0.0,0.0,0.0,0.0,0.0,0.0,0.0,0.0,0.0,0.0,0.0,0.0,0.0,0.0,0.0,0.0,0.0,0.0,0.0,0.0,0.0,0.0,0.0,0.0,0.0,0.0,0.0,0.0,0.0,0.0,0.0,0.0,0.0,0.0,0.0785,0.0617,0.077,0.0798,0.0,0.0,0.0,0.0,0.0,0.0,0.0,0.0,0.0,0.0,0.0,0.0,0.0,0.0,0.0,0.0,0.0,0.0,0.0,0.0,0.0,0.0,0.0,0.0,0.0,0.0,0.0,0.0,0.0,0.0,0.0,0.0,0.0,0.0,0.0,0.0,0.0,0.0,0.0,0.0,0.0,0.0,0.0,0.0,0.0,0.0,0.0,0.0,0.0,0.0,0.0,0.0,0.0,0.0,0.0,0.0,0.0,0.0,0.0,0.0,0.0,0.0,0.0,0.0,0.0,0.0,0.0,0.0,0.0,0.0,0.0,0.0,0.0,0.0,0.0,0.0,0.0,0.0,0.0,0.0,0.0,0.0,0.0,0.0,0.0,0.0,0.0,0.0,0.0,0.0,0.0,0.0,0.0,0.0,0.0,0.0,0.0,0.0,0.0,0.0,0.0,0.0,0.0,0.0,0.0,0.0,0.0,0.0,0.0,0.0,0.1019,0.091,0.0682,0.0881,0.0899,0.0808,0.0,0.0,0.0,0.0,0.0,0.0,0.0,0.0,0.0,0.0,0.0,0.0,0.0,0.0,0.0,0.0,0.0,0.0,0.0,0.0,0.0,0.0,0.0,0.0,0.0,0.0,0.0,0.0,0.0,0.0,0.0,0.0,0.0,0.0,0.0,0.0,0.0,0.0,0.0,0.0,0.0,0.0,0.0,0.0,0.0,0.0,0.0,0.0,0.0,0.0,0.0,0.0,0.0,0.0,0.0,0.0,0.0,0.0,0.0,0.0,0.0,0.0,0.0,0.0,0.0,0.0,0.0,0.0,0.0,0.0,0.0,0.0,0.0,0.0,0.0,0.0,0.0,0.0,0.0,0.0,0.0,0.0,0.0,0.0,0.0,0.0,0.0,0.0,0.0,0.0,0.0,0.0,0.0,0.0,0.0,0.0,0.0,0.0,0.0,0.0,0.0,0.0,0.0,0.0,0.0,0.0,0.0,0.0,0.0896,0.1273,0.1412,0.1233,0.1139,0.0976,0.0,0.0,0.0,0.0,0.0,0.0,0.0,0.0,0.0,0.0,0.0,0.0,0.0,0.0,0.0,0.0,0.0,0.0,0.0,0.0,0.0,0.0,0.0,0.0,0.0,0.0,0.0,0.0,0.0,0.0,0.0,0.0,0.0,0.0,0.0,0.0,0.0,0.0,0.0,0.0,0.0,0.0,0.0,0.0,0.0,0.0,0.0,0.0,0.0,0.0,0.0,0.0,0.0,0.0,0.0,0.0,0.0,0.0,0.0,0.0,0.0,0.0,0.0,0.0,0.0,0.0,0.0,0.0,0.0,0.0,0.0,0.0,0.0,0.0,0.0,0.0,0.0,0.0,0.0,0.0,0.0,0.0,0.0,0.0,0.0,0.0,0.0,0.0,0.0,0.0,0.0,0.0,0.0,0.0,0.0,0.0,0.0,0.0,0.0,0.0,0.0,0.0,0.0,0.0,0.0,0.0,0.0,0.0,0.0,0.1174,0.1447,0.1516,0.1316,0.1438,0.1332,0.0,0.0,0.0,0.0,0.0,0.0,0.0,0.0,0.0,0.0,0.0,0.0,0.0,0.0,0.0,0.0,0.0,0.0,0.0,0.0,0.0,0.0,0.0,0.0,0.0,0.0,0.0,0.0,0.0,0.0,0.0,0.0,0.0,0.0,0.0,0.0,0.0,0.0,0.0,0.0,0.0,0.0,0.0,0.0,0.0,0.0,0.0,0.0,0.0,0.0,0.0,0.0,0.0,0.0,0.0,0.0,0.0,0.0,0.0,0.0,0.0,0.0,0.0,0.0,0.0,0.0,0.0,0.0,0.0,0.0,0.0,0.0,0.0,0.0,0.0,0.0,0.0,0.0,0.0,0.0,0.0,0.0,0.0,0.0,0.0,0.0,0.0,0.0,0.0,0.0,0.0,0.0,0.0,0.0,0.0,0.0,0.0,0.0,0.0,0.0,0.0,0.0,0.0,0.0,0.0,0.0,0.0,0.0,0.0,0.1443,0.0,0.1704,0.1648,0.1704,0.1588,0.0,0.0,0.0,0.0,0.0,0.0,0.0,0.0,0.0,0.0,0.0,0.0,0.0,0.0,0.0,0.0,0.0,0.0,0.0,0.0,0.0,0.0,0.0,0.0,0.0,0.0,0.0,0.0,0.0,0.0,0.0,0.0,0.0,0.0,0.0,0.0,0.0,0.0,0.0,0.0,0.0,0.0,0.0,0.0,0.0,0.0,0.0,0.0,0.0,0.0,0.0,0.0,0.0,0.0,0.0,0.0,0.0,0.0,0.0,0.0,0.0,0.0,0.0,0.0,0.0,0.0,0.0,0.0,0.0,0.0,0.0,0.0,0.0,0.0,0.0,0.0,0.0,0.0,0.0,0.0,0.0,0.0,0.0,0.0,0.0,0.0,0.0,0.0,0.0,0.0,0.0,0.0,0.0,0.0,0.0,0.0,0.0,0.0,0.0,0.0,0.0,0.0,0.0,0.0,0.0,0.0,0.0,0.0,0.0895,0.1775,0.1852,0.2058,0.2375,0.2064,0.1739,0.0,0.0,0.0,0.0,0.0,0.0,0.0,0.0,0.0,0.0,0.0,0.0,0.0,0.0,0.0,0.0,0.0,0.0,0.0,0.0,0.0,0.0,0.0,0.0,0.0,0.0,0.0,0.0,0.0,0.0,0.0,0.0,0.0,0.0,0.0,0.0,0.0,0.0,0.0,0.0,0.0,0.0,0.0,0.0,0.0,0.0,0.0,0.0,0.0,0.0,0.0,0.0,0.0,0.0,0.0,0.0,0.0,0.0,0.0,0.0,0.0,0.0,0.0,0.0,0.0,0.0,0.0,0.0,0.0,0.0,0.0,0.0,0.0,0.0,0.0,0.0,0.0,0.0,0.0,0.0,0.0,0.0,0.0,0.0,0.0,0.0,0.0,0.0,0.0,0.0,0.0,0.0,0.0,0.0,0.0,0.0,0.0,0.0,0.0,0.0,0.0,0.0,0.0,0.0,0.0,0.0,0.0,0.0,0.0,0.2086,0.2474,0.2694,0.268,0.2575,0.2307,0.0,0.0,0.0,0.0,0.0,0.0,0.0,0.0,0.0,0.0,0.0,0.0,0.0,0.0,0.0,0.0,0.0,0.0,0.0,0.0,0.0,0.0,0.0,0.0,0.0,0.0,0.0,0.0,0.0,0.0,0.0,0.0,0.0,0.0,0.0,0.0,0.0,0.0,0.0,0.0,0.0,0.0,0.0,0.0,0.0,0.0,0.0,0.0,0.0,0.0,0.0,0.0,0.0,0.0,0.0,0.0,0.0,0.0,0.0,0.0,0.0,0.0,0.0,0.0,0.0,0.0,0.0,0.0,0.0,0.0,0.0,0.0,0.0,0.0,0.0,0.0,0.0,0.0,0.0,0.0,0.0,0.0,0.0,0.0,0.0,0.0,0.0,0.0,0.0,0.0,0.0,0.0,0.0,0.0,0.0,0.0,0.0,0.0,0.0,0.0,0.0,0.0,0.0,0.0,0.0,0.0,0.0,0.0,0.0,0.2782,0.2991,0.3082,0.3177,0.2989,0.2658,0.215,0.0,0.0,0.0,0.0,0.0,0.0,0.0,0.0,0.0,0.0,0.0,0.0,0.0,0.0,0.0,0.0,0.0,0.0,0.0,0.0,0.0,0.0,0.0,0.0,0.0,0.0,0.0,0.0,0.0,0.0,0.0,0.0,0.0,0.0,0.0,0.0,0.0,0.0,0.0,0.0,0.0,0.0,0.0,0.0,0.0,0.0,0.0,0.0,0.0,0.0,0.0,0.0,0.0,0.0,0.0,0.0,0.0,0.0,0.0,0.0,0.0,0.0,0.0,0.0,0.0,0.0,0.0,0.0,0.0,0.0,0.0,0.0,0.0,0.0,0.0,0.0,0.0,0.0,0.0,0.0,0.0,0.0,0.0,0.0,0.0,0.0,0.0,0.0,0.0,0.0,0.0,0.0,0.0,0.0,0.0,0.0,0.0,0.0,0.0,0.0,0.0,0.0,0.0,0.0,0.0,0.0,0.0,0.0,0.3889,0.3412,0.3412,0.3825,0.3316,0.2903,0.0,0.0,0.0,0.0,0.0,0.0,0.0,0.0,0.0,0.0,0.0,0.0,0.0,0.0,0.0,0.0,0.0,0.0,0.0,0.0,0.0,0.0,0.0,0.0,0.0,0.0,0.0,0.0,0.0,0.0,0.0,0.0,0.0,0.0,0.0,0.0,0.0,0.0,0.0,0.0,0.0,0.0,0.0,0.0,0.0,0.0,0.0,0.0,0.0,0.0,0.0,0.0,0.0,0.0,0.0,0.0,0.0,0.0,0.0,0.0,0.0,0.0,0.0,0.0,0.0,0.0,0.0,0.0,0.0,0.0,0.0,0.0,0.0,0.0,0.0,0.0,0.0,0.0,0.0,0.0,0.0,0.0,0.0,0.0,0.0,0.0,0.0,0.0,0.0,0.0,0.0,0.0,0.0,0.0,0.0,0.0,0.0,0.0,0.0,0.0,0.0,0.0,0.0,0.0,0.0,0.0,0.0,0.0,0.0,0.3823,0.4161,0.4274,0.4285,0.3877,0.3345,0.0,0.0,0.0,0.0,0.0,0.0,0.0,0.0,0.0,0.0,0.0,0.0,0.0,0.0,0.0,0.0,0.0,0.0,0.0,0.0,0.0,0.0,0.0,0.0,0.0,0.0,0.0,0.0,0.0,0.0,0.0,0.0,0.0,0.0,0.0,0.0,0.0,0.0,0.0,0.0,0.0,0.0,0.0,0.0,0.0,0.0,0.0,0.0,0.0,0.0,0.0,0.0,0.0,0.0,0.0,0.0,0.0,0.0,0.0,0.0,0.0,0.0,0.0,0.0,0.0,0.0,0.0,0.0,0.0,0.0,0.0,0.0,0.0,0.0,0.0,0.0,0.0,0.0,0.0,0.0,0.0,0.0,0.0,0.0,0.0,0.0,0.0,0.0,0.0,0.0,0.0,0.0,0.0,0.0,0.0,0.0,0.0,0.0,0.0,0.0,0.0,0.0,0.0,0.0,0.0,0.0,0.0,0.0,0.3489,0.4442,0.4945,0.5085,0.4991,0.4367,0.3682,0.0,0.0,0.0,0.0,0.0,0.0,0.0,0.0,0.0,0.0,0.0,0.0,0.0,0.0,0.0,0.0,0.0,0.0,0.0,0.0,0.0,0.0,0.0,0.0,0.0,0.0,0.0,0.0,0.0,0.0,0.0,0.0,0.0,0.0,0.0,0.0,0.0,0.0,0.0,0.0,0.0,0.0,0.0,0.0,0.0,0.0,0.0,0.0,0.0,0.0,0.0,0.0,0.0,0.0,0.0,0.0,0.0,0.0,0.0,0.0,0.0,0.0,0.0,0.0,0.0,0.0,0.0,0.0,0.0,0.0,0.0,0.0,0.0,0.0,0.0,0.0,0.0,0.0,0.0,0.0,0.0,0.0,0.0,0.0,0.0,0.0,0.0,0.0,0.0,0.0,0.0,0.0,0.0,0.0,0.0,0.0,0.0,0.0,0.0,0.0,0.0,0.0,0.0,0.0,0.0,0.0,0.0,0.0,0.4062,0.5214,0.5598,0.5819,0.5718,0.4722,0.3867,0.0,0.0,0.0,0.0,0.0,0.0,0.0,0.0,0.0,0.0,0.0,0.0,0.0,0.0,0.0,0.0,0.0,0.0,0.0,0.0,0.0,0.0,0.0,0.0,0.0,0.0,0.0,0.0,0.0,0.0,0.0,0.0,0.0,0.0,0.0,0.0,0.0,0.0,0.0,0.0,0.0,0.0,0.0,0.0,0.0,0.0,0.0,0.0,0.0,0.0,0.0,0.0,0.0,0.0,0.0,0.0,0.0,0.0,0.0,0.0,0.0,0.0,0.0,0.0,0.0,0.0,0.0,0.0,0.0,0.0,0.0,0.0,0.0,0.0,0.0,0.0,0.0,0.0,0.0,0.0,0.0,0.0,0.0,0.0,0.0,0.0,0.0,0.0,0.0,0.0,0.0,0.0,0.0,0.0,0.0,0.0,0.0,0.0,0.0,0.0,0.0,0.0,0.0,0.0,0.0,0.0,0.0,0.0,0.4395,0.5345,0.5662,0.5964,0.6109,0.522,0.4359,0.0,0.0,0.0,0.0,0.0,0.0,0.0,0.0,0.0,0.0,0.0,0.0,0.0,0.0,0.0,0.0,0.0,0.0,0.0,0.0,0.0,0.0,0.0,0.0,0.0,0.0,0.0,0.0,0.0,0.0,0.0,0.0,0.0,0.0,0.0,0.0,0.0,0.0,0.0,0.0,0.0,0.0,0.0,0.0,0.0,0.0,0.0,0.0,0.0895,0.0,0.0,0.0,0.0,0.0,0.0,0.0,0.0,0.0,0.0,0.0,0.0,0.0,0.0,0.0,0.0,0.0,0.0,0.0,0.0,0.0,0.0,0.0,0.0,0.0,0.0,0.0,0.0,0.0,0.0,0.0,0.0,0.0,0.0,0.0,0.0,0.0,0.0,0.0,0.0,0.0,0.0,0.0,0.0,0.0,0.0,0.0,0.0,0.0,0.0,0.0,0.0,0.0,0.0,0.0,0.0,0.0,0.0,0.0,0.4938,0.5714,0.6041,0.6188,0.6228,0.5544,0.4649,0.0,0.0,0.0,0.0,0.0,0.0,0.0,0.0,0.0,0.0,0.0,0.0,0.0,0.0,0.0,0.0,0.0,0.0,0.0,0.0,0.0,0.0,0.0,0.0,0.0,0.0,0.0,0.0,0.0,0.0,0.0,0.0,0.0,0.0,0.0,0.0,0.0,0.0,0.0,0.0,0.0,0.0,0.0,0.0,0.0,0.0,0.0,0.0,0.0,0.0,0.0,0.0,0.0,0.0,0.0,0.0,0.0,0.0,0.0,0.0,0.0,0.0,0.0,0.0,0.0,0.0,0.0,0.0,0.0,0.0,0.0,0.0,0.0,0.0,0.0,0.0,0.0,0.0,0.0,0.0,0.0,0.0,0.0,0.0,0.0,0.0,0.0,0.0,0.0,0.0,0.0,0.0,0.0,0.0,0.0,0.0,0.0,0.0,0.0,0.0,0.0,0.0,0.0,0.0,0.0,0.0,0.0,0.4528,0.5413,0.6173,0.6408,0.6458,0.643,0.574,0.4889,0.4033,0.0,0.0,0.0,0.0,0.0,0.0,0.0,0.0,0.0,0.0,0.0,0.0,0.0,0.0,0.0,0.0,0.0,0.0,0.0,0.0,0.0,0.0,0.0,0.0,0.0,0.0,0.0,0.0,0.0,0.0,0.0,0.0,0.0,0.0,0.0,0.0,0.0,0.0,0.0686,0.0877,0.0,0.0,0.0,0.0,0.0,0.0,0.0,0.0,0.0954,0.0,0.0,0.0,0.0,0.0,0.0,0.0,0.0,0.0,0.0,0.0,0.0,0.0,0.0,0.0,0.0,0.0,0.0,0.0,0.0,0.0,0.0,0.0,0.0,0.0,0.0,0.0,0.0,0.0,0.0,0.0,0.0,0.0,0.0,0.0,0.0,0.0,0.0,0.0,0.0,0.0,0.0,0.0,0.0,0.0,0.0,0.0,0.0,0.0,0.0,0.0,0.0,0.0,0.0,0.0,0.0,0.413,0.4829,0.5535,0.6312,0.6455,0.6542,0.6592,0.5894,0.5173,0.4567,0.0,0.0,0.0,0.0,0.0,0.0,0.0,0.0,0.0,0.0,0.0,0.0,0.0,0.0,0.0,0.0,0.0,0.0,0.0,0.0,0.0,0.0,0.0,0.0,0.0,0.0,0.0,0.0,0.0,0.0,0.0,0.0,0.0,0.0,0.0,0.0,0.0,0.0,0.0,0.1235,0.1659,0.0,0.0,0.0,0.0,0.0,0.0,0.0,0.0,0.1008,0.0,0.0,0.0,0.0,0.0,0.0,0.0,0.0,0.0,0.0,0.0,0.0,0.0,0.0,0.0,0.0,0.0,0.0,0.0,0.0,0.0,0.0,0.0,0.0,0.0,0.0,0.0,0.0,0.0,0.0,0.0,0.0,0.0,0.0,0.0,0.0,0.0,0.0,0.0,0.0,0.0,0.0,0.0,0.0,0.0,0.0,0.0,0.0,0.0,0.0,0.0,0.0,0.0,0.0,0.0,0.4668,0.5216,0.5819,0.6397,0.6508,0.6471,0.6464,0.5816,0.5215,0.0,0.0,0.0,0.0,0.0,0.0,0.0,0.0,0.0,0.0,0.0,0.0,0.0,0.0,0.0,0.0,0.0,0.0,0.0,0.0,0.0,0.0,0.0,0.0,0.0,0.0,0.0,0.0,0.0,0.0,0.0,0.0,0.0,0.0,0.0,0.0,0.0,0.0,0.0,0.0,0.1371,0.1781,0.1789,0.0,0.0,0.0,0.0,0.0,0.0,0.1234,0.1178,0.0,0.0,0.0,0.0,0.0,0.0,0.0,0.0,0.0,0.0,0.0,0.0,0.0,0.0,0.0,0.0,0.0,0.0,0.0,0.0,0.0,0.0,0.0,0.0,0.0,0.0,0.0,0.0,0.0,0.0,0.0,0.0,0.0,0.0,0.0,0.0,0.0,0.0,0.0,0.0,0.0,0.0,0.0,0.0,0.0,0.0,0.0,0.0,0.0,0.0,0.0,0.0,0.0,0.0,0.0,0.5196,0.5625,0.6046,0.6461,0.6474,0.6482,0.6335,0.5895,0.5319,0.0,0.0,0.0,0.0,0.0,0.0,0.0,0.0,0.0,0.0,0.0,0.0,0.0,0.0,0.0,0.0,0.0,0.0,0.0,0.0,0.0,0.0,0.0,0.0,0.0,0.0,0.0,0.0,0.0,0.0,0.0,0.0,0.0,0.0,0.0,0.0,0.0,0.0,0.0,0.0,0.0,0.176,0.1808,0.1654,0.0,0.0,0.0,0.0,0.1487,0.1488,0.0,0.0,0.0,0.0,0.0,0.0,0.0,0.0,0.0,0.0,0.0,0.0,0.0,0.0,0.0,0.0,0.0,0.0,0.0,0.0,0.0,0.0,0.0,0.0,0.0,0.0,0.0,0.0,0.0,0.0,0.0,0.0,0.0,0.0,0.0,0.0,0.0,0.0,0.0,0.0,0.0,0.0,0.0,0.0,0.0,0.0,0.0,0.0,0.0,0.0,0.0,0.0,0.0,0.0,0.0,0.0,0.5418,0.5773,0.6149,0.6464,0.6474,0.6479,0.6486,0.6187,0.5734,0.0,0.0,0.0,0.0,0.0,0.0,0.0,0.0,0.0,0.0,0.0,0.0,0.0,0.0,0.0,0.0,0.0,0.0,0.0,0.0,0.0,0.0,0.0,0.0,0.0,0.0,0.0,0.0,0.0,0.0,0.0,0.0,0.0,0.0,0.0,0.0,0.0,0.0,0.0,0.0,0.0,0.1518,0.1759,0.174,0.1829,0.0,0.0,0.1952,0.2135,0.2197,0.0,0.0,0.0,0.0,0.0,0.0,0.0,0.0,0.0,0.0,0.0,0.0,0.0,0.0,0.0,0.0,0.0,0.0,0.0,0.0,0.0,0.0,0.0,0.0,0.0,0.0,0.0,0.0,0.0,0.0,0.0,0.0,0.0,0.0,0.0,0.0,0.0,0.0,0.0,0.0,0.0,0.0,0.0,0.0,0.0,0.0,0.0,0.0,0.0,0.0,0.0,0.0,0.0,0.0,0.0,0.5153,0.5649,0.5868,0.6123,0.6346,0.6352,0.6395,0.6229,0.6168,0.5834,0.0,0.0,0.0,0.0,0.0,0.0,0.0,0.0,0.0,0.0,0.0,0.0,0.0,0.0,0.0,0.0,0.0,0.0,0.0,0.0,0.0,0.0,0.0,0.0,0.0,0.0,0.0,0.0,0.0,0.0,0.0,0.0,0.0,0.0,0.0,0.0,0.0,0.0,0.0,0.0,0.0,0.0,0.1931,0.2017,0.0,0.0,0.0,0.2461,0.2586,0.0,0.0,0.0,0.0,0.0,0.0,0.0,0.0,0.0,0.0,0.0,0.0,0.0,0.0,0.0,0.0,0.0,0.0,0.0,0.0,0.0,0.0,0.0,0.0,0.0,0.0,0.0,0.0,0.0,0.0,0.0,0.0,0.0,0.0,0.0,0.0,0.0,0.0,0.0,0.0,0.0,0.0,0.0,0.0,0.0,0.0,0.0,0.0,0.0,0.0,0.0,0.0,0.0,0.0,0.0,0.0,0.0,0.5796,0.5989,0.6146,0.6254,0.6338,0.6266,0.618,0.6241,0.0,0.0,0.0,0.0,0.0,0.0,0.0,0.0,0.0,0.0,0.0,0.0,0.0,0.0,0.0,0.0,0.0,0.0,0.0,0.0,0.0,0.0,0.0,0.0,0.0,0.0,0.0,0.2806,0.0,0.0,0.0,0.0,0.0,0.0,0.0,0.0,0.0,0.0,0.0,0.0,0.0,0.0,0.1703,0.2113,0.2321,0.2523,0.0,0.0,0.2959,0.3019,0.3147,0.3117,0.0,0.0,0.0,0.0,0.0,0.0,0.0,0.0,0.0,0.0,0.0,0.0,0.0,0.0,0.0,0.0,0.0,0.0,0.0,0.0,0.0,0.0,0.0,0.0,0.0,0.0,0.0,0.0,0.0,0.0,0.0,0.0,0.0,0.0,0.0,0.0,0.0,0.0,0.0,0.0,0.0,0.0,0.0,0.0,0.0,0.0,0.0,0.0,0.0,0.0,0.0,0.0,0.0,0.0,0.564,0.5803,0.6095,0.6247,0.6338,0.6486,0.6486,0.6316,0.6452,0.6279,0.0,0.0,0.0,0.0,0.0,0.0,0.0,0.0,0.0,0.0,0.0,0.0,0.0,0.0,0.0,0.0,0.0,0.0,0.0,0.0,0.0,0.0,0.0,0.0,0.0,0.0,0.0,0.0,0.0,0.0,0.0,0.0,0.0,0.0,0.0,0.0,0.0,0.0,0.0,0.0,0.0,0.2053,0.2186,0.263,0.3141,0.0,0.3547,0.3544,0.3735,0.3735,0.357,0.3149,0.0,0.0,0.0,0.0,0.0,0.0,0.0,0.0,0.0,0.0,0.0,0.0,0.0,0.0,0.0,0.0,0.0,0.0,0.0,0.0,0.0,0.0,0.0,0.0,0.0,0.0,0.0,0.0,0.0,0.0,0.0,0.0,0.0,0.0,0.0,0.0,0.0,0.0,0.0,0.0,0.0,0.0,0.0,0.0,0.0,0.0,0.0,0.0,0.0,0.0,0.0,0.0,0.0,0.5661,0.5803,0.6105,0.6338,0.649,0.6563,0.6561,0.6459,0.6527,0.6329,0.0,0.0,0.0,0.0,0.0,0.0,0.0,0.0,0.0,0.0,0.0,0.0,0.0,0.0,0.0,0.0,0.0,0.0,0.0,0.0,0.0,0.0,0.0,0.0,0.0,0.0,0.0,0.0,0.2892,0.2691,0.2635,0.0,0.0,0.0,0.0,0.0,0.0,0.0,0.0,0.0,0.0,0.2611,0.2768,0.3111,0.0,0.0,0.3871,0.3761,0.3894,0.3894,0.3791,0.3494,0.3189,0.0,0.0,0.0,0.0,0.0,0.0,0.0,0.0,0.0,0.0,0.0,0.0,0.0,0.0,0.0,0.0,0.0,0.0,0.0,0.0,0.0,0.0,0.0,0.0,0.0,0.0,0.0,0.0,0.0,0.0,0.0,0.0,0.0,0.0,0.0,0.0,0.0,0.0,0.0,0.0,0.0,0.0,0.0,0.0,0.0,0.0,0.0,0.0,0.0,0.0,0.0,0.0,0.5725,0.5867,0.6129,0.6412,0.6563,0.6637,0.6636,0.6614,0.667,0.6498,0.0,0.0,0.0,0.0,0.0,0.0,0.0,0.0,0.0,0.0,0.0,0.0,0.0,0.0,0.0,0.0,0.0,0.0,0.0,0.0,0.0,0.0,0.0,0.0,0.0,0.0,0.0,0.0,0.3023,0.28,0.28,0.0,0.0,0.0,0.0,0.0,0.0,0.0,0.0,0.0,0.0,0.335,0.3689,0.3795,0.3961,0.4391,0.4219,0.4074,0.4144,0.4048,0.3936,0.3666,0.0,0.0,0.0,0.0,0.0,0.0,0.0,0.0,0.0,0.0,0.0,0.0,0.0,0.0,0.0,0.0,0.0,0.0,0.0,0.0,0.0,0.0,0.0,0.0,0.0,0.0,0.0,0.4079,0.0,0.0,0.4278,0.0,0.0,0.0,0.0,0.0,0.0,0.0,0.0,0.0,0.0,0.0,0.0,0.0,0.0,0.0,0.0,0.0,0.0,0.0,0.0,0.0,0.0,0.5871,0.5949,0.6183,0.6412,0.6567,0.6791,0.6783,0.6614,0.6885,0.6765,0.6227,0.0,0.0,0.0,0.0,0.0,0.0,0.0,0.0,0.0,0.0,0.0,0.0,0.0,0.0,0.0,0.0,0.0,0.0,0.0,0.0,0.0,0.0,0.0,0.0,0.0,0.0,0.3355,0.3132,0.3023,0.0,0.0,0.0,0.0,0.0,0.0,0.0,0.0,0.0,0.2546,0.3441,0.4364,0.4893,0.4806,0.4648,0.4651,0.4545,0.4466,0.4469,0.4238,0.3961,0.0,0.0,0.0,0.0,0.0,0.0,0.0,0.0,0.0,0.0,0.0,0.0,0.0,0.0,0.0,0.0,0.0,0.0,0.0,0.0,0.0,0.0,0.0,0.0,0.0,0.0,0.0,0.53,0.5161,0.0,0.0,0.0,0.0,0.0,0.0,0.0,0.0,0.0,0.0,0.0,0.6284,0.6463,0.0,0.0,0.0,0.0,0.0,0.0,0.0,0.0,0.0,0.0,0.0,0.0,0.6027,0.6176,0.6384,0.6613,0.6946,0.7083,0.7017,0.6897,0.6952,0.6769,0.6227,0.0,0.0,0.0,0.0,0.0,0.0,0.0,0.0,0.0,0.0,0.0,0.0,0.0,0.0,0.0,0.0,0.0,0.0,0.0,0.0,0.0,0.0,0.0,0.0,0.0,0.3585,0.0,0.0,0.0,0.0,0.0,0.0,0.0,0.0,0.0,0.0,0.3457,0.3538,0.3587,0.4232,0.4958,0.573,0.5277,0.4916,0.0,0.0,0.0,0.0,0.0,0.0,0.0,0.0,0.0,0.0,0.0,0.0,0.0,0.0,0.6523,0.5352,0.5328,0.551,0.5631,0.0,0.0,0.0,0.0,0.0,0.0,0.0,0.0,0.0,0.0,0.0,0.0,0.0,0.0,0.6269,0.0,0.6164,0.0,0.0,0.0,0.0,0.0,0.0,0.0,0.0,0.6542,0.686,0.7125,0.7319,0.7304,0.0,0.7086,0.6678,0.0,0.0,0.0,0.0,0.0,0.0,0.0,0.0,0.6186,0.6407,0.662,0.6907,0.7107,0.7246,0.7183,0.7062,0.6928,0.6668,0.6254,0.6117,0.5998,0.0,0.0,0.0,0.0,0.0,0.0,0.0,0.0,0.0,0.0,0.0,0.0,0.0,0.0,0.0,0.0,0.0,0.0,0.0,0.0,0.0,0.0,0.0,0.359,0.0,0.0,0.0,0.0,0.0,0.0,0.0,0.0,0.0,0.3923,0.4051,0.4139,0.4317,0.4889,0.5539,0.6183,0.0,0.0,0.0,0.0,0.0,0.0,0.0,0.4396,0.4396,0.4194,0.4025,0.4021,0.4796,0.5639,0.644,0.0,0.0,0.6526,0.6438,0.657,0.6757,0.6826,0.6753,0.6217,0.6472,0.7026,0.0,0.0,0.0,0.0,0.0,0.0,0.0,0.0,0.7132,0.7128,0.0,0.7124,0.0,0.0,0.0,0.0,0.6448,0.6659,0.0,0.0,0.7539,0.7757,0.7985,0.8208,0.8203,0.7985,0.778,0.749,0.7064,0.6489,0.0,0.0,0.0,0.0,0.0,0.0,0.6417,0.6568,0.6948,0.7118,0.714,0.7274,0.7344,0.7228,0.6887,0.6627,0.6448,0.644,0.637,0.6226,0.6016,0.0,0.0,0.0,0.0,0.0,0.0,0.0,0.0,0.0,0.0,0.0,0.0,0.0,0.0,0.0,0.0,0.0,0.0,0.0,0.0,0.3683,0.0,0.0,0.0,0.0,0.0,0.0,0.0,0.0,0.0,0.4912,0.4529,0.4652,0.4697,0.4726,0.0,0.0,0.0,0.0,0.5799,0.5649,0.5539,0.5376,0.515,0.4891,0.4737,0.4737,0.0,0.0,0.5516,0.6682,0.7423,0.7401,0.8441,0.9009,0.7886,0.7976,0.8187,0.8187,0.8163,0.8056,0.7672,0.7743,0.8162,1.0802,0.0,0.0,0.0,0.0,0.8818,0.8908,0.9198,0.9029,0.888,0.8746,0.8571,0.0,0.0,0.0,0.0,0.0,0.0,0.8379,0.8533,0.8983,0.9286,0.9525,0.9828,0.9823,0.9438,0.9438,0.9051,0.8501,0.8186,0.7447,0.6241,0.0,0.0,0.0,0.0,0.7024,0.7272,0.7477,0.7564,0.7636,0.7647,0.7512,0.7236,0.7001,0.6855,0.6872,0.6802,0.6802,0.6798,0.6545,0.0,0.0,0.0,0.0,0.0,0.0,0.0,0.0,0.0,0.0,0.0,0.0,0.0,0.0,0.0,0.0,0.0,0.0,0.0,0.4303,0.4027,0.3801,0.0,0.0,0.0,0.0,0.0,0.0,0.0,0.0,0.0,0.5748,0.5469,0.5238,0.0,0.0,0.6175,0.6255,0.6093,0.6072,0.6325,0.6131,0.0,0.5782,0.5593,0.5445,0.5445,0.5202,0.5353,0.6397,0.755,0.8318,0.83,0.9299,0.9983,0.9406,0.9001,0.8886,0.8931,0.9071,0.898,0.8524,0.8819,0.9469,1.2899,1.1549,1.0792,1.0477,1.0442,1.0447,1.0526,1.0653,1.0491,1.0423,1.0279,0.9999,0.9722,0.9498,0.9331,0.0,0.0,0.0,0.9587,0.9582,1.0298,1.0697,1.0795,1.1084,1.1067,1.0736,1.0646,1.0357,0.978,0.9524,0.8909,0.7912,0.0,0.0,0.7379,0.7465,0.7567,0.7758,0.7828,0.7912,0.7862,0.7865,0.759,0.724,0.7119,0.7025,0.7027,0.7019,0.7019,0.7023,0.6885,0.6682,0.0,0.0,0.0,0.0,0.0,0.0,0.0,0.0,0.0,0.0,0.0,0.4413,0.4416,0.0,0.0,0.0,0.4442,0.4522,0.464,0.4432,0.0,0.0,0.0,0.0,0.0,0.0,0.0,0.6099,0.6186,0.6345,0.6863,0.6513,0.6123,0.573,0.6169,0.6566,0.6644,0.0,0.6443,0.6785,0.6622,0.6456,0.637,0.6147,0.6032,0.6115,0.6025,0.6342,0.7455,0.8271,0.8826,0.9279,0.9997,1.0477,1.0299,0.9968,0.9702,0.978,0.9852,0.9835,0.9443,0.9752,1.0271,1.4637,1.4404,1.3354,1.2585,1.2095,1.2089,1.1916,1.1662,1.1673,1.1668,1.164,1.1352,1.1242,1.1204,1.0728,0.0,1.0695,1.0879,1.0724,1.0381,1.1462,1.2003,1.2095,1.2175,1.2169,1.1991,1.1685,1.1405,1.1052,1.076,1.049,1.0331,0.9092,0.8421,0.8317,0.8235,0.8154,0.8177,0.8245,0.8154,0.7975,0.7881,0.7614,0.7285,0.7253,0.7167,0.7077,0.7068,0.7064,0.7068,0.7064,0.684,0.6456,0.0,0.0,0.0,0.0,0.0,0.0,0.0,0.0,0.0,0.0,0.0,0.0,0.0,0.0,0.4574,0.464,0.0,0.4916,0.4894,0.0,0.0,0.0,0.6039,0.6414,0.6115,0.6165,0.6994,0.0,0.0,0.7795,0.7697,0.7301,0.6498,0.6866,0.713,0.7145,0.6902,0.6822,0.7014,0.709,0.7083,0.6853,0.6642,0.6605,0.6754,0.684,0.7297,0.8461,0.8912,0.935,1.0053,1.0418,1.0576,1.0773,1.0743,1.0738,1.0565,1.0571,1.0571,1.0456,1.0519,1.0615,1.6195,1.6077,1.5842,1.4803,1.341,1.3398,1.341,1.3338,1.3188,1.2989,1.2788,1.2558,1.2327,1.215,1.2082,1.2001,1.2068,1.2248,1.2165,1.1923,1.2771,1.3249,1.3344,1.3684,1.3665,1.3391,1.3337,1.3123,1.2939,1.2697,1.2409,1.2248,1.1709,1.0911,0.9909,0.9652,0.9562,0.9717,0.94,0.8906,0.842,0.8146,0.7849,0.7638,0.7496,0.7403,0.7358,0.7354,0.7354,0.7358,0.7358,0.7277,0.7033,0.6718,0.0,0.0,0.0,0.0,0.0,0.0,0.0,0.0,0.0,0.5128,0.5199,0.0,0.5378,0.0,0.5519,0.574,0.5962,0.557,0.0,0.0,0.6215,0.6809,0.7233,0.6942,0.6923,0.7546,0.7842,0.8199,0.8532,0.8715,0.8555,0.7704,0.7502,0.7374,0.7126,0.7056,0.7037,0.7118,0.7114,0.7215,0.7378,0.7368,0.733,0.7278,0.7244,0.7737,0.9169,1.0121,1.0568,1.0194,1.0572,1.0827,1.0781,1.0866,1.1049,1.1111,1.1031,1.0956,1.0938,1.0944,1.1007,1.6707,1.6707,1.6707,1.6032,1.4975,1.4754,1.4447,1.4272,1.406,1.3854,1.3671,1.345,1.3158,1.295,1.2939,1.3003,1.3121,1.325,1.3373,1.3467,1.3863,1.4254,1.4458,1.4625,1.4606,1.4415,1.4283,1.4226,1.4037,1.3822,1.3592,1.3513,1.3353,1.2808,1.1912,1.1111,1.0639,1.057,0.9841,0.9203,0.8744,0.8369,0.802,0.7768,0.7659,0.7565,0.7484,0.748,0.748,0.748,0.748,0.7403,0.7162,0.6984,0.6781,0.0,0.0,0.0,0.0,0.0,0.0,0.0,0.0,0.0,0.0,0.0,0.621,0.6089,0.6183,0.6276,0.6294,0.5988,0.5801,0.5653,0.6842,0.7773,0.8032,0.7871,0.7953,0.844,0.8788,0.9105,0.9447,0.9576,0.9409,0.8952,0.8644,0.8315,0.7805,0.7446,0.7139,0.7139,0.7139,0.7231,0.7591,0.7861,0.8107,0.8183,0.8227,0.8724,0.9932,1.0797,1.1144,1.0833,1.1324,1.1606,1.1062,1.1165,1.1419,1.1366,1.1409,1.1323,1.1149,1.1242,1.1335,1.682,1.682,1.6814,1.6713,1.6472,1.5812,1.5329,1.4768,1.452,1.4394,1.4382,1.4151,1.392,1.3707,1.3707,1.3743,1.3954,1.3954,1.4276,1.479,1.479,1.4987,1.5389,1.528,1.5172,1.5166,1.5003,1.4788,1.4868,1.4636,1.4521,1.4436,1.4402,1.4334,1.4042,1.2516,1.1585,1.1116,0.9989,0.9349,0.9076,0.8603,0.8238,0.7813,0.7852,0.7675,0.7492,0.748,0.748,0.748,0.748,0.7419,0.7269,0.7084,0.6931,0.0,0.6535,0.0,0.0,0.0,0.0,0.0,0.0,0.0,0.0,0.7019,0.7032,0.6901,0.6833,0.6694,0.6353,0.6478,0.6325,0.5793,0.7534,0.8832,0.8947,0.8926,0.9109,0.9454,0.9722,1.01,1.035,1.0338,1.0264,1.0144,0.9831,0.941,0.8819,0.7933,0.7312,0.7136,0.7228,0.758,0.7937,0.8372,0.8886,0.9244,0.9287,0.9826,1.0875,1.1341,1.1539,1.1744,1.2062,1.2221,1.1444,1.1516,1.1682,1.1527,1.1632,1.162,1.1292,1.1459,1.1706,1.7422,1.7415,1.7415,1.7198,1.6819,1.6414,1.5664,1.479,1.4684,1.4592,1.4682,1.4829,1.488,1.4735,1.4539,1.4469,1.4512,1.4321,1.4447,1.479,1.4987,1.5274,1.5668,1.5648,1.5642,1.5635,1.5576,1.5556,1.5556,1.5503,1.5477,1.5289,1.5246,1.5184,1.481,0.0,0.0,0.0,1.0877,1.0206,0.9456,0.9034,0.8593,0.7979,0.7829,0.0,0.7496,0.748,0.748,0.748,0.748,0.0,0.0,0.0,0.0,0.0,0.0,0.0,0.0,0.0,0.0,0.0,0.8114,0.8069,0.7468,0.7588,0.7731,0.7797,0.7673,0.759,0.7589,0.7387,0.7239,0.7163,0.8376,0.9428,1.0099,0.9817,0.9711,1.0134,1.0685,1.11,1.116,1.1319,1.1273,1.1052,1.0636,1.0294,0.9781,0.8899,0.8013,0.7295,0.7834,0.8285,0.846,0.8986,0.9515,0.9772,0.9826,1.0341,1.1419,1.21,1.2213,1.207,1.1987,1.2185,1.2165,1.1818,1.1583,1.1868,1.1929,1.1848,1.1675,1.1613,1.1787,1.7589,1.7589,1.7589,1.7522,0.0,1.6717,1.6164,1.5563,1.4967,1.4721,1.4688,1.4981,1.5083,1.5083,1.479,1.4688,1.4694,1.4598,1.4694,1.4987,1.5172,1.5458,1.5845,1.5838,1.5825,1.5825,1.5825,1.5825,1.5825,1.5825,1.5737,1.5635,1.5635,1.5547,1.5267,1.4682,1.3624,1.2175,1.1471,1.0787,1.0019,0.9461,0.8865,0.8325,0.8061,0.0,0.0,0.0,0.0,0.0,0.0,0.0,0.0,0.7479,0.0,0.7633,0.7555,0.7614,0.7855,0.803,0.8311,0.8627,0.9267,0.9426,0.8711,0.8692,0.8784,0.8904,0.8773,0.8494,0.8023,0.7857,0.8422,0.9838,0.9823,1.0027,1.0902,1.0745,1.0659,1.0958,1.1433,1.1674,1.1674,1.177,1.1768,1.1682,1.1241,1.0895,1.0549,0.9685,0.8723,0.8277,0.8552,0.8995,0.9078,0.9423,1.0033,1.0463,1.0433,1.0859,1.1854,1.2472,1.2601,1.2181,1.22,1.2233,1.2006,1.1966,1.1979,1.1974,1.2077,1.215,1.1996,1.1996,1.2003,1.7635,1.7589,1.7589,1.7602,1.751,1.7042,1.6698,1.6401,1.5338,0.0,0.0,1.5096,1.5267,1.5178,1.4975,1.4783,1.479,1.479,1.4885,1.5083,1.5356,1.5635,1.5825,1.5825,1.5825,1.5825,1.5825,1.5825,1.5825,1.5825,1.5825,1.5825,1.5825,1.573,1.5445,1.4879,1.401,1.3044,1.2081,1.1308,1.0631,0.9875,0.9229,0.8768,0.8321,0.8049,0.7844,0.761,0.7516,0.7484,0.748,0.75,0.7606,0.7769,0.793,0.8184,0.844,0.8586,0.8832,0.9087,0.9414,0.9658,1.039,1.0557,0.9879,0.9869,0.9861,0.9801,0.9735,0.939,0.8543,0.844,0.9548,1.2357,1.1341,1.0805,1.1729,1.1611,1.146,1.1807,1.198,1.2123,1.2112,1.2112,1.2123,1.2037,1.1768,1.1408,1.1154,1.0202,0.9432,0.9538,0.9542,0.962,0.9689,0.9986,1.0413,1.0989,1.1022,1.1267,1.2053,1.2499,1.2589,1.2282,1.2398,1.2153,1.1768,1.2011,1.2322,1.2136,1.2231,1.2305,1.2305,1.2305,1.2305,1.7822,1.7589,1.7589,1.7483,1.7285,1.7134,1.6866,1.6278,1.5918,1.5752,1.57,1.5747,1.5737,1.5743,1.5445,1.5261,1.5083,1.5083,1.5083,1.5083,1.5356,1.5635,1.5825,1.5825,1.5825,1.5825,1.5825,1.5825,1.5825,1.5825,1.5825,1.5825,1.5825,1.5737,1.554,1.5369,1.4892,1.4106,1.3108,1.2021,1.0853,1.0548,1.0062,0.9235,0.8768,0.8338,0.8087,0.7894,0.7646,0.7496,0.748,0.7631,0.8019,0.8032,0.8196,0.862,0.8887,0.9059,0.9327,0.9735,1.0222,1.0713,1.1042,1.1025,1.0595,1.0589,1.0444,1.0233,1.009,0.9907,0.9735,0.9725,1.0497,1.2345,1.2475,1.2351,1.2212,1.1975,1.1891,1.2263,1.251,1.2619,1.2534,1.254,1.254,1.2552,1.2283,1.2015,1.1391,1.0539,1.012,1.0415,1.0502,1.04,1.026,1.0549,1.0789,1.0942,1.1376,1.1694,1.1776,1.2207,1.2438,1.2258,1.175,1.1552,1.1723,1.186,1.2114,1.2164,1.2305,1.2305,1.2305,1.2305,1.2305,1.811,1.7842,1.7836,1.7636,1.7378,1.7378,1.7298,1.7036,1.6724,1.6454,1.611,1.6261,1.6219,1.6079,1.577,1.5595,1.5356,1.5356,1.5267,1.5356,1.554,1.573,1.5832,1.5825,1.5825,1.5825,1.5825,1.5825,1.5825,1.5825,1.5825,1.5825,1.5825,1.5737,1.5635,1.5553,1.5267,1.4688,1.3829,1.2838,1.1742,1.1145,1.0524,0.9869,0.9212,0.8716,0.8379,0.82,0.8112,0.8024,0.794,0.8138,0.838,0.8707,0.8959,0.9239,0.9668,1.005,1.0248,1.0674,1.1177,1.1683,1.185,1.1856,1.16,1.1398,1.1216,1.126,1.1109,1.1025,1.0936,1.0826,1.126,1.2523,1.2683,1.2624,1.253,1.2367,1.2403,1.251,1.2613,1.2705,1.2705,1.2705,1.2705,1.2717,1.2631,1.2328,1.177,1.1128,1.075,1.0982,1.0838,1.0655,1.0619,1.0695,1.0892,1.1198,1.1433,1.1611,1.1674,1.1926,1.1774,1.1824,1.1426,1.1295,1.1569,1.1909,1.2123,1.2083,1.2231,1.2305,1.2305,1.2305,1.2305,1.8527,1.8143,1.8076,1.7869,1.7589,1.7589,1.7589,1.7562,1.7335,1.7025,1.6609,1.668,1.658,1.638,1.617,1.5908,1.5665,1.5639,1.5606,1.5547,1.573,1.5825,1.5825,1.5825,1.5825,1.5825,1.5825,1.5825,1.5825,1.5825,1.5825,1.5825,1.5825,1.5825,1.5825,1.5635,1.5452,1.5172,1.4598,1.373,1.2658,1.1776,1.1099,1.06,0.9717,0.9141,0.8883,0.866,0.8482,0.844,0.844,0.8621,0.8904,0.9238,0.9659,1.0025,1.0562,1.0969,1.1391,1.1757,1.2192,1.2619,1.2619,1.2619,1.2516,1.2271,1.1983,1.2003,1.1935,1.1935,1.1837,1.1643,1.1832,1.2552,1.2729,1.2699,1.2705,1.2705,1.2705,1.2705,1.2705,1.2705,1.2705,1.2705,1.2705,1.2705,1.2674,1.256,1.2218,1.1692,1.1316,1.1174,1.0958,1.0845,1.0968,1.0871,1.098,1.1438,1.135,1.137,1.1528,1.137,1.1239,1.1384,1.1266,1.1176,1.1378,1.1651,1.1955,1.2003,1.2157,1.2231,1.2311,1.215,1.215,1.9047,1.843,1.817,1.7869,1.7609,1.7589,1.7589,1.7582,1.7549,1.7528,1.7428,1.6947,1.6707,1.6667,1.666,1.6407,1.5934,1.6135,1.6002,1.558,1.5737,1.5832,1.5858,1.5838,1.5825,1.5838,1.5832,1.5825,1.5825,1.5825,1.5825,1.5825,1.5825,1.5825,1.5832,1.5737,1.5635,1.5452,1.5369,1.4682,1.3471,1.2669,1.2061,1.1558,1.069,1.0031,0.9597,0.9199,0.8857,0.8699,0.8695,0.8935,0.9513,0.9625,1.0049,1.0838,1.1117,1.1649,1.2443,1.279,1.3052,1.3313,1.3307,1.3222,1.3052,1.3033,1.2681,1.2209,1.2043,1.2135,1.2227,1.21,1.2174,1.2631,1.2717,1.2705,1.2705,1.2705,1.2705,1.2705,1.2705,1.2705,1.2705,1.2705,1.2705,1.2705,1.271,1.2659,1.2484,1.1758,1.1186,1.1168,1.1145,1.1151,1.1117,1.118,1.112,1.1235,1.1206,1.1205,1.1199,1.1181,1.1097,1.1187,1.1109,1.116,1.1279,1.1323,1.1471,1.1855,1.2009,1.2083,1.2177,1.2003,1.1835,1.9573,1.8955,1.8945,1.84,1.7869,1.7669,1.7589,1.7589,1.7589,1.7589,1.7562,1.7328,1.7134,1.6974,1.6967,1.6807,1.6434,1.6526,1.6466,1.6255,1.6346,1.6346,1.6333,1.6166,1.6092,1.6066,1.5919,1.5825,1.5825,1.5825,1.5825,1.5825,1.5825,1.5825,1.5825,1.5825,1.573,1.5642,1.5547,1.5261,1.4644,1.3655,1.2752,1.1962,1.1282,1.0666,1.012,0.9904,0.9691,0.9616,0.9611,0.9904,1.0419,1.0595,1.0888,1.1408,1.1843,1.2443,1.3045,1.3222,1.3307,1.3398,1.3398,1.3392,1.3307,1.3313,1.3137,1.2887,1.2546,1.2546,1.2729,1.2528,1.2504,1.2693,1.2693,1.2693,1.2705,1.2705,1.2705,1.2705,1.2796,1.2966,1.2881,1.2784,1.2693,1.2674,1.2667,1.2643,1.2575,1.1786,1.1222,1.1082,1.113,1.1128,1.1149,1.1076,1.1018,1.1117,1.1121,1.1117,1.1117,1.1117,1.1117,1.1117,1.1117,1.1117,1.1192,1.1168,1.1236,1.1626,1.1868,1.2022,1.2277,1.1942,1.1613,2.0266,1.9721,1.9525,1.8911,1.8144,1.7809,1.7662,1.7589,1.7589,1.7589,1.7589,1.7589,1.7468,1.7288,1.7268,1.7108,1.6847,1.6827,1.678,1.6714,1.6707,1.67,1.668,1.65,1.6393,1.6346,1.6099,1.5912,1.5838,1.5825,1.5825,1.5825,1.5825,1.5825,1.5825,1.5825,1.5825,1.5737,1.5642,1.554,1.5419,1.4584,1.3602,1.2612,1.2004,1.1415,1.0829,1.0676,1.0549,1.0549,1.0549,1.0722,1.1154,1.1419,1.1671,1.21,1.2619,1.313,1.3476,1.3568,1.3568,1.3568,1.3568,1.3568,1.3483,1.3483,1.3483,1.3313,1.3137,1.2966,1.3137,1.3039,1.2857,1.2936,1.2766,1.276,1.2875,1.2875,1.2875,1.2875,1.3052,1.3143,1.3137,1.3033,1.2832,1.2747,1.2539,1.2382,1.2209,1.1594,1.1094,1.1141,1.1123,1.1127,1.113,1.1053,1.0974,1.1037,1.1117,1.1117,1.1117,1.1117,1.1117,1.1117,1.1117,1.1117,1.1111,1.1099,1.1162,1.1403,1.1639,1.1874,1.2048,1.1713,1.1397,2.096,2.0537,1.9707,1.9042,1.8482,1.8131,1.7849,1.7615,1.7589,1.7589,1.7589,1.7589,1.7575,1.7549,1.7535,1.7402,1.7154,1.7128,1.6994,1.6774,1.674,1.672,1.6707,1.6693,1.6687,1.6667,1.6386,1.6119,1.5865,1.5832,1.5825,1.5825,1.5825,1.5825,1.5825,1.5825,1.5825,1.5825,1.5832,1.5737,1.554,1.5425,1.4804,1.3794,1.2888,1.2287,1.196,1.1538,1.1246,1.1246,1.1246,1.1413,1.1671,1.1837,1.2272,1.2966,1.3392,1.3646,1.3737,1.3913,1.4004,1.4082,1.3997,1.3913,1.3737,1.3737,1.3652,1.3392,1.3392,1.3392,1.3392,1.3392,1.3307,1.33,1.3008,1.3014,1.3307,1.3313,1.3398,1.3313,1.3307,1.3398,1.3398,1.33,1.3077,1.2711,1.227,1.183,1.1444,1.117,1.1091,1.1129,1.1117,1.1123,1.1135,1.1067,1.1049,1.1111,1.1117,1.1117,1.1117,1.1117,1.1117,1.1117,1.1117,1.1117,1.1117,1.1111,1.118,1.1335,1.1403,1.1564,1.1658,1.1403,1.1162,2.166,2.0938,2.0281,1.9675,1.923,1.8646,1.8299,1.8177,1.7768,1.7589,1.7589,1.7589,1.7589,1.7589,1.7589,1.7528,1.7428,1.7428,1.7361,1.7268,1.7268,1.7268,1.7248,1.7088,1.6987,1.6941,1.6687,1.64,1.6119,1.5932,1.5825,1.5825,1.5825,1.5825,1.5825,1.5825,1.5825,1.5825,1.5825,1.573,1.5642,1.554,1.5298,1.4911,1.39,1.3181,1.284,1.2314,1.2009,1.2003,1.202,1.2106,1.2363,1.2705,1.3052,1.3398,1.3652,1.3737,1.3913,1.4082,1.4088,1.4088,1.4088,1.4082,1.3997,1.3913,1.3913,1.3828,1.3828,1.3822,1.3822,1.3652,1.3561,1.3561,1.3568,1.3476,1.3489,1.3678,1.3776,1.3489,1.3476,1.3561,1.3613,1.3503,1.3361,1.3067,1.2166,1.1462,1.1165,1.1111,1.1117,1.1117,1.1117,1.1117,1.1117,1.1117,1.1117,1.1117,1.1117,1.1117,1.1117,1.1117,1.1117,1.1117,1.1117,1.1117,1.1117,1.1117,1.1186,1.1186,1.1254,1.1329,1.1267,1.118,1.1099,2.2112,2.1324,2.0757,2.0359,1.9811,1.9178,1.8812,1.8531,1.7993,1.7694,1.7687,1.7694,1.7589,1.7589,1.7589,1.7589,1.7589,1.7582,1.7589,1.7589,1.7589,1.7589,1.7555,1.7382,1.7288,1.7221,1.6887,1.656,1.6266,1.5972,1.5832,1.5825,1.5825,1.5825,1.5825,1.5825,1.5825,1.5825,1.5825,1.5825,1.5832,1.5635,1.5642,1.552,1.4785,1.4192,1.3744,1.3201,1.2975,1.3028,1.2889,1.2881,1.3058,1.3307,1.3568,1.3828,1.3822,1.3906,1.4088,1.4088,1.4088,1.4088,1.4088,1.4088,1.4088,1.4088,1.4088,1.4088,1.4088,1.4088,1.4088,1.3906,1.3815,1.3822,1.401,1.3932,1.3652,1.3932,1.3939,1.375,1.3743,1.3822,1.3789,1.3655,1.3484,1.3316,1.2261,1.1486,1.1188,1.1075,1.1117,1.1117,1.1117,1.1117,1.1117,1.1117,1.1111,1.1111,1.1117,1.1117,1.1117,1.1117,1.1117,1.1117,1.1117,1.1117,1.1117,1.1117,1.1117,1.1117,1.1111,1.1186,1.1192,1.1117,1.0956,2.2174,2.1527,2.1231,2.0793,2.026,1.9946,1.9392,1.8843,1.8233,1.8016,1.7905,1.7694,1.7589,1.7589,1.7589,1.7589,1.7589,1.7589,1.7589,1.7589,1.7589,1.7589,1.7582,1.7555,1.7535,1.7515,1.6987,1.658,1.6313,1.6025,1.5872,1.5832,1.5825,1.5825,1.5825,1.5825,1.5825,1.5825,1.5825,1.5825,1.5825,1.5825,1.573,1.573,1.552,1.5194,1.4651,1.4377,1.4141,1.4199,1.3964,1.3771,1.3762,1.3815,1.3867,1.4077,1.4122,1.4102,1.4108,1.4102,1.4088,1.4088,1.4088,1.4088,1.4088,1.4088,1.4088,1.4088,1.4088,1.4088,1.4088,1.4088,1.4088,1.4088,1.4088,1.4088,1.4088,1.4088,1.4088,1.4088,1.4088,1.4088,1.4028,1.3788,1.3439,1.3127,1.2557,1.1777,1.1271,1.1117,1.1117,1.1117,1.1117,1.1111,1.1117,1.1117,1.1111,1.1111,1.1111,1.1117,1.1117,1.1117,1.1117,1.1117,1.1117,1.1117,1.1117,1.1117,1.1117,1.1117,1.1117,1.1117,1.1117,1.1043,1.064,2.26,2.2089,2.1968,2.1573,2.1033,2.0589,1.9968,1.936,1.8633,1.8227,1.801,1.7687,1.7589,1.7589,1.7589,1.7589,1.7589,1.7589,1.7589,1.7589,1.7589,1.7589,1.7589,1.7589,1.7589,1.7522,1.7201,1.6854,1.6567,1.6273,1.6046,1.5865,1.5832,1.5825,1.5825,1.5825,1.5825,1.5825,1.5825,1.5825,1.5825,1.5825,1.5825,1.5825,1.573,1.5582,1.549,1.4942,1.4615,1.4603,1.443,1.4421,1.452,1.4595,1.4689,1.4669,1.4496,1.4382,1.4355,1.4202,1.4095,1.4088,1.4088,1.4088,1.4088,1.4088,1.4088,1.4088,1.4088,1.4088,1.4088,1.4088,1.4088,1.4088,1.4088,1.4088,1.4088,1.4088,1.4088,1.4088,1.4088,1.4088,1.3995,1.3701,1.334,1.3121,1.2562,1.1802,1.1335,1.1248,1.126,1.1111,1.1111,1.1037,1.0962,1.0887,1.0812,1.0887,1.0968,1.1043,1.1043,1.1123,1.1123,1.1037,1.1037,1.1037,1.1037,1.1043,1.1037,1.1037,1.0962,1.0968,1.1049,1.0812,1.0415,2.2963,2.254,2.2461,2.2217,2.1674,2.1133,2.0521,1.9873,1.8926,1.8422,1.8115,1.7793,1.7589,1.7589,1.7589,1.7589,1.7589,1.7589,1.7589,1.7589,1.7589,1.7589,1.7589,1.7589,1.7589,1.7535,1.7288,1.7054,1.6854,1.6473,1.6179,1.6012,1.5885,1.5825,1.5825,1.5825,1.5825,1.5825,1.5825,1.5825,1.5825,1.5825,1.5825,1.5825,1.5825,1.5825,1.5717,1.5356,1.5084,1.5126,1.4996,1.4993,1.4983,1.4957,1.506,1.493,1.479,1.4643,1.4529,1.4355,1.4182,1.4115,1.4088,1.4088,1.4088,1.4088,1.4088,1.4088,1.4088,1.4088,1.4088,1.4088,1.4088,1.4088,1.4088,1.4088,1.4088,1.4088,1.4088,1.4088,1.4088,1.4088,1.3975,1.3594,1.3233,1.3048,1.2457,1.1935,1.1545,1.1403,1.118,1.1031,1.0881,1.0807,1.0657,1.0588,1.0513,1.0594,1.0743,1.0818,1.0899,1.0986,1.1067,1.0732,1.0571,1.0657,1.0738,1.0812,1.0812,1.0812,1.0738,1.0738,1.0743,1.0594,1.0276,2.3277,2.2898,2.2826,2.2484,2.2037,2.157,2.1018,2.0354,1.9361,1.8624,1.8311,1.7793,1.7589,1.7589,1.7589,1.7589,1.7589,1.7589,1.7589,1.7589,1.7589,1.7589,1.7589,1.7589,1.7589,1.7542,1.7328,1.7181,1.7177,1.6647,1.6313,1.6273,1.6032,1.5865,1.5885,1.5852,1.5825,1.5825,1.5825,1.5825,1.5825,1.5825,1.5825,1.5825,1.5825,1.5825,1.5818,1.5697,1.5704,1.5785,1.5545,1.5311,1.509,1.5017,1.5077,1.5084,1.501,1.4856,1.4656,1.4583,1.4422,1.4188,1.4162,1.4095,1.4095,1.4088,1.4088,1.4088,1.4088,1.4088,1.4088,1.4088,1.4088,1.4088,1.4088,1.4088,1.4088,1.4088,1.4088,1.4088,1.4088,1.4088,1.4055,1.3574,1.328,1.3021,1.2387,1.2006,1.18,1.1409,1.095,1.0801,1.0651,1.0507,1.0438,1.0218,1.0143,1.0073,1.0223,1.0449,1.0594,1.0761,1.0755,1.0426,1.019,1.0276,1.0357,1.0438,1.0513,1.0438,1.0438,1.0438,1.0368,1.0223,0.975,2.3545,2.3256,2.3059,2.273,2.2342,2.1841,2.1218,2.0418,1.9576,1.884,1.8422,1.7793,1.7589,1.7589,1.7589,1.7589,1.7589,1.7589,1.7589,1.7589,1.7589,1.7589,1.7589,1.7589,1.7589,1.7569,1.7482,1.7355,1.7154,1.6967,1.6787,1.6587,1.6306,1.6152,1.6132,1.5945,1.5832,1.5825,1.5825,1.5825,1.5825,1.5825,1.5825,1.5825,1.5825,1.5825,1.5825,1.5825,1.5825,1.5825,1.5765,1.5691,1.5578,1.5565,1.5551,1.5524,1.5378,1.5251,1.5137,1.4963,1.4716,1.4449,1.4382,1.4309,1.4102,1.4088,1.4088,1.4088,1.4088,1.4088,1.4088,1.4088,1.4088,1.4088,1.4088,1.4088,1.4088,1.4088,1.4088,1.4088,1.4088,1.4088,1.3975,1.3607,1.3227,1.3034,1.2503,1.1774,1.1558,1.1341,1.0881,1.0571,1.0426,1.0282,1.0067,0.9846,0.97,0.9549,0.97,0.9927,1.0143,1.0368,1.0276,0.9943,0.997,1.0056,1.0137,1.0143,1.0143,0.9986,0.9916,0.9841,1.0014,0.9949,0.9145,2.3845,2.3746,2.3347,2.3046,2.2736,2.203,2.1318,2.0617,1.9687,1.8952,1.8422,1.7793,1.7589,1.7589,1.7589,1.7589,1.7589,1.7589,1.7589,1.7589,1.7589,1.7589,1.7589,1.7589,1.7589,1.7589,1.7589,1.7495,1.7335,1.7221,1.7048,1.6874,1.66,1.64,1.6253,1.6126,1.5939,1.5852,1.5825,1.5825,1.5825,1.5825,1.5825,1.5825,1.5825,1.5825,1.5825,1.5825,1.5825,1.5825,1.5825,1.5825,1.5825,1.5825,1.5825,1.5818,1.5665,1.5531,1.5398,1.5231,1.5023,1.475,1.4616,1.4449,1.4282,1.4175,1.4088,1.4088,1.4088,1.4088,1.4088,1.4088,1.4088,1.4088,1.4088,1.4088,1.4088,1.4088,1.4088,1.4088,1.4088,1.4088,1.4075,1.3567,1.33,1.3028,1.2387,1.174,1.1242,1.1025,1.0726,1.0265,0.989,0.9674,0.9458,0.9236,0.9089,0.8941,0.9103,0.9327,0.9625,0.9836,0.983,0.9669,0.9755,0.9674,0.9658,0.9583,0.9382,0.9306,0.9236,0.9306,0.9544,0.9326,0.8543,2.4161,2.4152,2.3655,2.3456,2.3247,2.2232,2.1428,2.0719,1.9791,1.8959,1.8429,1.7793,1.7687,1.7687,1.7694,1.7687,1.7694,1.7687,1.7582,1.7582,1.7589,1.7589,1.7589,1.7589,1.7589,1.7589,1.7589,1.7575,1.7495,1.7308,1.7221,1.7121,1.6894,1.6607,1.64,1.6286,1.6106,1.5872,1.5825,1.5825,1.5825,1.5825,1.5825,1.5825,1.5825,1.5825,1.5825,1.5825,1.5825,1.5825,1.5825,1.5825,1.5825,1.5825,1.5825,1.5825,1.5792,1.5691,1.5511,1.5451,1.5317,1.5037,1.4776,1.4556,1.4482,1.4295,1.4155,1.4088,1.4088,1.4088,1.4088,1.4088,1.4088,1.4088,1.4088,1.4088,1.4088,1.4088,1.4088,1.4088,1.4088,1.4088,1.3948,1.3627,1.3213,1.3094,1.2356,1.1646,1.1099,1.0807,1.0196,0.9422,0.9205,0.9064,0.8846,0.8627,0.8475,0.8331,0.857,0.8803,0.9027,0.9246,0.9327,0.9322,0.916,0.8964,0.8835,0.8703,0.8562,0.8487,0.8324,0.8632,0.8939,0.8529,0.7799,2.4161,2.4152,2.3646,2.3456,2.3247,2.2224,2.142,2.0822,1.9791,1.8959,1.8422,1.7793,1.7694,1.7905,1.7911,1.801,1.8115,1.7898,1.7799,1.7589,1.7589,1.7589,1.7589,1.7589,1.7589,1.7589,1.7589,1.7589,1.7549,1.7515,1.7482,1.7435,1.7181,1.6901,1.662,1.638,1.6132,1.5885,1.5825,1.5825,1.5825,1.5825,1.5825,1.5825,1.5825,1.5825,1.5825,1.5825,1.5825,1.5825,1.5825,1.5825,1.5825,1.5825,1.5825,1.5825,1.5825,1.5798,1.5745,1.5691,1.5618,1.5337,1.519,1.5017,1.4543,1.4469,1.4309,1.4162,1.4088,1.4088,1.4088,1.4088,1.4088,1.4088,1.4088,1.4088,1.4088,1.4088,1.4088,1.4088,1.4088,1.4088,1.4062,1.3398,1.3107,1.3008,1.2357,1.149,1.1043,1.0674,0.982,0.8969,0.8756,0.8613,0.8313,0.8089,0.7863,0.7791,0.7957,0.8038,0.8336,0.8408,0.8403,0.8403,0.8399,0.8188,0.7935,0.7781,0.7616,0.7457,0.7462,0.7741,0.7928,0.7513,0.707,2.4335,2.4152,2.3646,2.3456,2.3247,2.2232,2.1428,2.0814,1.9887,1.9056,1.8422,1.7898,1.7799,1.7806,1.7911,1.801,1.8003,1.7905,1.7799,1.7582,1.7589,1.7589,1.7589,1.7589,1.7589,1.7589,1.7589,1.7589,1.7589,1.7589,1.7569,1.7582,1.7415,1.7101,1.6767,1.654,1.6246,1.5905,1.5825,1.5825,1.5825,1.5825,1.5825,1.5825,1.5825,1.5825,1.5825,1.5825,1.5825,1.5825,1.5825,1.5825,1.5825,1.5825,1.5825,1.5825,1.5825,1.5825,1.5825,1.5818,1.5758,1.5605,1.5484,1.5251,1.491,1.471,1.4462,1.4302,1.4182,1.4088,1.4088,1.4102,1.4102,1.4095,1.3919,1.3835,1.3828,1.3913,1.4088,1.4082,1.3997,1.3913,1.3651,1.3134,1.2914,1.281,1.196,1.1129,1.0935,1.0477,0.9528,0.8756,0.8385,0.8165,0.7859,0.7633,0.7322,0.733,0.7338,0.7338,0.7334,0.7403,0.7472,0.746,0.7363,0.7104,0.6868,0.6721,0.6641,0.66,0.6637,0.6837,0.6909,0.6725,0.6071,2.4537,2.4152,2.3655,2.3447,2.3247,2.2224,2.142,2.0917,2.0094,1.9264,1.8527,1.8227,1.7911,1.7799,1.7905,1.7905,1.7687,1.7687,1.7687,1.7589,1.7589,1.7589,1.7589,1.7589,1.7589,1.7589,1.7589,1.7589,1.7589,1.7589,1.7589,1.7582,1.7582,1.7241,1.6827,1.668,1.6393,1.5905,1.5825,1.5825,1.5825,1.5825,1.5825,1.5825,1.5825,1.5825,1.5825,1.5825,1.5825,1.5825,1.5825,1.5825,1.5825,1.5825,1.5825,1.5825,1.5825,1.5825,1.5825,1.5825,1.5818,1.5812,1.5625,1.5451,1.5277,1.499,1.4736,1.4435,1.4289,1.3992,1.4017,1.4108,1.403,1.3932,1.3665,1.3398,1.3392,1.3652,1.3828,1.3913,1.3737,1.3652,1.3426,1.308,1.2794,1.2466,1.1615,1.0935,1.0663,1.0116,0.916,0.8456,0.8008,0.7557,0.7253,0.6942,0.671,0.6714,0.6799,0.6721,0.6486,0.6321,0.6384,0.6346,0.6304,0.6054,0.6016,0.5985,0.5933,0.5769,0.5782,0.5856,0.5888,0.5962,0.5232,2.4317,2.4152,2.3845,2.3646,2.3247,2.2426,2.1725,2.1121,2.0197,1.9472,1.9063,1.8325,1.8115,1.8108,1.801,1.8016,1.7905,1.7905,1.7799,1.7589,1.7589,1.7589,1.7589,1.7589,1.7589,1.7589,1.7589,1.7589,1.7589,1.7589,1.7589,1.7589,1.7555,1.7248,1.6854,1.6667,1.6393,1.5912,1.5825,1.5825,1.5825,1.5825,1.5825,1.5825,1.5825,1.5825,1.5825,1.5825,1.5825,1.5825,1.5825,1.5825,1.5825,1.5825,1.5825,1.5825,1.5825,1.5825,1.5825,1.5825,1.5825,1.5818,1.5765,1.5618,1.5451,1.5284,1.487,1.4556,1.4138,1.3819,1.3593,1.3874,1.3861,1.358,1.3118,1.2845,1.2845,1.3033,1.3313,1.3398,1.3398,1.3385,1.3084,1.2767,1.2486,1.1999,1.1245,1.0489,1.0024,0.9448,0.8699,0.8084,0.7625,0.7099,0.6644,0.6331,0.6096,0.6103,0.6106,0.6187,0.5948,0.5473,0.5297,0.5588,0.5487,0.5217,0.5189,0.5219,0.5129,0.5008,0.4956,0.4913,0.5033,0.5086,0.4697,2.4533,2.4464,2.4045,2.3664,2.3364,2.2636,2.1937,2.1334,2.0617,1.9894,1.9376,1.8855,1.8429,1.8325,1.822,1.8115,1.8016,1.7806,1.7694,1.7589,1.7589,1.7589,1.7589,1.7589,1.7589,1.7589,1.7589,1.7589,1.7589,1.7589,1.7575,1.7542,1.7448,1.7128,1.6767,1.654,1.6259,1.5905,1.5825,1.5825,1.5825,1.5825,1.5825,1.5825,1.5825,1.5825,1.5825,1.5825,1.5825,1.5825,1.5825,1.5825,1.5825,1.5825,1.5825,1.5825,1.5825,1.5825,1.5825,1.5825,1.573,1.5635,1.5642,1.5494,1.5249,1.5013,1.4825,1.445,1.4078,1.376,1.3627,1.3683,1.3619,1.3338,1.2778,1.2413,1.2345,1.2454,1.2631,1.2717,1.2711,1.2693,1.2747,1.2422,1.2076,1.1578,1.0908,1.0152,0.9364,0.8798,0.8128,0.7633,0.7096,0.656,0.6103,0.5867,0.5634,0.564,0.5643,0.5643,0.5562,0.5165,0.5007,0.5076,0.4879,0.4491,0.4509,0.4541,0.4447,0.4311,0.4188,0.4128,0.425,0.4172,0.3832,2.4932,2.4867,2.4245,2.3899,2.3598,2.2872,2.2241,2.1656,2.113,2.0411,1.9695,1.9383,1.8848,1.8325,1.8115,1.8108,1.7911,1.7687,1.7589,1.7589,1.7589,1.7589,1.7589,1.7589,1.7589,1.7589,1.7589,1.7589,1.7589,1.7589,1.7549,1.7435,1.7228,1.6947,1.6627,1.6406,1.6099,1.5919,1.5825,1.5825,1.5825,1.5825,1.5825,1.5825,1.5825,1.5825,1.5825,1.5825,1.5825,1.5825,1.5825,1.5825,1.5825,1.5825,1.5825,1.5737,1.5737,1.573,1.573,1.573,1.5642,1.5452,1.5452,1.5261,1.5127,1.486,1.4551,1.4261,1.3906,1.3699,1.3598,1.3404,1.3297,1.301,1.2363,1.1724,1.1746,1.1763,1.1768,1.194,1.202,1.2095,1.2072,1.1946,1.1618,1.1216,1.0555,0.9323,0.8608,0.8117,0.7573,0.7049,0.6486,0.6022,0.5712,0.5556,0.5401,0.5407,0.5329,0.5329,0.5251,0.509,0.4927,0.4743,0.4134,0.3774,0.3872,0.392,0.3934,0.3835,0.3565,0.3498,0.3699,0.3565,0.3228,2.5137,2.5271,2.4867,2.4536,2.4185,2.3305,2.2771,2.23,2.135,2.0917,2.0514,1.9783,1.916,1.8624,1.7898,1.7687,1.7687,1.7582,1.7589,1.7589,1.7589,1.7589,1.7589,1.7589,1.7589,1.7589,1.7589,1.7589,1.7589,1.7589,1.7442,1.7261,1.7134,1.6887,1.6413,1.6266,1.6119,1.5879,1.5825,1.5825,1.5825,1.5825,1.5825,1.5825,1.5825,1.5825,1.5825,1.5825,1.5825,1.5825,1.5825,1.5825,1.5825,1.5825,1.573,1.5635,1.5635,1.573,1.5547,1.5547,1.5458,1.5172,1.5178,1.5178,1.4962,1.4841,1.4489,1.4266,1.3902,1.3566,1.3371,1.3003,1.2887,1.2392,1.1757,1.1107,1.0844,1.1068,1.1079,1.1073,1.1154,1.1327,1.1494,1.1289,1.1064,1.0673,1.0104,0.8861,0.7877,0.7304,0.6894,0.6359,0.5941,0.5395,0.5243,0.5165,0.5012,0.5015,0.5018,0.4937,0.4779,0.4616,0.4653,0.4363,0.3704,0.3415,0.365,0.3711,0.354,0.3362,0.3094,0.3094,0.3226,0.296,0.2691,2.5532,2.5647,2.5041,2.4581,2.4221,2.3616,2.3046,2.2561,2.2038,2.142,2.0917,2.0308,1.9465,1.8624,1.7898,1.7589,1.7589,1.7589,1.7589,1.7589,1.7589,1.7589,1.7589,1.7589,1.7589,1.7589,1.7589,1.7589,1.7589,1.7555,1.7435,1.7154,1.6967,1.6707,1.6253,1.6099,1.5972,1.5858,1.5825,1.5825,1.5825,1.5825,1.5825,1.5825,1.5825,1.5825,1.5825,1.5825,1.5825,1.5825,1.5825,1.5825,1.573,1.573,1.554,1.554,1.5452,1.5363,1.5267,1.5267,1.5172,1.4987,1.4892,1.479,1.4694,1.4586,1.4465,1.4337,1.3794,1.3543,1.3303,1.2768,1.2586,1.2123,1.1154,1.0423,1.0062,1.0269,1.0467,1.0381,1.0376,1.0463,1.0463,1.0274,1.0173,1.0125,0.9383,0.8135,0.7141,0.6329,0.6019,0.5724,0.524,0.4766,0.4771,0.4774,0.4543,0.4545,0.4628,0.447,0.4231,0.4137,0.4112,0.3747,0.3058,0.3011,0.3346,0.3238,0.2975,0.2758,0.2624,0.2622,0.2554,0.242,0.1816,2.5802,2.5894,2.5216,2.4708,2.4329,2.3962,2.3347,2.2636,2.2526,2.1928,2.1121,2.0411,1.9472,1.8534,1.7898,1.7589,1.7589,1.7589,1.7589,1.7589,1.7589,1.7589,1.7589,1.7589,1.7589,1.7589,1.7589,1.7589,1.7555,1.7475,1.7295,1.7034,1.6727,1.644,1.6172,1.5972,1.5838,1.5838,1.5825,1.5825,1.5825,1.5825,1.5825,1.5825,1.5825,1.5825,1.5825,1.5825,1.5825,1.5825,1.573,1.573,1.5642,1.5547,1.5356,1.5261,1.507,1.4981,1.4981,1.4879,1.4879,1.4688,1.4592,1.4496,1.44,1.4298,1.4202,1.4178,1.3832,1.3612,1.3489,1.2664,1.2053,1.1538,1.0733,0.9918,0.9209,0.9492,0.9598,0.9598,0.9423,0.9248,0.9244,0.9069,0.9161,0.9345,0.8636,0.7465,0.6528,0.5703,0.5408,0.5188,0.4851,0.4457,0.4382,0.4387,0.4153,0.3999,0.4079,0.3843,0.3448,0.3448,0.3439,0.2993,0.2326,0.199,0.1889,0.2096,0.2288,0.2085,0.1883,0.1883,0.1816,0.1547,0.0739,2.5675,2.5922,2.5482,2.5176,2.4801,2.4079,2.3555,2.3055,2.2636,2.2131,2.1318,2.0094,1.916,1.8422,1.7898,1.7589,1.7589,1.7589,1.7589,1.7589,1.7589,1.7589,1.7589,1.7589,1.7589,1.7589,1.7589,1.7589,1.7502,1.7268,1.7027,1.6734,1.652,1.6186,1.5972,1.5865,1.5825,1.5825,1.5825,1.5825,1.5825,1.5825,1.5825,1.5825,1.5825,1.5825,1.5825,1.573,1.573,1.573,1.5547,1.5547,1.5452,1.5267,1.5077,1.4879,1.4783,1.4688,1.4586,1.4592,1.4592,1.4394,1.4394,1.4394,1.4298,1.4298,1.4208,1.401,1.3619,1.3514,1.3176,1.2626,1.1599,1.0787,1.0076,0.9231,0.8694,0.8619,0.8719,0.8723,0.8636,0.846,0.8197,0.8109,0.8384,0.8656,0.7842,0.6685,0.6232,0.5499,0.5068,0.4815,0.4548,0.4229,0.4075,0.3921,0.3684,0.3608,0.361,0.3059,0.2353,0.251,0.2668,0.2316,0.1738,0.1111,0.0578,0.0904,0.1149,0.1144,0.1008,0.0806,0.0134,-0.047,-0.1344,2.5502,2.5555,2.5179,2.5005,2.4866,2.4299,2.3746,2.3356,2.3138,2.2325,2.1121,1.9887,1.8952,1.8422,1.7898,1.7589,1.7589,1.7589,1.7589,1.7589,1.7589,1.7589,1.7589,1.7589,1.7589,1.7589,1.7589,1.7589,1.7542,1.7134,1.6881,1.664,1.64,1.6132,1.5932,1.5825,1.5832,1.5832,1.5825,1.5825,1.5825,1.5825,1.5825,1.5825,1.5825,1.573,1.5635,1.5642,1.5547,1.5356,1.5267,1.5267,1.5261,1.4981,1.4783,1.4688,1.4586,1.4394,1.4394,1.4394,1.44,1.4394,1.4298,1.4298,1.4298,1.4112,1.4022,1.3794,1.3352,1.3182,1.3298,1.2395,1.1237,1.0281,0.9328,0.8552,0.8093,0.7921,0.7929,0.7929,0.7845,0.7757,0.7404,0.7143,0.7598,0.7955,0.696,0.6144,0.5699,0.5141,0.4721,0.4263,0.3999,0.3837,0.3684,0.345,0.3137,0.3061,0.2982,0.2354,0.1648,0.1649,0.1722,0.1389,0.0984,0.0148,-0.0215,-0.0138,-0.0,0.0067,-0.0201,-0.0537,-0.1344,-0.2218,-0.3096,2.5245,2.5152,2.4766,2.4675,2.4721,2.4326,2.3854,2.3456,2.3356,2.2443,2.0814,1.9791,1.8959,1.8422,1.7898,1.7589,1.7589,1.7589,1.7589,1.7589,1.7589,1.7589,1.7589,1.7589,1.7589,1.7589,1.7589,1.7589,1.7555,1.6981,1.6767,1.6607,1.6333,1.6019,1.5899,1.5825,1.5737,1.5737,1.573,1.5635,1.5642,1.5547,1.5547,1.5547,1.5547,1.5547,1.5356,1.5356,1.5267,1.5172,1.5083,1.4981,1.4885,1.479,1.4592,1.449,1.4394,1.4298,1.4298,1.4298,1.4298,1.4298,1.4298,1.4298,1.4112,1.4022,1.3835,1.3448,1.3039,1.2882,1.2981,1.1947,1.0765,0.98,0.8613,0.7742,0.7386,0.7126,0.7132,0.7224,0.7048,0.7051,0.6786,0.6514,0.6558,0.6792,0.623,0.5605,0.5459,0.4929,0.4377,0.3859,0.3366,0.3288,0.3214,0.2665,0.2195,0.1804,0.1726,0.1492,0.1099,0.0943,0.0546,0.023,-0.03,-0.0878,-0.135,-0.1583,-0.1357,-0.0942,-0.1208,-0.1476,-0.208,-0.2887,-0.3966,2.4821,2.4739,2.4354,2.4409,2.4684,2.4326,2.3854,2.3347,2.3256,2.2333,2.0822,1.9791,1.8952,1.8422,1.7793,1.7589,1.7589,1.7589,1.7589,1.7589,1.7589,1.7589,1.7589,1.7589,1.7589,1.7589,1.7589,1.7589,1.7575,1.6987,1.6754,1.654,1.6109,1.579,1.5832,1.5825,1.573,1.554,1.554,1.5356,1.5267,1.5178,1.5274,1.5274,1.5267,1.5267,1.5172,1.5077,1.5077,1.4981,1.479,1.4688,1.4688,1.4496,1.4394,1.4394,1.4298,1.4298,1.4298,1.4298,1.4202,1.4208,1.4208,1.4112,1.3925,1.3829,1.3539,1.3061,1.2662,1.218,1.1903,1.151,1.044,0.9051,0.7785,0.7217,0.6864,0.6505,0.6508,0.6605,0.652,0.6343,0.6169,0.5885,0.5728,0.5564,0.5276,0.5074,0.5041,0.4649,0.4029,0.3463,0.2976,0.2665,0.251,0.1803,0.1255,0.0785,0.0471,0.0235,-0.0157,-0.0549,-0.0853,-0.1068,-0.1416,-0.182,-0.2547,-0.3295,-0.2916,-0.2614,-0.2146,-0.2345,-0.2883,-0.3689,-0.4837,2.4611,2.4354,2.4216,2.4135,2.4136,2.4026,2.3746,2.3247,2.2443,2.153,2.0506,1.9465,1.8736,1.8318,1.7898,1.7589,1.7589,1.7589,1.7589,1.7589,1.7589,1.7589,1.7589,1.7589,1.7589,1.7589,1.7589,1.7582,1.7575,1.6886,1.6754,1.656,1.5932,1.5675,1.5635,1.554,1.5452,1.5267,1.5267,1.5178,1.5083,1.5083,1.5083,1.5083,1.5083,1.4987,1.4885,1.479,1.479,1.4592,1.4496,1.44,1.4394,1.4298,1.4298,1.4202,1.4202,1.3919,1.3823,1.3732,1.3823,1.3919,1.4022,1.3925,1.3636,1.3346,1.2958,1.2473,1.198,1.1531,1.1099,1.0905,0.9837,0.7941,0.6791,0.6739,0.6514,0.6154,0.5974,0.6163,0.608,0.5722,0.5455,0.5396,0.5247,0.473,0.4378,0.451,0.4482,0.4207,0.3692,0.3064,0.2586,0.2275,0.1805,0.102,0.0235,-0.0235,-0.0706,-0.1019,-0.149,-0.1883,-0.2105,-0.2231,-0.2464,-0.2753,-0.3679,-0.4357,-0.454,-0.4353,-0.3877,-0.3407,-0.3742,-0.4686,-0.5977,2.44,2.4152,2.4053,2.3954,2.3854,2.3845,2.3555,2.2846,2.1623,2.0814,2.0094,1.925,1.8624,1.822,1.7799,1.7589,1.7589,1.7589,1.7589,1.7589,1.7589,1.7589,1.7589,1.7589,1.7589,1.7589,1.747,1.7457,1.7291,1.6744,1.6301,1.5921,1.566,1.5306,1.5261,1.5261,1.5267,1.5077,1.4981,1.4885,1.479,1.479,1.479,1.479,1.4783,1.4688,1.4592,1.4496,1.44,1.4208,1.4208,1.4112,1.4106,1.4016,1.4016,1.3919,1.3919,1.3636,1.3539,1.3443,1.3437,1.3443,1.3539,1.3539,1.3249,1.2856,1.2273,1.1785,1.1198,1.0649,1.0087,0.9918,0.9104,0.7214,0.6421,0.6376,0.5983,0.5622,0.5445,0.5544,0.546,0.5102,0.473,0.4828,0.4849,0.4166,0.3501,0.3732,0.3876,0.3465,0.2823,0.1959,0.1489,0.1098,0.0628,0.0078,-0.0628,-0.1256,-0.1647,-0.188,-0.2427,-0.282,-0.312,-0.3413,-0.3695,-0.4106,-0.4927,-0.5444,-0.5745,-0.5789,-0.5536,-0.513,-0.4797,-0.5807,-0.7175,2.4161,2.4161,2.3954,2.3746,2.3746,2.3546,2.2937,2.203,2.1224,2.0403,1.968,1.9042,1.8422,1.801,1.7694,1.7589,1.7589,1.7589,1.7589,1.7589,1.7589,1.7589,1.7477,1.7477,1.7371,1.7371,1.7318,1.6964,1.6749,1.6283,1.5684,1.5261,1.5134,1.4885,1.479,1.479,1.479,1.4694,1.4688,1.4592,1.449,1.44,1.44,1.4304,1.4298,1.4304,1.4208,1.4202,1.4118,1.3931,1.3931,1.3732,1.3636,1.3545,1.3539,1.3443,1.3443,1.3443,1.3244,1.305,1.2759,1.2662,1.2759,1.2764,1.2565,1.2078,1.1487,1.09,1.0301,0.9494,0.8887,0.8839,0.8695,0.7326,0.6172,0.5746,0.5366,0.5095,0.5008,0.4924,0.4748,0.4476,0.4103,0.4047,0.411,0.371,0.3141,0.3065,0.3081,0.2755,0.1803,0.0157,-0.0235,-0.0314,-0.0706,-0.1098,-0.1489,-0.2195,-0.2113,-0.2347,-0.3051,-0.383,-0.4281,-0.4709,-0.5014,-0.5638,-0.6915,-0.7186,-0.6984,-0.702,-0.707,-0.6396,-0.5928,-0.7195,-0.8419,2.4053,2.3954,2.3854,2.3447,2.2837,2.203,2.153,2.1113,2.0403,1.9791,1.9383,1.8534,1.8115,1.8016,1.7694,1.7589,1.7589,1.7589,1.7589,1.7589,1.7378,1.7384,1.7272,1.716,1.7054,1.6877,1.6774,1.6516,1.633,1.5878,1.5262,1.4942,1.4598,1.4406,1.422,1.413,1.4316,1.4406,1.44,1.4298,1.4202,1.4112,1.4022,1.4022,1.3823,1.3823,1.3823,1.3823,1.3738,1.3636,1.3642,1.3539,1.3539,1.3443,1.3443,1.305,1.2958,1.2861,1.2467,1.217,1.1975,1.1585,1.1389,1.1487,1.1389,1.1096,1.0404,0.9912,0.9406,0.8626,0.8,0.7763,0.7429,0.6536,0.5607,0.5295,0.483,0.4293,0.4206,0.421,0.4123,0.3583,0.3212,0.3211,0.3131,0.2922,0.2623,0.24,0.2051,0.1573,0.0863,-0.0863,-0.1412,-0.1412,-0.1883,-0.2275,-0.2665,-0.2978,-0.2973,-0.3281,-0.4217,-0.4993,-0.5594,-0.609,-0.6629,-0.7828,-0.9303,-0.9205,-0.86,-0.8716,-0.8666,-0.781,-0.7396,-0.8533,-0.9532,2.3954,2.3755,2.3447,2.2736,2.1827,2.0814,2.0403,2.0205,1.9791,1.9272,1.875,1.8227,1.7911,1.7799,1.7694,1.7589,1.7582,1.7483,1.7384,1.7384,1.7166,1.706,1.6948,1.6836,1.673,1.6523,1.626,1.6078,1.5744,1.504,1.4425,1.4238,1.4016,1.3925,1.3835,1.3738,1.3835,1.3925,1.4016,1.4016,1.3925,1.3829,1.3738,1.3738,1.3539,1.3443,1.3443,1.3443,1.3443,1.3346,1.3249,1.3152,1.3055,1.2953,1.2759,1.237,1.2268,1.1975,1.1585,1.1292,1.0993,1.0502,1.001,0.971,0.971,0.9612,0.9217,0.8722,0.8305,0.7858,0.7314,0.6691,0.6081,0.5398,0.5165,0.4844,0.421,0.3492,0.3405,0.3585,0.3227,0.2689,0.2384,0.2315,0.2096,0.1663,0.1143,0.0557,0.0236,-0.0236,-0.0784,-0.1804,-0.2198,-0.2354,-0.2826,-0.3215,-0.3604,-0.3834,-0.3984,-0.4448,-0.5464,-0.6314,-0.6915,-0.7651,-0.8444,-0.9704,-1.101,-1.0673,-1.0247,-1.0331,-1.0365,-0.9759,-0.9362,-0.9637,-1.0507,2.3746,2.3546,2.2736,2.1818,2.0814,1.999,1.948,1.9168,1.9063,1.875,1.8122,1.8023,1.7799,1.7687,1.7589,1.7477,1.7371,1.7272,1.7166,1.7173,1.6849,1.663,1.663,1.6617,1.6362,1.6287,1.5983,1.5342,1.4749,1.4219,1.379,1.3545,1.3539,1.3443,1.3443,1.3443,1.3443,1.3443,1.3539,1.3539,1.3539,1.3545,1.3443,1.3443,1.3443,1.3346,1.3346,1.3346,1.3244,1.305,1.2856,1.2565,1.237,1.2073,1.1785,1.159,1.1492,1.1091,1.0699,1.0306,0.9908,0.9316,0.8726,0.8127,0.8024,0.8322,0.8124,0.7528,0.7117,0.6608,0.5995,0.6018,0.5631,0.4856,0.4232,0.4036,0.3678,0.2868,0.233,0.233,0.1972,0.1433,0.098,0.0867,0.0846,0.0418,-0.0327,-0.1034,-0.1336,-0.1808,-0.2278,-0.2747,-0.2982,-0.3139,-0.3448,-0.3839,-0.4307,-0.4613,-0.4838,-0.5687,-0.67,-0.7476,-0.825,-0.9049,-0.9916,-1.131,-1.2301,-1.2016,-1.2045,-1.2211,-1.2143,-1.1775,-1.1539,-1.1418,-1.167,2.3447,2.2736,2.1725,2.0909,2.0189,1.968,1.8966,1.8331,1.8115,1.801,1.7911,1.7799,1.7687,1.7477,1.7378,1.7272,1.7173,1.6955,1.6842,1.6743,1.653,1.6318,1.6311,1.6168,1.5877,1.5443,1.5088,1.4678,1.4034,1.3625,1.3443,1.3443,1.3244,1.3147,1.3147,1.305,1.2958,1.2958,1.2856,1.3055,1.3346,1.3249,1.3147,1.305,1.2953,1.2759,1.2662,1.2467,1.237,1.2273,1.2175,1.2078,1.1785,1.1292,1.1208,1.1124,1.0712,1.0113,0.9616,0.9118,0.8619,0.8024,0.7332,0.6734,0.6534,0.703,0.6927,0.6331,0.5884,0.5282,0.5001,0.5145,0.5076,0.4215,0.3317,0.3139,0.2963,0.2153,0.1255,0.0896,0.0538,0.0179,-0.0267,-0.0527,-0.0601,-0.1176,-0.1974,-0.2575,-0.2534,-0.2756,-0.3304,-0.3694,-0.3767,-0.3921,-0.4151,-0.4613,-0.5237,-0.5538,-0.5835,-0.6765,-0.7936,-0.877,-0.9685,-1.0507,-1.1465,-1.2712,-1.3593,-1.3845,-1.3909,-1.4029,-1.4154,-1.3893,-1.3556,-1.343,-1.3509,2.2937,2.2325,2.1113,2.0189,1.968,1.8848,1.822,1.7799,1.7371,1.7265,1.7378,1.7265,1.716,1.7153,1.706,1.6948,1.6948,1.6636,1.653,1.6424,1.6068,1.601,1.5773,1.5559,1.5241,1.492,1.4361,1.3823,1.3402,1.3055,1.2958,1.2953,1.2759,1.2662,1.2657,1.2467,1.2467,1.2467,1.2165,1.2365,1.2856,1.2759,1.2662,1.2467,1.237,1.2175,1.2175,1.198,1.1883,1.1688,1.1487,1.11,1.0801,1.031,1.022,1.013,0.9632,0.8924,0.8329,0.7829,0.7332,0.6734,0.6134,0.5534,0.5033,0.5331,0.5432,0.4929,0.4967,0.4487,0.4307,0.435,0.3802,0.299,0.2335,0.1884,0.1256,0.0359,-0.009,-0.009,-0.0538,-0.1166,-0.1604,-0.1759,-0.1812,-0.1799,-0.2763,-0.3433,-0.3458,-0.3718,-0.4265,-0.4719,-0.4784,-0.4857,-0.5085,-0.5625,-0.624,-0.6615,-0.6904,-0.8609,-1.0019,-1.0524,-1.1192,-1.1774,-1.2606,-1.3827,-1.464,-1.5174,-1.5534,-1.5679,-1.595,-1.6066,-1.5734,-1.547,-1.5666,2.2274,2.2013,2.0585,1.9672,1.9063,1.801,1.7582,1.7371,1.6948,1.663,1.663,1.663,1.663,1.673,1.6624,1.6599,1.6455,1.6194,1.6125,1.5846,1.5523,1.5352,1.5083,1.4931,1.4584,1.427,1.3746,1.3309,1.2867,1.2662,1.2467,1.2273,1.2175,1.198,1.198,1.198,1.2078,1.1975,1.1878,1.1785,1.1883,1.1878,1.1975,1.198,1.1883,1.1883,1.1785,1.159,1.1394,1.1096,1.0605,1.0109,0.9616,0.9217,0.9232,0.9038,0.8336,0.7531,0.6933,0.6434,0.5934,0.5436,0.4935,0.4431,0.393,0.3828,0.3929,0.3692,0.3646,0.3696,0.3436,0.3089,0.2477,0.1804,0.1169,0.0448,-0.0448,-0.1255,-0.1255,-0.1255,-0.1703,-0.2332,-0.2581,-0.2813,-0.2794,-0.2775,-0.3077,-0.3673,-0.4168,-0.4583,-0.502,-0.5526,-0.587,-0.5944,-0.6093,-0.663,-0.7322,-0.7685,-0.8282,-1.0391,-1.1883,-1.1987,-1.2238,-1.2725,-1.371,-1.4776,-1.5874,-1.6553,-1.6899,-1.7151,-1.7648,-1.7861,-1.7721,-1.7533,-1.7909,2.1244,2.049,1.945,1.8729,1.8227,1.749,1.7166,1.6836,1.6537,1.6318,1.6193,1.5998,1.6004,1.6624,1.6424,1.6243,1.5953,1.5602,1.5201,1.4968,1.485,1.4694,1.4442,1.4327,1.3936,1.3523,1.3017,1.2552,1.2467,1.2273,1.2078,1.2073,1.2073,1.1975,1.1975,1.1878,1.178,1.1585,1.1292,1.1194,1.0998,1.1194,1.159,1.1492,1.1292,1.11,1.0904,1.0511,1.0413,1.0015,0.9521,0.892,0.8421,0.8028,0.7939,0.7743,0.7042,0.6029,0.5429,0.5133,0.4734,0.4435,0.4031,0.3524,0.312,0.2914,0.2699,0.2071,0.2047,0.2319,0.2091,0.1678,0.1006,0.0361,-0.0269,-0.1165,-0.1973,-0.2238,-0.2323,-0.2323,-0.2591,-0.2858,-0.3031,-0.3186,-0.3354,-0.3507,-0.3915,-0.4504,-0.5178,-0.5523,-0.587,-0.6417,-0.688,-0.6942,-0.7011,-0.7629,-0.8241,-0.8675,-0.9497,-1.1204,-1.2446,-1.3043,-1.3375,-1.3768,-1.4482,-1.553,-1.6535,-1.7615,-1.8154,-1.8469,-1.9212,-1.9544,-1.9402,-1.9486,-1.9799]}]]